     2              OBSERVATION DATA    GPS                 RINEX VERSION / TYPE
teqc 1999Jul19 19991123 03:12:04UTC                         PGM / RUN BY / DATE
                                                            COMMENT
Original Marker Name: 1005                                  COMMENT
Campaign Name: HPGN 1991                                    COMMENT
4-Character Station Name: 1005                              COMMENT
6-Character Antenna Code: TRMSST                            COMMENT
Vertical Measurement Point: BPA                             COMMENT
Vertical Offset to Rinex Ref. Point: 0.0000                 COMMENT
Radial Measurement Point: RRP                               COMMENT
Radial Offset to Rinex Ref. Point: 0.0000                   COMMENT
Antenna Height from Field Measurement: 2.2200 m             COMMENT
                                                            COMMENT
Original XYZ: -2536917.1606 -4347210.0143 3905739.9772      COMMENT
New XYZ position is based on association with SCEC monument COMMENT
E1F9E5M1+0011. Position of that monument is believed to be  COMMENT
valid to within 1 m horizontally; vertical accuracy         COMMENT
should be no worse than 3-times this value.                 COMMENT
                                                            COMMENT
Revised Rinex header created by UCSD GPS archive for        COMMENT
GSAC on 10-Mar-2000 (2000:070) 17:26:12 GMT                 COMMENT
For assistance contact dagnew@ucsd.edu or hjohnson@ucsd.edu COMMENT
                                                            COMMENT
HPGN CA 10 05                                               MARKER NAME
1005                                                        MARKER NUMBER
-Unknown- CALIF DEPT TRANSPORTATION                         OBSERVER / AGENCY
486 TRIMBLE 4000 SST NP 4.30 / SP 4.20                      REC # / TYPE / VERS
17 TR 4000SST L1/L2 GEO                                     ANT # / TYPE
 -2536919.8756 -4347216.3907  3905740.9335                  APPROX POSITION XYZ
        2.2200        0.0000        0.0000                  ANTENNA: DELTA H/E/N
     1     1     0                                          WAVELENGTH FACT L1/2
     5    C1    L1    L2    S1    S2                        # / TYPES OF OBSERV
     0                                                      INTERVAL
  1991     6    11    16    23   15.000000                  TIME OF FIRST OBS
  1991     6    11    22    27   60.000000                  TIME OF LAST OBS
                                                            END OF HEADER
 91  6 11 16 23 15.0000000  0  4G18G11G19G 2
  20618234.352          -0.69118        -0.38432        29.500           2.125
  24341019.813          -0.66416        -0.40231        12.500           0.469
  20751312.555          -0.11017        -0.30331        21.250           1.281
  24353620.602          -0.31315        -0.11131        10.000           0.250
 91  6 11 16 23 30.0000000  0  4G18G11G19G 2
  20619470.883        6510.136 8      5072.96422        28.750           2.063
  24331612.320      -49440.440 6    -38524.83121        12.750           0.563
  20748410.219      -15248.132 7    -11881.88521        22.250           1.406
  24341963.375      -61236.441 5    -47716.53421         8.750           0.375
 91  6 11 16 23 45.0000000  0  4G18G11G19G 2
  20620726.227       13102.303 8     10209.69522        29.000           2.188
  24322214.953      -98840.058 6    -77017.92721        13.250           0.438
  20745515.992      -30468.998 7    -23742.30621        21.250           1.344
  24330310.297     -122469.219 5    -95430.33021         8.750           0.219
 91  6 11 16 24  0.0000000  0  4G18G11G19G 2
  20621995.953       19779.678 8     15412.82322        28.750           2.219
  24312819.422     -148195.256 6   -115476.43521        13.250           0.469
  20742622.734      -45658.899 7    -35578.59721        21.250           1.406
  24318659.422     -183694.740 5   -143138.49921         9.000           0.438
 91  6 11 16 24 15.0000000  0  4G18G11G19G 2
  20623285.969       26547.457 8     20686.39422        29.250           2.156
  24303438.141     -197500.500 6   -153895.99321        13.750           0.469
  20739740.750      -60812.771 7    -47386.81921        21.000           1.313
  24307014.898     -244907.548 5   -190836.73221        10.000           0.375
 91  6 11 16 24 30.0000000  0  4G18G11G19G 2
  20624591.734       33406.765 8     26031.28622        29.000           2.156
  24294059.914     -246754.119 5   -192275.38821        11.750           0.500
  20736864.023      -75929.564 7    -59166.13921        21.500           1.438
  24295363.945     -306106.487 5   -238524.14421         9.750           0.281
 91  6 11 16 24 45.0000000  0  4G18G11G19G 2
  20625913.750       40361.240 8     31450.32522        29.000           2.156
  24284702.047     -295951.997 6   -230611.28321        13.250           0.563
  20733996.648      -91005.260 7    -70913.44421        21.250           1.344
  24283726.133     -367287.309 5   -286197.48821        10.000           0.375
 91  6 11 16 25  0.0000000  0  4G18G11G19G 2
  20627256.672       47413.394 8     36945.49322        29.000           2.094
  24275349.500     -345091.286 6   -268901.56021        12.750           0.438
  20731134.625     -106037.687 7    -82627.02821        21.500           1.156
  24272089.898     -428447.450 5   -333854.70621         9.750           0.438
 91  6 11 16 25 15.0000000  0  4G18G11G19G 2
  20628616.711       54561.009 8     42515.03322        29.000           2.125
  24266008.914     -394173.910 6   -307147.65321        12.500           0.469
  20728280.555     -121029.086 7    -94308.64921        21.250           1.344
  24260455.523     -489589.014 5   -381497.42421        10.000           0.375
 91  6 11 16 25 30.0000000  0  4G18G11G19G 2
  20629994.734       61804.999 8     48159.67722        28.500           2.188
  24256682.344     -443198.543 6   -345348.58721        12.750           0.469
  20725436.008     -135978.627 7   -105957.64821        20.750           1.438
  24248821.695     -550710.874 5   -429124.80621        10.500           0.344
 91  6 11 16 25 45.0000000  0  4G18G11G19G 2
  20631393.406       69147.960 8     53881.43922        29.000           2.188
  24247367.055     -492161.974 6   -383501.80521        13.500           0.500
  20722600.195     -150883.446 7   -117571.80021        20.500           1.344
  24237191.719     -611810.237 5   -476734.65121         9.250           0.438
 91  6 11 16 26  0.0000000  0  4G18G11G19G 2
  20632806.453       76586.695 8     59677.82622        29.000           2.063
  24238055.508     -541066.814 6   -421609.40221        12.000           0.438
  20719770.688     -165746.659 7   -129153.53421        21.250           1.281
  24225572.086     -672889.694 5   -524328.96621        10.250           0.188
 91  6 11 16 26 15.0000000  0  4G18G11G19G 2
  20634242.789       84125.459 8     65552.16022        29.000           2.063
  24228761.250     -589908.625 6   -459667.85921        12.250           0.375
  20716952.867     -180564.212 7   -140699.68521        21.500           1.250
  24213951.422     -733945.171 5   -571904.63521        10.000           0.281
 91  6 11 16 26 30.0000000  0  4G18G11G19G 2
  20635694.172       91761.537 8     71502.32122        28.500           2.031
  24219478.438     -638689.872 5   -497679.11921        11.750           0.531
  20714140.570     -195339.107 7   -152212.59421        21.250           1.281
  24202340.953     -794979.237 5   -619463.59021        10.250           0.344
 91  6 11 16 26 45.0000000  0  4G18G11G19G 2
  20637164.734       99486.800 8     77521.98122        28.500           2.063
  24210206.789     -687417.888 5   -535648.91921        11.750           0.375
  20711333.867     -210079.295 7   -163698.46121        20.750           1.313
  24190730.281     -855999.525 5   -667011.83021        10.250           0.344
 91  6 11 16 27  0.0000000  0  4G18G11G19G 2
  20638654.117      107310.390 8     83618.25922        28.500           2.156
  24200946.922     -736083.073 6   -573569.77321        12.250           0.469
  20708539.305     -224775.419 7   -175149.99621        21.500           1.375
  24179121.211     -916996.678 5   -714542.01221        10.250           0.375
 91  6 11 16 27 15.0000000  0  4G18G11G19G 2
  20640162.766      115234.556 8     89792.90522        28.500           2.125
  24191695.422     -784682.996 6   -611439.77221        12.500           0.469
  20705750.055     -239425.464 7   -186565.62821        21.250           1.344
  24167513.367     -977968.325 5   -762052.35621         9.250           0.344
 91  6 11 16 27 30.0000000  0  4G18G11G19G 2
  20641687.438      123258.926 8     96045.63522        28.500           2.219
  24182463.156     -833217.575 5   -649258.86521        11.750           0.500
  20702971.109     -254029.894 7   -197945.70721        21.500           1.313
  24155918.727    -1038914.646 5   -809542.94521        10.000           0.250
 91  6 11 16 27 45.0000000  0  4G18G11G19G 2
  20643233.484      131378.233 8    102372.33722        28.750           2.031
  24173238.242     -881691.577 6   -687030.74121        12.250           0.344
  20700201.719     -268593.867 7   -209294.26321        21.250           1.375
  24144319.648    -1099840.614 5   -857017.67221         9.250           0.344
 91  6 11 16 28  0.0000000  0  4G18G11G19G 2
  20644798.180      139595.149 8    108775.10422        29.000           2.125
  24164021.680     -930101.806 6   -724752.94121        12.000           0.281
  20697440.398     -283114.575 7   -220609.11021        21.000           1.281
  24132736.547    -1160743.257 5   -904474.19621         9.750           0.281
 91  6 11 16 28 15.0000000  0  4G18G11G19G 2
  20646378.430      147909.436 8    115253.74022        28.750           2.063
  24154827.344     -978448.554 6   -762425.65221        12.000           0.375
  20694684.141     -297592.731 7   -231890.80021        21.500           1.313
  24121153.492    -1221623.025 5   -951912.91421        10.000           0.438
 91  6 11 16 28 30.0000000  0  4G18G11G19G 2
  20647980.336      156318.844 8    121806.49622        28.750           2.125
  24145640.008    -1026733.076 5   -800049.89221        11.500           0.344
  20691937.945     -312030.159 7   -243140.75021        20.750           1.375
  24109563.430    -1282481.503 5   -999335.03121         9.500           0.344
 91  6 11 16 28 45.0000000  0  4G18G11G19G 2
  20649596.992      164822.930 8    128433.03022        28.250           2.156
  24136463.047    -1074955.569 5   -837625.82021        10.750           0.375
  20689196.836     -326427.460 7   -254359.43621        21.500           1.344
  24097992.711    -1343319.062 5  -1046740.85321        10.250           0.406
 91  6 11 16 29  0.0000000  0  4G18G11G19G 2
  20651235.055      173423.071 8    135134.41022        29.000           2.125
  24127294.445    -1123114.361 5   -875152.07721        10.250           0.406
  20686465.047     -340783.308 7   -265545.81121        20.750           1.313
  24086420.180    -1404134.186 5  -1094129.19221        10.000           0.281
 91  6 11 16 29 15.0000000  0  4G18G11G19G 2
  20652890.367      182118.173 8    141909.78922        28.500           2.125
  24118144.438    -1171209.906 5   -912629.05621        11.750           0.406
  20683738.367     -355098.564 7   -276700.56821        21.500           1.281
  24074849.883    -1464927.555 5  -1141500.60321        10.000           0.281
 91  6 11 16 29 30.0000000  0  4G18G11G19G 2
  20654561.922      190906.756 8    148758.00722        28.500           2.156
  24109002.586    -1219243.333 5   -950057.66521        11.750           0.406
  20681024.570     -369374.791 7   -287824.90921        21.250           1.250
  24063287.383    -1525700.545 5  -1188856.08521        10.000           0.313
 91  6 11 16 29 45.0000000  0  4G18G11G19G 2
  20656254.242      199793.079 8    155682.38422        29.250           2.188
  24099874.813    -1267209.905 5   -987434.14021        11.750           0.344
  20678311.078     -383607.608 7   -298915.41621        20.750           1.313
  24051731.211    -1586448.615 5  -1236192.17521        10.250           0.281
 91  6 11 16 30  0.0000000  0  4G18G11G19G 2
  20657962.516      208776.402 8    162682.35122        29.000           2.031
  24090760.773    -1315109.928 6  -1024758.78021        13.500           0.500
  20675614.453     -397797.916 7   -309972.80821        21.000           1.281
  24040172.047    -1647172.238 5  -1283509.20921        10.250           0.375
 91  6 11 16 30 15.0000000  0  4G18G11G19G 2
  20659689.586      217855.648 8    169757.05622        28.750           2.188
  24081659.789    -1362943.781 6  -1062031.86421        13.000           0.500
  20672919.320     -411946.350 7   -320997.57121        20.750           1.281
  24028619.023    -1707872.043 5  -1330807.68321        10.250           0.438
 91  6 11 16 30 30.0000000  0  4G18G11G19G 2
  20661435.602      227031.895 8    176907.35422        29.000           2.125
  24072568.445    -1410710.385 6  -1099252.53721        12.500           0.406
  20670240.203     -426052.388 7   -331989.28921        20.000           1.281
  24017071.141    -1768547.201 5  -1378086.94121        10.500           0.406
 91  6 11 16 30 45.0000000  0  4G18G11G19G 2
  20663199.297      236305.532 8    184133.53622        28.250           2.125
  24063491.586    -1458408.715 6  -1136419.99121        12.750           0.500
  20667561.258     -440115.601 7   -342947.64821        21.000           1.250
  24005531.031    -1829196.887 5  -1425346.35321        10.750           0.281
 91  6 11 16 31  0.0000000  0  4G18G11G19G 2
  20664984.148      245674.066 8    191433.66522        29.000           2.219
  24054428.781    -1506040.768 6  -1173535.84821        12.000           0.469
  20664894.516     -454138.189 7   -353874.34521        21.000           1.344
  23993998.813    -1889823.231 6  -1472587.56821        12.000           0.438
 91  6 11 16 31 15.0000000  0  4G18G11G19G 2
  20666788.531      255151.399 8    198818.57322        29.250           2.219
  24045376.609    -1553592.399 6  -1210589.00221        12.500           0.406
  20662235.102     -468106.494 7   -364758.74221        20.500           1.375
  23982464.656    -1950412.174 5  -1519799.67521        10.500           0.406
 91  6 11 16 31 30.0000000  0  4G18G11G19G 2
  20668608.898      264724.752 8    206278.29822        28.750           2.156
  24036339.063    -1601075.815 6  -1247589.02921        12.250           0.469
  20659581.406     -482033.234 7   -375610.75321        20.500           1.281
  23970947.188    -2010976.230 6  -1566992.34721        12.000           0.406
 91  6 11 16 31 45.0000000  0  5G18G11G19G16G 2
  20670449.063      274389.639 8    213809.34722        28.750           2.094
  24027321.734    -1648495.108 6  -1284539.07621        13.250           0.531
  20656941.680     -495922.839 7   -386433.83221        20.500           1.281
  24262748.445      -44352.861 5                         8.000
  23959420.938    -2071519.792 6  -1614169.07321        12.250           0.469
 91  6 11 16 32  0.0000000  0  5G18G11G19G16G 2
  20672306.648      284152.674 8    221416.88222        29.000           2.219
  24018306.875    -1695843.252 6  -1321433.69021        12.250           0.594
  20654308.492     -509768.782 7   -397222.89021        21.250           1.219
  24254329.258      -88608.339 5                         8.250
  23947906.852    -2132036.100 5  -1661324.56621        11.500           0.469
 91  6 11 16 32 15.0000000  0  5G18G11G19G16G 2
  20674183.984      294013.662 8    229100.74222        29.000           2.219
  24009313.469    -1743119.799 6  -1358272.53021        14.000           0.719
  20651680.500     -523571.063 7   -407977.92521        20.750           1.250
  24245933.117     -132766.671 5                         9.000
  23936394.711    -2192524.772 5  -1708458.50621        11.250           0.531
 91  6 11 16 32 30.0000000  0  5G18G11G19G16G 2
  20676078.406      303972.809 8    236861.09222        29.000           2.250
  24000327.813    -1790324.183 6  -1395055.11721        13.250           0.719
  20649065.883     -537329.558 7   -418698.83321        20.250           1.281
  24237539.852     -176827.285 5                         8.750
  23924886.500    -2252985.466 5  -1755570.65221        11.500           0.500
 91  6 11 16 32 45.0000000  0  5G18G11G19G16G 2
  20677993.406      314034.162 8    244701.07822        28.750           2.281
  23991365.367    -1837452.190 6  -1431778.20021        14.500           0.625
  20646451.695     -551040.385 7   -429382.60921        20.250           1.344
  24229177.992     -220786.057 5                         8.500
  23913390.359    -2313414.079 5  -1802657.80721        11.500           0.438
 91  6 11 16 33  0.0000000  0  5G18G11G19G16G 2
  20679926.320      324188.467 8    252613.49622        29.000           2.250
  23982408.500    -1884512.511 6  -1468448.55021        13.250           0.656
  20643851.602     -564712.419 7   -440036.15421        20.000           1.125
  24220827.242     -264651.892 5        -0.49931         8.250           0.188
  23901898.750    -2373819.319 6  -1849726.73021        12.250           0.469
 91  6 11 16 33 15.0000000  0  5G18G11G19G16G 2
  20681875.695      334443.331 8    260604.27722        28.750           2.250
  23973467.438    -1931497.061 6  -1505059.84921        13.500           0.563
  20641259.891     -578338.260 7   -450653.69921        20.500           1.188
  24212497.266     -308416.850 5    -34103.06121         8.750           0.219
  23890401.781    -2434193.611 5  -1896771.55521        11.750           0.438
 91  6 11 16 33 30.0000000  0  5G18G11G19G16G 2
  20683849.219      344811.046 8    268682.99022        29.000           2.188
  23964541.445    -1978393.183 6  -1541602.21921        13.500           0.688
  20638679.188     -591905.626 7   -461225.68221        20.500           1.406
  24204197.055     -352068.465 5    -68117.28121         8.500           0.219
  23878926.148    -2494524.491 5  -1943782.53921        11.500           0.406
 91  6 11 16 33 45.0000000  0  5G18G11G19G16G 2
  20685842.836      355289.050 8    276847.63822        29.250           2.281
  23955633.977    -2025202.714 6  -1578077.14621        13.000           0.594
  20636104.398     -605416.650 7   -471753.75921        20.000           1.281
  24195907.250     -395608.574 5   -102044.64321         8.500           0.188
  23867454.141    -2554814.033 5  -1990761.33321        11.250           0.438
 91  6 11 16 34  0.0000000  0  5G18G11G19G16G 2
  20687857.109      365871.280 8    285093.50822        29.250           2.313
  23946745.336    -2071931.560 6  -1614489.17621        13.750           0.531
  20633543.617     -618877.705 7   -482242.90621        20.500           1.313
  24187644.195     -439043.248 5   -135889.85621         8.750           0.156
  23855986.898    -2615068.279 5  -2037712.61421        11.250           0.500
 91  6 11 16 34 15.0000000  0  5G18G11G19G16G 2
  20689888.836      376555.713 8    293419.01522        28.500           2.313
  23937864.156    -2118581.384 6  -1650839.63421        12.750           0.625
  20630994.523     -632290.978 7   -492694.81821        20.250           1.281
  24179398.102     -482374.417 5   -169654.40521         8.750           0.063
  23844530.352    -2675289.166 5  -2084637.89121        11.500           0.469
 91  6 11 16 34 30.0000000  0  5G18G11G19G16G 2
  20691943.094      387345.382 8    301826.52522        29.000           2.188
  23929004.227    -2165148.416 6  -1687125.55721        13.750           0.531
  20628450.336     -645653.087 7   -503106.86121        20.250           1.219
  24171168.742     -525598.719 5   -203335.70221         8.250           0.250
  23833075.867    -2735473.132 5  -2131534.43421        11.250           0.375
 91  6 11 16 34 45.0000000  0  5G18G11G19G16G 2
  20694016.453      398235.074 8    310311.97822        29.500           2.219
  23920153.844    -2211637.418 6  -1723350.69621        13.500           0.625
  20625913.547     -658969.223 7   -513483.07921        20.000           1.375
  24162968.117     -568721.033 5   -236937.46921         8.750           0.250
  23821632.570    -2795625.175 5  -2178406.06821        11.250           0.563
 91  6 11 16 35  0.0000000  0  5G18G11G19G16G 2
  20696107.086      409227.801 8    318877.71522        28.750           2.313
  23911323.547    -2258045.137 6  -1759512.47921        13.750           0.656
  20623389.711     -672236.503 6   -523821.22821        19.750           1.313
  24154782.609     -611737.999 5   -270457.19321         8.500           0.250
  23810189.516    -2855742.125 5  -2225250.38221        11.500           0.500
 91  6 11 16 35 15.0000000  0  5G18G11G19G16G 2
  20698217.445      420319.564 8    327520.62322        28.750           2.344
  23902508.758    -2304374.855 6  -1795613.50621        13.750           0.469
  20620873.289     -685458.801 6   -534124.32921        19.500           1.281
  24146617.453     -654653.090 5   -303897.51021         9.000           0.188
  23798759.359    -2915827.553 6  -2272070.10721        12.000           0.531
 91  6 11 16 35 30.0000000  0  5G18G11G19G16G 2
  20700349.211      431508.854 8    336239.52322        29.250           2.125
  23893708.539    -2350627.779 6  -1831654.68221        14.000           0.531
  20618364.656     -698637.573 6   -544393.51121        19.750           1.313
  24138476.016     -697467.664 5   -337259.54621         9.250           0.156
  23787325.070    -2975882.864 5  -2318866.38621        11.500           0.500
 91  6 11 16 35 45.0000000  0  5G18G11G19G16G 2
  20702495.492      442801.225 8    345038.75222        28.250           2.313
  23884921.852    -2396797.762 6  -1867631.23221        13.500           0.500
  20615868.359     -711767.185 7   -554624.38421        20.000           1.375
  24130346.758     -740175.599 5   -370538.42721         9.500           0.250
  23775905.352    -3035902.131 5  -2365634.57921        11.750           0.469
 91  6 11 16 36  0.0000000  0  5G18G11G19G16G 2
  20704663.125      454187.578 8    353911.21022        28.750           2.188
  23876147.516    -2442893.810 6  -1903550.14521        13.000           0.531
  20613372.852     -724856.970 7   -564824.22921        20.000           1.313
  24122233.031     -782786.325 5   -403741.59721         9.500           0.281
  23764492.758    -3095894.464 6  -2412381.78821        13.000           0.469
 91  6 11 16 36 15.0000000  0  5G18G11G19G16G 2
  20706848.672      465680.573 7    362866.76722        27.750           2.344
  23867395.969    -2488902.635 6  -1939401.11421        13.750           0.563
  20610895.859     -737893.957 7   -574982.93021        20.000           1.219
  24114141.438     -825286.688 5   -436858.77321         9.500           0.063
  23753080.938    -3155846.760 6  -2459097.80221        12.250           0.563
 91  6 11 16 36 30.0000000  0  5G18G11G19G16G 2
  20709054.250      477267.565 8    371895.57322        28.000           2.188
  23858654.836    -2534836.566 6  -1975193.72521        14.000           0.625
  20608421.656     -750891.139 6   -585110.62621        19.750           1.344
  24106077.094     -867688.773 5   -469899.34621        10.000           0.156
  23741669.883    -3215771.566 5  -2505792.38321        11.750           0.531
 91  6 11 16 36 45.0000000  0  5G18G11G19G16G 2
  20711277.359      488951.691 8    381000.06022        28.000           2.281
  23849927.109    -2580691.791 6  -2010924.99621        12.500           0.563
  20605958.227     -763845.081 6   -595204.61621        19.750           1.313
  24098028.469     -909989.267 5   -502860.77521         9.750           0.219
  23730278.500    -3275665.330 6  -2552462.79521        12.500           0.563
 91  6 11 16 37  0.0000000  0  5G18G11G19G16G 2
  20713521.125      500732.147 8    390179.61322        28.500           2.250
  23841214.125    -2626468.860 6  -2046595.35021        12.750           0.563
  20603501.664     -776756.577 6   -605265.54121        19.750           1.375
  24089993.906     -952188.743 5   -535743.47721         9.750           0.219
  23718887.445    -3335528.802 6  -2599109.59921        12.250           0.500
 91  6 11 16 37 15.0000000  0  5G18G11G19G16G 2
  20715781.195      512615.111 8    399439.03722        28.500           2.281
  23832520.445    -2672160.991 5  -2082199.53321        11.750           0.531
  20601053.234     -789619.321 6   -615288.46921        19.500           1.281
  24081985.305     -994280.586 5   -568542.30221         9.250           0.156
  23707501.313    -3395355.415 6  -2645727.69121        13.000           0.344
 91  6 11 16 37 30.0000000  0  5G18G11G19G16G 2
  20718063.891      524600.607 8    408778.36422        28.500           2.313
  23823843.422    -2717767.743 6  -2117737.17221        13.000           0.469
  20598614.320     -802433.216 6   -625273.33421        19.500           1.313
  24073990.953    -1036264.542 5   -601257.07621         8.500           0.156
  23696118.547    -3455144.947 6  -2692316.87521        12.000           0.531
 91  6 11 16 37 45.0000000  0  5G18G11G19G16G 2
  20720364.500      536693.455 8    418201.34822        28.000           2.313
  23815184.008    -2763283.841 6  -2153204.20821        12.000           0.500
  20596186.961     -815193.550 6   -635216.46621        19.750           1.375
  24066028.875    -1078135.470 5   -633883.76621         9.500           0.156
  23684755.930    -3514892.280 6  -2738873.19621        13.000           0.531
 91  6 11 16 38  0.0000000  0  5G18G11G19G16G 2
  20722685.109      548889.460 8    427704.70422        28.250           2.344
  23806535.016    -2808713.020 5  -2188603.47621        11.750           0.656
  20593769.750     -827904.266 6   -645120.93221        19.750           1.344
  24058081.523    -1119897.415 5   -666425.54621         9.500           0.156
  23673396.805    -3574601.299 6  -2785399.66521        13.250           0.500
 91  6 11 16 38 15.0000000  0  5G18G11G19G16G 2
  20725023.711      561181.019 8    437282.52022        28.000           2.250
  23797907.945    -2854062.804 6  -2223940.88021        12.500           0.469
  20591358.258     -840573.309 6   -654992.92921        19.500           1.250
  24050158.234    -1161557.629 5   -698888.07021        10.000           0.188
  23662040.727    -3634279.725 6  -2831902.26621        13.000           0.500
 91  6 11 16 38 30.0000000  0  5G18G11G19G16G 2
  20727380.188      573571.633 8    446937.52222        28.250           2.219
  23789294.844    -2899328.652 6  -2259212.90721        12.500           0.469
  20588954.125     -853196.670 6   -664829.32921        19.250           1.344
  24042246.477    -1203111.983 5   -731268.07721         9.500           0.125
  23650687.703    -3693923.223 6  -2878377.68621        12.250           0.438
 91  6 11 16 38 45.0000000  0  5G18G11G19G16G 2
  20729757.180      586062.178 7    456670.38822        27.500           2.250
  23780696.031    -2944509.698 6  -2294418.85021        12.000           0.531
  20586562.070     -865773.848 6   -674629.73921        19.750           1.406
  24034363.859    -1244559.661 5   -763564.98521        10.250           0.188
  23639345.781    -3753531.113 6  -2924825.34321        13.000           0.469
 91  6 11 16 39  0.0000000  0  5G18G11G19G16G 2
  20732154.523      598657.151 8    466484.63322        28.000           2.313
  23772111.320    -2989600.729 5  -2329554.65321        11.500           0.563
  20584178.867     -878300.083 6   -684390.45521        19.500           1.313
  24026490.695    -1285895.834 5   -795774.97921         9.750           0.188
  23628001.328    -3813098.479 6  -2971241.43021        12.750           0.438
 91  6 11 16 39 15.0000000  0  5G18G11G19G16G 2
  20734571.156      611354.642 8    476378.75822        28.000           2.344
  23763548.281    -3034603.255 5  -2364621.47621        11.750           0.531
  20581804.000     -890777.336 6   -694113.00321        19.500           1.375
  24018649.477    -1327122.093 5   -827899.35021        10.000           0.250
  23616682.547    -3872626.946 6  -3017627.20521        12.750           0.438
 91  6 11 16 39 30.0000000  0  5G18G11G19G16G 2
  20737006.109      624149.893 8    486349.06622        28.000           2.250
  23755001.234    -3079521.575 5  -2399622.69621        10.750           0.531
  20579437.039     -903210.253 7   -703801.00321        20.000           1.406
  24010823.445    -1368242.958 5   -859941.57621        10.000           0.313
  23605363.156    -3932121.084 6  -3063986.22521        13.250           0.469
 91  6 11 16 39 45.0000000  0  5G18G11G19G16G 2
  20739458.984      637044.620 7    496396.87922        27.500           2.375
  23746470.703    -3124353.805 5  -2434556.81721        11.750           0.594
  20577085.211     -915597.400 7   -713453.33621        20.250           1.469
  24003017.305    -1409256.590 5   -891900.24021        10.250           0.281
  23594044.297    -3991579.225 6  -3110317.21621        12.250           0.500
 91  6 11 16 40  0.0000000  0  5G18G11G19G16G 2
  20741933.938      650048.496 7    506529.74622        27.500           2.281
  23737958.969    -3169089.679 6  -2469415.88821        12.750           0.563
  20574733.289     -927928.715 6   -723062.17021        19.750           1.344
  23995240.250    -1450152.813 5   -923767.42721        10.750           0.219
  23582736.891    -4050991.178 6  -3156612.20021        12.250           0.469
 91  6 11 16 40 15.0000000  0  5G18G11G19G16G 2
  20744426.898      663151.317 7    516739.71922        27.500           2.375
  23729463.313    -3213738.805 6  -2504207.34821        13.500           0.563
  20572397.977     -940214.239 6   -732635.31421        19.750           1.344
  23987478.148    -1490941.401 5   -955550.75221        10.750           0.156
  23571437.703    -4110366.789 6  -3202878.86221        12.750           0.438
 91  6 11 16 40 30.0000000  0  5G18G11G19G16G 2
  20746939.398      676352.580 7    527026.39422        27.500           2.438
  23720980.750    -3258301.042 6  -2538931.14121        13.000           0.500
  20570067.516     -952454.429 6   -742173.14221        19.500           1.281
  23979731.102    -1531622.185 5   -987250.06721        10.750           0.188
  23560145.219    -4169706.142 6  -3249117.27621        12.250           0.406
 91  6 11 16 40 45.0000000  0  5G18G11G19G16G 2
  20749471.211      689652.795 7    537390.17122        27.750           2.375
  23712520.906    -3302775.771 6  -2573586.71721        13.250           0.719
  20567748.531     -964648.903 6   -751675.34721        19.750           1.250
  23972016.070    -1572194.784 5  -1018865.09121        11.000           0.188
  23548865.922    -4229008.784 6  -3295327.08821        12.250           0.500
 91  6 11 16 41  0.0000000  0  5G18G11G19G16G 2
  20752021.164      703054.193 7    547832.80122        27.500           2.375
  23704072.508    -3347160.380 6  -2608172.07721        13.000           0.563
  20565437.805     -976795.452 6   -761140.20621        19.000           1.313
  23964313.820    -1612656.966 5  -1050394.02221        11.250           0.188
  23537589.961    -4288272.233 6  -3341506.36721        13.000           0.500
 91  6 11 16 41 15.0000000  0  5G18G11G19G16G 2
  20754590.719      716559.557 7    558356.44122        27.250           2.375
  23695645.250    -3391451.581 6  -2642684.66021        12.250           0.656
  20563132.555     -988891.163 6   -770565.44721        19.750           1.344
  23956631.734    -1653005.426 5  -1081834.41421        11.000           0.250
  23526316.125    -4347493.393 6  -3387652.68421        12.500           0.438
 91  6 11 16 41 30.0000000  0  5G18G11G19G16G 2
  20757180.141      730165.178 7    568958.20222        27.250           2.438
  23687234.023    -3435652.432 6  -2677126.79621        13.250           0.594
  20560844.063    -1000939.577 6   -779953.84221        19.500           1.406
  23948978.195    -1693243.514 5  -1113188.76321        11.750           0.188
  23515054.766    -4406675.718 6  -3433768.73621        12.250           0.594
 91  6 11 16 41 45.0000000  0  5G18G11G19G16G 2
  20759789.063      743871.096 7    579638.11022        27.750           2.375
  23678842.844    -3479762.698 6  -2711498.41421        14.000           0.625
  20558556.750    -1012940.706 6   -789305.38721        19.500           1.438
  23941346.445    -1733370.935 5  -1144456.89221        11.250           0.156
  23503801.773    -4465818.979 6  -3479854.36521        12.500           0.500
 91  6 11 16 42  0.0000000  0  5G18G11G19G16G 2
  20762417.570      757681.637 7    590399.55422        27.500           2.438
  23670461.125    -3523777.353 6  -2745795.51121        13.250           0.500
  20556284.984    -1024890.044 6   -798616.57621        19.250           1.406
  23933733.078    -1773383.120 5  -1175635.20621        11.000           0.281
  23492556.867    -4524918.443 6  -3525905.85221        13.500           0.500
 91  6 11 16 42 15.0000000  0  5G18G11G19G16G 2
  20765066.133      771601.342 7    601246.04722        27.250           2.406
  23662105.930    -3567691.611 6  -2780014.38421        13.500           0.625
  20554020.102    -1036782.999 7   -807883.82521        20.000           1.406
  23926131.625    -1813275.165 5  -1206719.92821        10.500           0.219
  23481316.805    -4583969.244 6  -3571919.42621        12.500           0.563
 91  6 11 16 42 30.0000000  0  5G18G11G19G16G 2
  20767735.242      785623.659 7    612172.50523        27.500           2.500
  23653769.766    -3611511.582 6  -2814159.77021        13.750           0.656
  20551766.625    -1048626.092 7   -817112.22921        20.000           1.344
  23918558.891    -1853053.163 5  -1237715.74121        10.000           0.219
  23470084.883    -4642977.778 6  -3617900.06221        13.000           0.656
 91  6 11 16 42 44.9990000  0  5G18G11G19G16G 2
  20770421.573      799746.296 7    623177.13723        27.250           2.500
  23645446.222    -3655235.108 6  -2848230.02921        13.250           0.625
  20549518.745    -1060419.825 6   -826302.16221        19.250           1.313
  23911022.128    -1892715.729 5  -1268621.64221        10.750           0.281
  23458867.386    -4701941.192 6  -3663845.53721        13.000           0.563
 91  6 11 16 42 59.9990000  0  5G18G11G19G16G 2
  20773130.190      813972.621 7    634262.55922        27.000           2.438
  23637146.917    -3698866.124 6  -2882228.19821        14.250           0.719
  20547289.315    -1072164.205 6   -835453.64221        19.000           1.406
  23903496.519    -1932266.473 5  -1299440.38921        10.750           0.250
  23447653.722    -4760865.666 6  -3709760.68221        13.000           0.688
 91  6 11 16 43 14.9990000  0  5G18G11G19G16G 2
  20775855.042      828300.948 7    645427.46522        26.750           2.469
  23628860.972    -3742402.049 6  -2916152.26421        14.000           0.656
  20545061.745    -1083859.248 7   -844566.67921        20.000           1.375
  23895986.112    -1971702.963 5  -1330170.12021        10.250           0.250
  23436447.784    -4819747.852 6  -3755642.85321        12.500           0.719
 91  6 11 16 43 29.9990000  0  5G18G11G19G16G 2
  20778602.136      842726.529 7    656668.15422        26.750           2.375
  23620591.800    -3785847.127 6  -2950005.55821        13.250           0.688
  20542843.659    -1095509.430 7   -853644.75921        20.000           1.375
  23888506.214    -2011029.827 5  -1360814.43621        10.750           0.156
  23425248.175    -4878592.197 6  -3801495.55121        12.750           0.719
 91  6 11 16 43 44.9990000  0  5G18G11G19G16G 2
  20781365.159      857251.974 7    667986.65923        26.500           2.500
  23612343.956    -3829198.051 6  -2983785.44921        13.250           0.656
  20540637.565    -1107111.914 7   -862685.66821        20.000           1.469
  23881036.526    -2050243.995 5  -1391370.90521        10.750           0.250
  23414058.940    -4937395.480 6  -3847316.25121        13.250           0.625
 91  6 11 16 43 59.9990000  0  5G18G11G19G16G 2
  20784147.612      871872.470 7    679379.23422        26.750           2.313
  23604110.261    -3872459.447 6  -3017495.60721        12.250           0.656
  20538435.065    -1118671.699 7   -871693.30421        20.250           1.375
  23873609.964    -2089350.091 5  -1421843.22021        11.500           0.250
  23402881.698    -4996162.379 6  -3893108.59821        13.750           0.594
 91  6 11 16 44 14.9990000  0  5G18G11G19G16G 2
  20786947.175      886594.649 7    690851.03622        26.250           2.438
  23595896.019    -3915624.584 6  -3051130.74021        12.750           0.594
  20536248.917    -1130182.552 7   -880662.81721        20.250           1.375
  23866178.300    -2128341.652 5  -1452226.25121        11.000           0.219
  23391704.730    -5054886.385 6  -3938867.52321        13.000           0.594
 91  6 11 16 44 29.9990000  0  5G18G11G19G16G 2
  20789768.409      901417.258 7    702401.08922        26.000           2.469
  23587700.940    -3958693.883 6  -3084691.21221        13.750           0.625
  20534067.136    -1141645.341 7   -889594.87821        20.000           1.375
  23858781.050    -2167219.397 5  -1482520.56621        10.500           0.219
  23380536.620    -5113568.233 6  -3984593.58321        13.750           0.594
 91  6 11 16 44 44.9990000  0  5G18G11G19G16G 2
  20792609.964      916338.080 7    714027.68122        25.750           2.344
  23579522.519    -4001668.966 6  -3118178.28421        13.000           0.563
  20531892.605    -1153061.954 6   -898490.94221        18.750           1.313
  23851404.284    -2205985.023 5  -1512727.56721        10.000           0.344
  23369374.222    -5172209.859 6  -4030288.30821        12.750           0.656
 91  6 11 16 44 59.9990000  0  5G18G11G19G16G 2
  20795465.800      931357.292 7    725730.93522        26.000           2.469
  23571361.862    -4044549.442 6  -3151591.61121        13.750           0.500
  20529732.042    -1164432.330 6   -907350.99121        19.000           1.313
  23844045.253    -2244638.093 5  -1542846.84621        10.250           0.156
  23358226.245    -5230811.175 6  -4075951.62421        13.250           0.719
 91  6 11 16 45 14.9990000  0  5G18G11G19G16G 2
  20798342.644      946479.141 7    737514.17422        26.250           2.469
  23563220.425    -4087330.515 6  -3184927.48821        13.250           0.625
  20527573.558    -1175751.998 6   -916171.53021        19.250           1.406
  23836712.214    -2283174.007 5  -1572874.83621        10.250           0.156
  23347084.761    -5289367.305 6  -4121579.73021        13.500           0.531
 91  6 11 16 45 29.9990000  0  5G18G11G19G16G 2
  20801241.690      961700.151 7    749374.67122        26.750           2.375
  23555101.815    -4130015.164 6  -3218188.20321        12.750           0.656
  20525430.964    -1187024.303 6   -924955.16021        19.000           1.438
  23829405.206    -2321595.674 5  -1602813.76121        10.750           0.219
  23335954.667    -5347881.367 6  -4167175.05821        14.000           0.500
 91  6 11 16 45 44.9990000  0  5G18G11G19G16G 2
  20804156.558      977021.115 7    761313.05922        25.750           2.469
  23546995.401    -4172602.107 6  -3251372.78521        12.750           0.625
  20523294.690    -1198248.391 6   -933701.22121        19.750           1.406
  23822115.269    -2359902.350 5  -1632663.13221        10.750           0.313
  23324821.847    -5406352.375 6  -4212736.83721        13.750           0.625
 91  6 11 16 45 59.9990000  0  5G18G11G19G16G 2
  20807090.292      992446.039 7    773332.44622        26.000           2.469
  23538912.378    -4215086.989 6  -3284477.84021        13.500           0.625
  20521167.753    -1209420.411 6   -942406.70221        19.250           1.344
  23814853.690    -2398089.427 5  -1662419.30221        11.000           0.313
  23313703.831    -5464776.246 6  -4258261.88221        13.250           0.563
 91  6 11 16 46 14.9990000  0  5G18G11G19G16G 2
  20810043.815     1007968.672 7    785427.98022        26.250           2.469
  23530845.237    -4257475.680 6  -3317507.95521        13.500           0.625
  20519053.597    -1220546.575 6   -951076.45621        19.750           1.375
  23807598.659    -2436163.500 5  -1692087.40721        10.750           0.219
  23302593.464    -5523158.885 6  -4303754.79421        13.250           0.594
 91  6 11 16 46 29.9990000  0  5G18G11G19G16G 2
  20813017.519     1023592.799 7    797602.59422        26.500           2.469
  23522797.433    -4299763.971 6  -3350459.81521        12.750           0.563
  20516943.097    -1231622.955 7   -959707.42121        20.000           1.375
  23800383.355    -2474120.258 5  -1721664.08521        11.250           0.344
  23291493.761    -5581496.199 6  -4349212.41121        12.750           0.563
 91  6 11 16 46 44.9990000  0  5G18G11G19G16G 2
  20816012.237     1039326.408 7    809862.52022        26.000           2.438
  23514769.987    -4341943.214 6  -3383326.69221        13.000           0.594
  20514849.597    -1242641.227 6   -968293.09521        19.750           1.375
  23793186.409    -2511951.157 5  -1751142.71421        11.500           0.375
  23280403.214    -5639779.925 6  -4394628.23221        13.750           0.469
 91  6 11 16 46 59.9990000  0  5G18G11G19G16G 2
  20819026.284     1055158.159 7    822198.92122        26.750           2.469
  23506763.167    -4384024.350 6  -3416117.12021        13.250           0.563
  20512759.378    -1253612.725 6   -976842.32621        19.500           1.375
  23786004.745    -2549667.231 5  -1780531.86821        11.500           0.313
  23269316.433    -5698021.035 6  -4440010.86821        13.250           0.531
 91  6 11 16 47 14.9990000  0  5G18G11G19G16G 2
  20822056.917     1071092.066 7    834614.92622        26.250           2.469
  23498771.995    -4426002.954 6  -3448827.65021        13.000           0.563
  20510682.675    -1264533.562 6   -985352.08321        19.750           1.344
  23778853.151    -2587264.313 5  -1809828.27721        11.750           0.344
  23258243.448    -5756215.320 6  -4485357.00721        13.750           0.469
 91  6 11 16 47 29.9990000  0  5G18G11G19G16G 2
  20825106.901     1087128.657 7    847110.94122        25.500           2.344
  23490807.081    -4467877.876 6  -3481457.39721        13.500           0.500
  20508614.409    -1275402.778 6   -993821.61421        19.750           1.281
  23771722.003    -2624741.514 5  -1839031.29421        11.500           0.375
  23247183.440    -5814361.969 6  -4530666.03721        13.750           0.531
 91  6 11 16 47 44.9990000  0  5G18G11G19G16G 2
  20828180.605     1103270.274 7    859688.79722        26.250           2.375
  23482859.401    -4509646.505 6  -3514004.30421        14.000           0.500
  20506554.909    -1286218.040 6  -1002249.10921        19.500           1.406
  23764614.378    -2662096.302 5  -1868138.92921        11.000           0.406
  23236126.894    -5872458.333 6  -4575935.87521        14.250           0.625
 91  6 11 16 47 59.9990000  0  5G18G11G19G16G 2
  20831270.378     1119511.169 7    872344.00922        26.750           2.375
  23474927.823    -4551314.357 6  -3546472.66921        13.000           0.375
  20504505.565    -1296985.349 6  -1010639.23821        19.500           1.313
  23757529.550    -2699334.328 5  -1897155.55021        11.250           0.406
  23225076.144    -5930510.162 6  -4621171.01321        13.500           0.563
 91  6 11 16 48 14.9990000  0  5G18G11G19G16G 2
  20834381.300     1135856.064 7    885080.26222        26.500           2.344
  23467020.667    -4592876.085 6  -3578858.37621        14.250           0.563
  20502464.987    -1307699.668 6  -1018988.06421        19.500           1.375
  23750463.167    -2736450.447 5  -1926077.21721        10.500           0.313
  23214042.011    -5988512.312 6  -4666367.44521        14.250           0.594
 91  6 11 16 48 29.9990000  0  5G18G11G19G16G 2
  20837511.112     1152307.538 7    897899.55322        26.750           2.406
  23459131.714    -4634328.564 6  -3611158.94821        13.500           0.469
  20500436.714    -1318358.241 7  -1027293.46321        20.250           1.281
  23743423.737    -2773441.726 5  -1954901.59221        10.750           0.250
  23203012.292    -6046461.756 6  -4711522.80521        14.000           0.531
 91  6 11 16 48 44.9990000  0  5G18G11G19G16G 2
  20840662.003     1168859.077 7    910796.83122        26.500           2.406
  23451263.628    -4675677.802 6  -3643379.03421        13.500           0.656
  20498419.862    -1328967.525 6  -1035560.45521        19.500           1.344
  23736413.448    -2810314.454 5  -1983633.59521        11.750           0.313
  23191999.737    -6104364.631 6  -4756641.86821        15.000           0.719
 91  6 11 16 48 59.9990000  0  5G18G11G19G16G 2
  20843830.909     1185504.825 7    923767.52122        26.750           2.281
  23443412.901    -4716929.352 6  -3675523.02621        12.750           0.531
  20496408.839    -1339533.455 6  -1043793.65921        19.250           1.313
  23729415.995    -2847074.014 5  -2012277.39821        11.250           0.281
  23180982.886    -6162226.964 6  -4801729.35121        14.250           0.750
 91  6 11 16 49 14.9990000  0  5G18G11G19G16G 2
  20847014.026     1202250.571 7    936816.11922        26.000           2.313
  23435584.675    -4758076.951 6  -3707585.99621        13.750           0.531
  20494408.636    -1350050.246 6  -1051988.57521        19.750           1.344
  23722437.167    -2883714.361 5  -2040828.33021        10.750           0.188
  23169985.565    -6220042.600 6  -4846780.44221        14.500           0.625
 91  6 11 16 49 29.9990000  0  5G18G11G19G16G 2
  20850221.815     1219097.875 7    949943.85022        26.500           2.438
  23427772.542    -4799118.603 6  -3739566.42121        13.500           0.469
  20492419.206    -1360516.132 7  -1060143.82721        20.000           1.250
  23715493.628    -2920233.924 5  -2069285.13221        11.500           0.313
  23158986.784    -6277809.573 6  -4891793.62321        13.750           0.594
 91  6 11 16 49 44.9990000  0  5G18G11G19G16G 2
  20853446.917     1236045.359 7    963149.65022        26.250           2.313
  23419984.730    -4840055.258 6  -3771465.04821        15.250           0.344
  20490434.675    -1370932.331 6  -1068260.36121        19.500           1.344
  23708555.433    -2956633.586 5  -2097648.49521        10.750           0.313
  23148003.542    -6335529.057 6  -4936769.79121        14.500           0.625
 91  6 11 16 49 59.9990000  0  5G18G11G19G16G 2
  20856691.948     1253099.610 7    976438.64822        26.000           2.313
  23412213.815    -4880879.790 6  -3803276.29621        14.250           0.500
  20488464.542    -1381292.090 6  -1076332.91321        19.750           1.281
  23701652.815    -2992906.437 5  -2125913.06721        10.500           0.281
  23137030.667    -6393194.172 6  -4981703.60021        14.500           0.719
 91  6 11 16 50 14.9990000  0  5G18G11G19G16G 2
  20859957.112     1270250.772 7    989803.15622        26.500           2.344
  23404467.972    -4921601.530 6  -3835007.43621        14.000           0.500
  20486500.800    -1391605.155 6  -1084369.07821        19.500           1.313
  23694783.589    -3029062.089 5  -2154086.31321        11.750           0.188
  23126064.183    -6450814.511 6  -5026602.51321        14.250           0.719
 91  6 11 16 50 29.9990000  0  5G18G11G19G16G 2
  20863241.550     1287502.031 7   1003245.66522        26.500           2.406
  23396736.737    -4962216.857 6  -3866655.64221        14.750           0.563
  20484550.105    -1401868.177 6  -1092366.25521        19.500           1.344
  23687926.823    -3065096.987 5  -2182165.44521        11.250           0.313
  23115109.370    -6508386.620 6  -5071463.85121        14.250           0.688
 91  6 11 16 50 44.9990000  0  5G18G11G19G16G 2
  20866543.511     1304858.675 7   1016770.28722        26.250           2.375
  23389028.253    -5002720.016 6  -3898216.47021        15.250           0.500
  20482604.269    -1412075.723 6  -1100320.19921        19.250           1.375
  23681089.222    -3101005.381 5  -2210146.00821        11.000           0.250
  23104165.511    -6565904.703 6  -5116283.09921        14.250           0.750
 91  6 11 16 50 59.9990000  0  5G18G11G19G16G 2
  20869864.089     1322314.312 7   1030372.04922        25.500           2.469
  23381341.605    -5043116.969 6  -3929694.53821        14.750           0.500
  20480670.917    -1422234.348 6  -1108236.02821        19.750           1.313
  23674277.339    -3136793.720 5  -2238033.04021        11.000           0.344
  23093228.620    -6623375.153 6  -5161065.21821        14.000           0.688
 91  6 11 16 51 14.9990000  0  5G18G11G19G16G 2
  20873205.628     1339871.615 7   1044053.03222        25.250           2.406
  23373675.722    -5083404.432 6  -3961087.29021        15.500           0.438
  20478748.870    -1432341.235 6  -1116111.54221        19.750           1.313
  23667491.628    -3172458.989 5  -2265824.16021        11.000           0.375
  23082302.855    -6680794.762 6  -5205807.72721        14.250           0.719
 91  6 11 16 51 29.9990000  0  6G18G11G19G16G 2G 6
  20876566.034     1357532.763 7   1057814.92922        25.750           2.375
  23366033.503    -5123580.179 6  -3992392.97221        15.250           0.469
  20476834.503    -1442394.366 6  -1123945.16521        19.750           1.344
  23660731.362    -3207999.088 5  -2293517.74421        10.250           0.438
  23071389.628    -6738161.400 6  -5250508.95921        14.750           0.656
  24283138.386          -0.43214                         6.750
 91  6 11 16 51 44.9990000  0  6G18G11G19G16G 2G 6
  20879943.784     1375289.813 7   1071651.56622        24.750           2.406
  23358407.745    -5163651.668 6  -4023617.42221        15.500           0.531
  20474931.714    -1452401.236 7  -1131742.74521        20.000           1.250
  23653983.800    -3243421.134 5  -2321119.33021        10.500           0.281
  23060475.644    -6795482.545 6  -5295174.74921        13.750           0.656
  24273882.644      -48654.571 4                         7.000
 91  6 11 16 51 59.9990000  0  6G18G11G19G16G 2G 6
  20883344.519     1393147.980 7   1085566.98122        25.250           2.438
  23350798.667    -5203613.483 6  -4054756.43521        14.500           0.500
  20473036.839    -1462356.780 7  -1139500.32821        20.000           1.250
  23647276.987    -3278719.885 5  -2348624.85321        11.250           0.344
  23049582.144    -6852752.989 6  -5339801.02821        14.500           0.656
  24264624.956      -97290.683 4                         7.250
 91  6 11 16 52 14.9990000  0  6G18G11G19G16G 2G 6
  20886757.839     1411101.935 7   1099557.03922        24.250           2.469
  23343215.511    -5243470.020 6  -4085813.39821        14.750           0.438
  20471152.237    -1472265.918 7  -1147221.75121        20.000           1.250
  23640579.026    -3313900.244 5  -2376038.11221        11.000           0.438
  23038693.308    -6909977.393 6  -5384391.43121        15.000           0.813
  24255368.675     -145913.541 4                         7.250
 91  6 11 16 52 29.9990000  0  6G18G11G19G16G 2G 6
  20890193.745     1429149.962 7   1113620.40622        24.500           2.438
  23335652.034    -5283222.516 6  -4116789.28421        15.000           0.500
  20469273.511    -1482130.073 7  -1154908.12521        20.500           1.313
  23633908.784    -3348963.423 5  -2403360.07521        11.500           0.438
  23027805.925    -6967157.372 6  -5428947.21921        14.000           0.688
  24246119.815     -194524.789 5                         7.500
 91  6 11 16 52 44.9990000  0  6G18G11G19G16G 2G 6
  20893647.878     1447301.705 7   1127764.58722        24.750           2.406
  23328107.448    -5322861.036 6  -4147676.36021        14.750           0.594
  20467407.878    -1491939.650 7  -1162551.97021        20.000           1.250
  23627258.495    -3383899.765 5  -2430583.21121        11.000           0.438
  23016941.230    -7024282.997 6  -5473460.65421        14.500           0.594
  24236873.448     -243114.780 5        -0.38431         7.500           0.125
 91  6 11 16 52 59.9990000  0  6G18G11G19G16G 2G 6
  20897123.237     1465555.049 7   1141987.93322        24.750           2.438
  23320586.003    -5362387.162 6  -4178475.86621        15.000           0.531
  20465553.987    -1501696.931 7  -1170155.06221        20.000           1.344
  23620635.448    -3418711.007 5  -2457708.85621        11.000           0.375
  23006077.972    -7081356.090 6  -5517933.17021        14.250           0.656
  24227635.987     -291685.527 5    -37847.68121         7.500           0.063
 91  6 11 16 53 14.9990000  0  6G18G11G19G16G 2G 6
  20900612.956     1483900.540 7   1156283.08822        24.250           2.469
  23313086.503    -5401809.913 6  -4209194.82621        15.500           0.563
  20463704.003    -1511411.145 7  -1177724.59721        20.000           1.250
  23614032.105    -3453406.259 5  -2484744.11821        11.250           0.375
  22995224.808    -7138385.768 6  -5562371.83321        15.000           0.719
  24218388.948     -340246.398 4    -75687.29021         7.000           0.156
 91  6 11 16 53 29.9990000  0  6G18G11G19G16G 2G 6
  20904120.433     1502338.486 7   1170650.27323        24.500           2.500
  23305602.792    -5441128.714 6  -4239832.79021        15.750           0.500
  20461865.870    -1521081.889 6  -1185260.25921        19.500           1.250
  23607450.026    -3487985.275 5  -2511688.80121        11.000           0.438
  22984385.206    -7195371.491 6  -5606776.26521        15.000           0.594
  24209148.394     -388797.200 4   -113519.03021         7.000           0.063
 91  6 11 16 53 44.9990000  0  6G18G11G19G16G 2G 6
  20907648.409     1520884.456 7   1185101.65122        23.500           2.438
  23298146.089    -5480327.296 6  -4270377.05521        16.250           0.594
  20460033.667    -1530693.409 7  -1192749.77521        20.000           1.281
  23600895.144    -3522432.151 5  -2538530.51121        10.500           0.500
  22973550.948    -7252297.323 6  -5651134.01721        15.250           0.688
  24199915.042     -437322.064 5   -151330.62621         7.500           0.250
 91  6 11 16 53 59.9990000  0  6G18G11G19G16G 2G 6
  20911198.050     1539534.425 7   1199634.06022        24.250           2.469
  23290706.128    -5519409.263 6  -4300830.50121        16.000           0.438
  20458215.823    -1540249.541 6  -1200196.12521        19.250           1.438
  23594367.667    -3556750.341 5  -2565271.96421        11.000           0.406
  22962729.737    -7309167.068 6  -5695448.08121        14.750           0.750
  24190685.964     -485824.813 5   -189124.93721         7.750           0.094
 91  6 11 16 54 14.9990000  0  6G18G11G19G16G 2G 6
  20914769.245     1558293.741 7   1214251.66922        24.750           2.406
  23283293.487    -5558369.108 6  -4331188.76721        16.750           0.594
  20456408.315    -1549744.999 6  -1207595.20021        19.500           1.250
  23587861.480    -3590934.181 5  -2591908.75321        11.500           0.375
  22951917.956    -7365975.277 6  -5739714.17921        14.500           0.656
  24181459.683     -534300.227 5   -226898.02121         7.500           0.219
 91  6 11 16 54 29.9990000  0  6G18G11G19G16G 2G 6
  20918357.050     1577145.653 7   1228941.43823        24.500           2.500
  23275898.761    -5597223.159 6  -4361464.59321        16.000           0.406
  20454608.948    -1559196.457 6  -1214959.98621        19.250           1.281
  23581379.190    -3625000.233 5  -2618453.70521        11.500           0.469
  22941117.667    -7422738.411 6  -5783945.17221        15.750           0.844
  24172243.753     -582765.200 4   -264662.89621         7.250           0.125
 91  6 11 16 54 44.9990000  0  6G18G11G19G16G 2G 6
  20921962.417     1596093.121 7   1243705.66123        24.250           2.500
  23268524.480    -5635967.556 6  -4391654.98321        16.500           0.656
  20452819.128    -1568600.500 6  -1222287.82521        19.500           1.313
  23574917.737    -3658945.486 5  -2644904.55421        11.000           0.375
  22930322.464    -7479452.822 6  -5828138.18621        15.500           0.813
  24163017.730     -631216.061 4   -302416.78021         7.250           0.094
 91  6 11 16 54 59.9990000  0  6G18G11G19G16G 2G 6
  20925589.105     1615142.090 7   1258548.96822        25.000           2.469
  23261173.386    -5674596.148 6  -4421755.12921        16.000           0.406
  20451039.425    -1577951.269 6  -1229574.15421        19.750           1.313
  23568483.003    -3692763.699 5  -2671256.42021        10.750           0.344
  22919541.019    -7536112.565 6  -5872288.60521        15.250           0.781
  24153796.245     -679647.127 4   -340155.29621         6.750           0.313
 91  6 11 16 55 14.9990000  0  6G18G11G19G16G 2G 6
  20929229.980     1634289.264 7   1273468.81323        24.250           2.531
  23253846.792    -5713111.715 6  -4451767.21221        16.250           0.531
  20449270.237    -1587251.858 6  -1236821.38221        19.750           1.344
  23562066.589    -3726457.795 5  -2697511.56621        10.750           0.406
  22908767.440    -7592720.587 6  -5916398.73321        15.750           0.844
  24144591.901     -728061.514 5   -377880.73921         7.500           0.156
 91  6 11 16 55 29.9990000  0  6G18G11G19G16G 2G 6
  20932894.230     1653542.553 7   1288471.34022        24.500           2.406
  23246540.597    -5751505.834 6  -4481684.66021        16.250           0.531
  20447511.690    -1596494.346 6  -1244023.33921        19.000           1.344
  23555689.198    -3760019.440 5  -2723663.50421        11.000           0.469
  22898010.425    -7649268.638 6  -5960462.13021        16.000           0.844
  24135389.292     -776451.134 5   -415586.88121         7.500           0.281
 91  6 11 16 55 44.9990000  0  6G18G11G19G16G 2G 6
  20936577.800     1672897.202 7   1303552.84322        24.500           2.438
  23239254.948    -5789783.040 6  -4511511.00021        15.000           0.500
  20445764.675    -1605683.328 6  -1251183.60421        19.750           1.344
  23549324.339    -3793453.272 5  -2749715.84421        11.000           0.406
  22887258.972    -7705761.374 6  -6004482.41221        16.250           0.844
  24126175.761     -824820.855 5   -453277.50721         7.750           0.094
 91  6 11 16 55 59.9990000  0  6G18G11G19G16G 2G 6
  20940281.940     1692353.946 7   1318713.91022        25.000           2.469
  23231993.378    -5827942.122 6  -4541245.28921        15.500           0.500
  20444023.589    -1614817.970 6  -1258301.52321        19.750           1.375
  23542981.362    -3826758.404 5  -2775667.89921        10.750           0.406
  22876516.362    -7762197.676 6  -6048458.74321        15.500           0.875
  24116980.394     -873169.835 5   -490952.02521         8.000           0.125
 91  6 11 16 56 14.9990000  0  6G18G11G19G16G 2G 6
  20944000.526     1711908.903 7   1333951.50222        24.500           2.406
  23224751.355    -5865986.123 6  -4570889.92821        15.250           0.531
  20442297.276    -1623901.808 7  -1265379.85121        20.000           1.281
  23536675.433    -3859937.761 5  -2801521.95321        11.000           0.344
  22865787.706    -7818581.080 6  -6092393.83521        16.000           0.844
  24107777.894     -921501.565 5   -528613.09321         7.500           0.156
 91  6 11 16 56 29.9990000  0  6G18G11G19G16G 2G 6
  20947739.190     1731558.874 7   1349263.13022        23.750           2.219
  23217536.120    -5903918.151 6  -4600447.30821        15.500           0.531
  20440576.276    -1632938.244 7  -1272421.25621        20.250           1.406
  23530381.112    -3892994.668 5  -2827280.57321        11.250           0.344
  22855069.362    -7874914.749 6  -6136290.16421        16.000           0.938
  24098589.011     -969819.373 5   -566263.28221         7.750           0.125
 91  6 11 16 56 44.9990000  0  6G18G11G19G16G 2G 6
  20951501.925     1751315.969 7   1364658.23322        25.000           2.313
  23210342.690    -5941725.686 6  -4629907.69321        16.500           0.594
  20438868.097    -1641915.078 6  -1279416.20421        19.000           1.375
  23524115.487    -3925916.802 5  -2852934.19421        11.250           0.344
  22844358.089    -7931186.192 6  -6180138.02421        16.000           1.000
  24089396.394    -1018110.979 5   -603893.09621         7.500           0.219
 91  6 11 16 56 59.9990000  0  6G18G11G19G16G 2G 6
  20955278.675     1771171.333 7   1380129.90122        25.000           2.250
  23203168.050    -5979416.986 6  -4659277.50521        15.250           0.531
  20437169.112    -1650840.736 6  -1286371.28421        19.500           1.406
  23517871.761    -3958712.847 5  -2878489.55421        11.000           0.469
  22833663.409    -7987403.787 6  -6223943.91321        16.250           0.969
  24080203.706    -1066385.162 4   -641509.32621         7.000           0.219
 91  6 11 16 57 14.9990000  0  6G18G11G19G16G 2G 6
  20959079.386     1791132.476 7   1395684.01322        25.000           2.313
  23196019.401    -6016984.013 6  -4688550.47221        15.250           0.563
  20435483.026    -1659707.637 6  -1293280.56421        19.500           1.469
  23511656.917    -3991374.674 5  -2903940.31721        11.000           0.438
  22822978.940    -8043559.632 6  -6267701.67921        16.500           1.031
  24071037.003    -1114634.230 5   -679105.97821         7.500           0.063
 91  6 11 16 57 29.9990000  0  6G18G11G19G16G 2G 6
  20962895.878     1811192.023 7   1411314.78622        25.500           2.313
  23188893.917    -6054434.031 6  -4717732.26121        15.250           0.469
  20433803.503    -1668523.465 6  -1300150.04921        18.750           1.438
  23505465.526    -4023910.029 5  -2929292.54921        11.500           0.406
  22812306.198    -8099661.254 6  -6311417.19721        17.000           0.844
  24061844.472    -1162865.782 4   -716688.93021         6.500           0.250
 91  6 11 16 57 44.9990000  0  6G18G11G19G16G 2G 6
  20966729.714     1831346.971 7   1427019.90322        24.500           2.250
  23181790.339    -6091769.188 6  -4746824.56621        15.750           0.563
  20432134.511    -1677290.656 6  -1306981.64321        19.000           1.469
  23499300.292    -4056320.762 5  -2954547.67621        11.250           0.375
  22801638.097    -8155711.135 6  -6355092.39521        17.250           0.875
  24052671.581    -1211082.293 5   -754260.21121         7.750           0.156
 91  6 11 16 57 59.9990000  0  6G18G11G19G16G 2G 6
  20970582.784     1851597.123 7   1442799.20622        24.000           2.250
  23174703.956    -6128989.336 6  -4775827.22221        15.500           0.625
  20430477.448    -1686009.135 6  -1313775.27721        19.500           1.438
  23493157.058    -4088607.353 5  -2979706.05121        11.250           0.406
  22790979.495    -8211709.106 6  -6398727.15421        17.000           0.906
  24043506.081    -1259283.903 5   -791819.85121         7.750           0.188
 91  6 11 16 58 14.9990000  0  6G18G11G19G16G 2G 6
  20974453.214     1871946.467 7   1458655.79822        23.750           2.156
  23167645.198    -6166090.262 6  -4804736.98921        16.000           0.563
  20428831.050    -1694675.025 6  -1320527.93022        19.750           1.625
  23487038.675    -4120765.621 5  -3004764.45521        11.750           0.438
  22780337.089    -8267651.148 6  -6442318.31221        16.750           0.938
  24034333.362    -1307466.746 4   -829364.93521         6.750           0.219
 91  6 11 16 58 29.9990000  0  6G18G11G19G16G 2G 6
  20978346.081     1892389.762 7   1474585.60022        24.500           2.250
  23160607.464    -6203076.638 6  -4833557.51621        15.500           0.594
  20427190.284    -1703293.510 7  -1327243.65122        20.250           1.531
  23480943.503    -4152800.287 5  -3029726.55321        11.750           0.406
  22769705.605    -8323542.115 6  -6485869.68421        17.250           0.906
  24025151.769    -1355635.906 4   -866899.31421         6.250           0.156
 91  6 11 16 58 44.9990000  0  6G18G11G19G16G 2G 6
  20982254.675     1912930.726 7   1490591.50722        24.500           2.188
  23153589.128    -6239944.418 6  -4862285.61721        15.500           0.625
  20425561.472    -1711860.863 7  -1333919.52422        20.000           1.563
  23474866.956    -4184707.488 5  -3054589.32321        11.250           0.344
  22759075.706    -8379377.898 6  -6529378.06421        16.750           0.906
  24016012.284    -1403787.538 5   -904420.02821         8.250           0.094
 91  6 11 16 58 59.9990000  0  6G18G11G19G16G 2G 6
  20986183.667     1933571.728 7   1506675.36022        24.500           2.188
  23146599.683    -6276690.723 6  -4890919.07521        16.000           0.563
  20423938.394    -1720374.564 7  -1340553.59322        20.250           1.563
  23468820.386    -4216485.007 5  -3079351.01221        11.000           0.469
  22748459.589    -8435155.915 6  -6572841.41021        17.000           0.938
  24006852.737    -1451919.314 5   -941925.31021         7.750           0.094
 91  6 11 16 59 14.9990000  0  6G18G11G19G16G 2G 6
  20990132.003     1954317.605 7   1522840.93922        25.000           2.094
  23139630.480    -6313310.027 6  -4919453.56321        16.250           0.688
  20422329.659    -1728829.361 6  -1347141.76421        19.500           1.375
  23462797.417    -4248127.096 5  -3104007.20721        10.750           0.313
  22737858.355    -8490870.626 6  -6616255.44621        16.500           0.844
  23997685.581    -1500025.778 4   -979410.84621         7.000           0.188
 91  6 11 16 59 29.9990000  0  6G18G11G19G16G 2G 6
  20994097.940     1975166.017 7   1539086.41322        24.500           2.156
  23132689.690    -6349804.464 6  -4947890.73921        16.500           0.531
  20420732.636    -1737227.422 7  -1353685.72421        20.000           1.406
  23456800.214    -4279635.726 5  -3128559.39021        10.500           0.406
  22727267.995    -8546524.406 6  -6659621.99721        16.750           0.969
  23988537.925    -1548109.529 5  -1016878.62921         7.500           0.250
 91  6 11 16 59 44.9990000  0  6G18G11G19G16G 2G 6
  20998083.331     1996110.043 7   1555406.39822        24.500           2.125
  23125763.745    -6386180.640 6  -4976235.78221        15.750           0.719
  20419143.409    -1745575.548 6  -1360190.77121        19.000           1.406
  23450831.144    -4311017.852 5  -3153012.98121        11.250           0.469
  22716688.769    -8602124.082 6  -6702946.37621        17.000           0.906
  23979383.745    -1596177.462 5  -1054334.17121         8.000           0.219
 91  6 11 16 59 59.9990000  0  6G18G11G19G16G 2G 6
  21002088.347     2017150.717 7   1571801.69122        25.000           2.156
  23118863.433    -6422436.929 6  -5004487.40621        15.500           0.594
  20417562.198    -1753872.749 6  -1366656.13421        19.000           1.406
  23444887.605    -4342272.149 5  -3177366.99421        11.500           0.406
  22706116.112    -8657668.283 6  -6746227.54021        16.500           0.906
  23970246.378    -1644228.426 5  -1091776.47021         8.000           0.281
 91  6 11 17  0 14.9990000  0  6G18G11G19G16G 2G 6
  21006109.331     2038285.362 7   1588270.20522        24.750           2.219
  23111987.472    -6458575.698 6  -5032647.45121        16.250           0.625
  20415995.511    -1762121.710 6  -1373083.91521        19.250           1.438
  23438960.050    -4373400.903 5  -3201623.15921        10.750           0.438
  22695555.925    -8713159.424 6  -6789467.35521        16.750           0.781
  23961109.581    -1692264.971 5  -1129207.50121         7.750           0.156
 91  6 11 17  0 29.9990000  0  6G18G11G19G16G 2G 6
  21010150.714     2059517.191 7   1604814.44622        25.000           2.219
  23105133.440    -6494593.143 6  -5060712.97221        16.250           0.594
  20414434.386    -1770318.935 6  -1379471.37921        19.250           1.438
  23433065.323    -4404400.588 5  -3225778.76421        11.250           0.469
  22685005.855    -8768593.923 6  -6832663.04121        16.750           0.875
  23951974.987    -1740283.674 5  -1166624.65521         8.500           0.156
 91  6 11 17  0 44.9990000  0  6G18G11G19G16G 2G 6
  21014208.745     2080849.516 7   1621436.99922        25.000           2.219
  23098302.573    -6530485.423 6  -5088680.94521        16.000           0.500
  20412884.761    -1778460.839 6  -1385815.73621        18.750           1.406
  23427187.331    -4435268.006 5  -3249831.28921        11.250           0.344
  22674469.144    -8823968.102 6  -6875811.70521        16.750           0.750
  23942838.331    -1788280.947 5  -1204025.09021         8.000           0.156
 91  6 11 17  0 59.9990000  0  6G18G11G19G16G 2G 6
  21018289.644     2102282.836 7   1638138.24822        25.250           2.156
  23091495.776    -6566251.519 6  -5116550.59721        16.500           0.625
  20411346.690    -1786546.527 7  -1392116.28922        20.000           1.500
  23421341.511    -4466002.180 5  -3273780.00121        11.500           0.438
  22663942.026    -8879281.036 6  -6918912.66621        16.500           0.813
  23933711.964    -1836256.141 5  -1241408.33721         8.250           0.219
 91  6 11 17  1 14.9990000  0  6G18G11G19G16G 2G 6
  21022387.901     2123816.414 7   1654917.62522        25.250           2.250
  23084714.159    -6601891.928 6  -5144322.31621        16.000           0.625
  20409818.558    -1794576.929 6  -1398373.76322        19.250           1.500
  23415510.714    -4496603.612 5  -3297625.27721        10.750           0.344
  22653430.808    -8934533.341 6  -6961966.36621        16.750           0.781
  23924591.409    -1884210.033 5  -1278774.97421         8.500           0.188
 91  6 11 17  1 29.9990000  0  6G18G11G19G16G 2G 6
  21026502.347     2145446.358 7   1671772.08522        25.250           2.094
  23077956.394    -6637410.092 6  -5171998.79321        15.250           0.625
  20408299.120    -1802555.807 6  -1404591.08521        19.250           1.469
  23409721.519    -4527075.789 5  -3321369.83421        11.750           0.375
  22642925.323    -8989728.647 6  -7004975.66921        17.000           0.844
  23915459.878    -1932146.476 5  -1316127.97221         8.750           0.219
 91  6 11 17  1 44.9990000  0  6G18G11G19G16G 2G 6
  21030635.940     2167176.863 7   1688704.90022        24.750           2.125
  23071223.808    -6672801.401 6  -5199576.38821        16.000           0.500
  20406794.058    -1810478.698 6  -1410764.78422        19.500           1.500
  23403944.308    -4557414.442 5  -3345010.35621        11.500           0.469
  22632437.050    -9044862.447 6  -7047937.02621        17.750           0.750
  23906344.847    -1980061.203 5  -1353464.11021         8.750           0.250
 91  6 11 17  1 59.9990000  0  6G18G11G19G16G 2G 6
  21034790.698     2189003.799 7   1705712.86222        25.000           2.125
  23064511.987    -6708069.523 6  -5227058.02321        15.500           0.500
  20405292.714    -1818349.635 6  -1416897.99922        19.250           1.500
  23398201.769    -4587623.078 5  -3368549.55521        11.750           0.469
  22621956.558    -9099938.422 6  -7090853.33521        17.750           0.906
  23897227.464    -2027958.016 5  -1390786.27721         7.750           0.156
 91  6 11 17  2 14.9990000  0  6G18G11G19G16G 2G 6
  21038961.011     2210924.006 7   1722793.50322        24.750           2.125
  23057821.261    -6743217.142 6  -5254445.74721        15.750           0.656
  20403809.081    -1826171.544 6  -1422993.00222        19.750           1.563
  23392468.745    -4617704.580 5  -3391989.69821        11.250           0.344
  22611482.886    -9154959.492 6  -7133726.85921        17.500           0.938
  23888120.815    -2075840.033 5  -1428096.90421         8.000           0.188
 91  6 11 17  2 29.9990000  0  6G18G11G19G16G 2G 6
  21043152.644     2232936.128 7   1739945.76222        25.750           2.094
  23051154.831    -6778245.263 6  -5281740.36521        15.750           0.594
  20402325.581    -1833945.677 6  -1429050.78922        18.750           1.531
  23386777.315    -4647660.317 6  -3415331.83321        12.000           0.375
  22601027.409    -9209926.805 6  -7176558.48621        17.750           0.719
  23879011.073    -2123708.511 5  -1465396.99221         8.250           0.156
 91  6 11 17  2 44.9990000  0  6G18G11G19G16G 2G 6
  21047360.995     2255045.129 7   1757173.51522        26.250           2.250
  23044511.206    -6813148.567 6  -5308937.71721        15.500           0.594
  20400858.456    -1841667.029 6  -1435067.44822        18.500           1.531
  23381098.870    -4677485.354 5  -3438572.11021        11.750           0.406
  22590579.065    -9264835.166 6  -7219344.18421        18.000           0.875
  23869906.784    -2171558.476 5  -1502682.65021         8.750           0.156
 91  6 11 17  2 59.9990000  0  6G18G11G19G16G 2G 6
  21051584.339     2277251.616 7   1774477.22922        25.750           2.375
  23037897.730    -6847925.893 6  -5336036.92921        15.500           0.656
  20399396.995    -1849334.757 6  -1441042.31621        18.750           1.375
  23375445.855    -4707178.367 5  -3461709.53621        11.500           0.406
  22580141.565    -9319683.757 6  -7262083.31421        18.000           0.906
  23860798.956    -2219389.151 5  -1539953.30921         8.250           0.125
 91  6 11 17  3 14.9990000  0  6G18G11G19G16G 2G 6
  21055830.214     2299561.067 7   1791861.17822        25.500           2.188
  23031304.026    -6882571.135 6  -5363033.19521        15.750           0.750
  20397952.081    -1856943.204 6  -1446970.99122        18.750           1.500
  23369825.261    -4736733.684 6  -3484739.65121        12.000           0.344
  22569715.644    -9374466.647 6  -7304771.23121        18.000           0.813
  23851700.409    -2267194.937 5  -1577204.52421         7.750           0.188
 91  6 11 17  3 29.9990000  0  6G18G11G19G16G 2G 6
  21060090.073     2321966.128 7   1809319.62022        24.750           2.125
  23024734.870    -6917091.451 6  -5389932.12021        15.500           0.719
  20396513.526    -1864499.671 6  -1452859.16621        19.000           1.469
  23364224.940    -4766158.570 6  -3507668.14721        12.000           0.469
  22559301.370    -9429190.948 6  -7347413.50721        18.500           0.813
  23842612.190    -2314982.986 5  -1614441.96721         8.250           0.063
 91  6 11 17  3 44.9990000  0  6G18G11G19G16G 2G 6
  21064374.823     2344470.255 7   1826855.25722        25.000           2.094
  23018189.628    -6951482.794 6  -5416730.54521        16.250           0.656
  20395086.769    -1872000.400 6  -1458703.90521        18.750           1.344
  23358648.386    -4795449.131 5  -3530491.96721        11.250           0.438
  22548900.644    -9483852.814 6  -7390007.13021        18.000           0.938
  23833517.534    -2362749.600 5  -1651662.66621         8.250           0.219
 91  6 11 17  3 59.9990000  0  6G18G11G19G16G 2G 6
  21068676.105     2367072.670 7   1844467.48422        25.750           2.125
  23011670.784    -6985745.527 6  -5443428.77121        16.000           0.688
  20393665.433    -1879446.137 6  -1464505.79421        18.250           1.406
  23353102.480    -4824605.846 5  -3553211.49121        11.750           0.406
  22538508.972    -9538452.660 6  -7432552.41721        18.250           1.000
  23824436.190    -2410495.630 5  -1688867.37321         8.500           0.125
 91  6 11 17  4 14.9990000  0  6G18G11G19G16G 2G 6
  21072996.909     2389769.412 7   1862153.22122        25.250           2.031
  23005174.542    -7019883.188 6  -5470029.53421        16.000           0.594
  20392260.495    -1886840.675 6  -1470267.78921        18.500           1.313
  23347578.472    -4853632.335 6  -3575829.54621        12.000           0.438
  22528128.753    -9592994.143 6  -7475052.22821        18.250           0.938
  23815347.573    -2458224.769 5  -1726058.86421         7.500           0.156
 91  6 11 17  4 29.9990000  0  6G18G11G19G16G 2G 6
  21077332.776     2412562.949 7   1879914.37322        24.750           2.094
  22998704.097    -7053893.008 6  -5496530.69221        16.500           0.656
  20390863.995    -1894181.575 6  -1475987.98921        19.000           1.344
  23342075.425    -4882525.994 5  -3598344.09221        11.750           0.469
  22517760.058    -9647474.562 6  -7517504.46321        17.750           1.000
  23806273.011    -2505934.567 5  -1763235.27921         7.500           0.063
 91  6 11 17  4 44.9990000  0  6G18G11G19G16G 2G 6
  21081686.589     2435449.932 7   1897748.34422        24.500           2.156
  22992253.855    -7087777.901 6  -5522934.49121        16.000           0.781
  20389479.690    -1901471.871 6  -1481668.76221        19.000           1.375
  23336603.456    -4911290.075 6  -3620757.67221        12.000           0.375
  22507407.456    -9701896.961 6  -7559911.48221        18.250           0.844
  23797194.894    -2553628.252 5  -1800399.17821         8.000           0.094
 91  6 11 17  4 59.9990000  0  6G18G11G19G16G 2G 6
  21086059.925     2458426.755 7   1915652.31622        25.000           2.094
  22985828.331    -7121540.840 6  -5549243.25921        16.250           0.844
  20388095.839    -1908714.758 6  -1487312.58321        19.000           1.375
  23331154.565    -4939927.782 5  -3643072.76421        11.750           0.406
  22497058.800    -9756264.851 6  -7602276.01521        18.000           1.000
  23788119.026    -2601309.127 5  -1837553.08721         7.750           0.219
 91  6 11 17  5 14.9990000  0  6G18G11G19G16G 2G 6
  21090451.511     2481498.755 7   1933630.45222        24.750           2.094
  22979428.714    -7155176.014 6  -5575452.46221        16.500           0.688
  20386729.214    -1915904.834 6  -1492915.25821        19.000           1.438
  23325734.308    -4968433.130 5  -3665284.73621        11.750           0.469
  22486727.565    -9810572.437 6  -7644593.57321        18.500           1.000
  23779047.737    -2648971.650 5  -1874692.63921         8.000           0.250
 91  6 11 17  5 29.9990000  0  6G18G11G19G16G 2G 6
  21094859.151     2504664.829 7   1951681.89222        24.500           1.906
  22973050.909    -7188684.249 6  -5601562.78121        16.000           0.688
  20385371.464    -1923043.205 6  -1498477.64521        18.750           1.406
  23320329.519    -4996807.169 6  -3687394.39121        12.000           0.438
  22476399.276    -9864820.466 6  -7686864.71621        18.000           1.000
  23769985.886    -2696616.920 5  -1911818.82621         8.250           0.156
 91  6 11 17  5 44.9990000  0  6G18G11G19G16G 2G 6
  21099286.097     2527929.432 7   1969810.10522        24.000           2.000
  22966701.386    -7222060.776 6  -5627570.47021        16.500           0.719
  20384025.112    -1930125.427 6  -1503996.27321        19.000           1.375
  23314962.784    -5025045.331 6  -3709398.15121        12.750           0.469
  22466091.519    -9919004.198 6  -7729085.76121        18.000           0.969
  23760928.362    -2744240.464 5  -1948928.01421         8.250           0.188
 91  6 11 17  5 59.9990000  0  6G18G11G19G16G 2G 6
  21103733.597     2551293.123 7   1988015.54022        24.750           1.969
  22960376.292    -7255304.486 6  -5653474.63721        16.000           0.719
  20382691.362    -1937150.462 6  -1509470.34921        18.750           1.344
  23309610.214    -5053147.052 6  -3731295.60621        12.000           0.438
  22455791.511    -9973122.822 6  -7771256.07821        18.250           1.000
  23751863.167    -2791841.490 5  -1986019.73021         7.750           0.188
 91  6 11 17  6 14.9990000  0  6G18G11G19G16G 2G 6
  21108198.581     2574756.340 7   2006298.52322        24.750           2.031
  22954074.347    -7288414.751 6  -5679274.82621        16.000           0.625
  20381363.636    -1944117.900 6  -1514899.53921        18.750           1.344
  23304286.097    -5081111.579 5  -3753086.15921        11.750           0.406
  22445507.558   -10027175.826 6  -7813375.25321        18.750           1.000
  23742816.925    -2839419.681 5  -2023093.62521         7.750           0.219
 91  6 11 17  6 29.9990000  0  6G18G11G19G16G 2G 6
  21112679.823     2598317.596 7   2024657.89522        24.250           2.063
  22947797.511    -7321392.450 6  -5704971.73221        16.000           0.656
  20380047.612    -1951029.091 6  -1520284.90021        18.500           1.469
  23298991.987    -5108940.188 6  -3774770.81021        12.000           0.281
  22435231.940   -10081164.392 6  -7855444.22321        18.500           0.938
  23733765.409    -2886976.304 5  -2060150.69521         8.250           0.250
 91  6 11 17  6 44.9990000  0  6G18G11G19G16G 2G 6
  21117181.628     2621969.698 7   2043088.05222        24.000           1.938
  22941545.401    -7354244.136 6  -5730570.43721        15.250           0.781
  20378740.675    -1957890.914 6  -1525631.79721        18.500           1.313
  23293720.401    -5136639.469 6  -3796354.65921        12.500           0.469
  22424973.269   -10135095.157 6  -7897468.14821        19.000           0.875
  23724717.597    -2934518.128 5  -2097196.27721         8.500           0.250
 91  6 11 17  6 59.9990000  0  6G18G11G19G16G 2G 6
  21121700.245     2645720.087 7   2061594.81122        23.750           1.875
  22935318.519    -7386962.098 6  -5756064.93921        15.500           0.719
  20377445.464    -1964695.766 6  -1530934.29421        18.250           1.344
  23288480.698    -5164201.752 6  -3817831.77021        12.500           0.500
  22414721.222   -10188960.392 6  -7939441.01521        19.000           1.000
  23715673.370    -2982037.750 5  -2134224.50721         8.500           0.219
 91  6 11 17  7 14.9990000  0  6G18G11G19G16G 2G 6
  21126241.167     2669561.641 7   2080172.59522        25.250           1.938
  22929118.526    -7419552.945 6  -5781460.38221        15.500           0.750
  20376160.003    -1971450.607 6  -1536197.82921        18.000           1.281
  23283258.667    -5191634.041 5  -3839207.58421        11.750           0.438
  22404480.589   -10242766.889 6  -7981368.10221        18.250           0.875
  23706631.534    -3029542.100 5  -2171240.85021         8.500           0.281
 91  6 11 17  7 29.9990000  0  6G18G11G19G16G 2G 6
  21130791.190     2693494.809 7   2098821.77122        24.000           1.875
  22922941.823    -7452015.906 6  -5806756.18421        16.500           0.813
  20374883.401    -1978154.760 6  -1541421.86521        18.500           1.406
  23278055.737    -5218935.654 5  -3860481.57121        11.500           0.406
  22394253.480   -10296513.925 6  -8023248.87221        18.500           0.969
  23697593.964    -3077030.713 5  -2208244.96521         8.250           0.281
 91  6 11 17  7 44.9990000  0  6G18G11G19G16G 2G 6
  21135366.065     2717521.643 7   2117543.93222        24.750           1.844
  22916789.956    -7484348.526 6  -5831950.42821        16.250           0.781
  20373620.558    -1984805.907 6  -1546604.59821        18.250           1.344
  23272889.901    -5246104.271 6  -3881651.93021        12.500           0.313
  22384035.745   -10350199.288 6  -8065081.57621        18.500           0.938
  23688567.823    -3124501.350 5  -2245235.03321         8.000           0.313
 91  6 11 17  7 59.9990000  0  6G18G11G19G16G 2G 6
  21139953.737     2741639.688 7   2136337.16822        24.000           1.844
  22910660.144    -7516552.766 6  -5857044.62221        16.000           0.781
  20372362.526    -1991406.395 6  -1551747.85421        17.250           1.313
  23267744.058    -5273141.914 6  -3902720.25121        12.500           0.406
  22373834.628   -10403825.137 6  -8106867.91221        19.000           0.969
  23679529.097    -3171956.338 5  -2282212.91921         8.000           0.219
 91  6 11 17  8 14.9990000  0  6G18G11G19G16G 2G 6
  21144562.386     2765855.539 7   2155206.62022        24.250           1.750
  22904561.362    -7548621.448 6  -5882033.19621        16.250           0.781
  20371119.167    -1997949.371 6  -1556846.30221        18.500           1.281
  23262629.401    -5300041.834 6  -3923681.22921        12.500           0.406
  22363644.394   -10457384.238 6  -8148602.23421        18.750           0.938
  23670508.433    -3219388.762 5  -2319173.21021         8.500           0.219
 91  6 11 17  8 29.9990000  0  6G18G11G19G16G 2G 6
  21149185.558     2790154.330 7   2174140.69722        24.250           1.750
  22898479.651    -7580569.344 6  -5906927.65021        15.750           0.750
  20369880.386    -2004449.799 6  -1561911.59321        18.500           1.406
  23257533.855    -5326818.970 6  -3944546.54121        12.750           0.344
  22353458.026   -10510891.573 6  -8190296.22321        18.250           0.906
  23661486.276    -3266813.521 5  -2356127.55821         8.250           0.250
 91  6 11 17  8 44.9990000  0  6G18G11G19G16G 2G 6
  21153832.003     2814551.706 7   2193151.58222        24.750           1.844
  22892425.558    -7612380.241 6  -5931715.35521        16.250           0.844
  20368657.519    -2010891.738 6  -1566931.31221        18.250           1.313
  23252461.472    -5353457.298 6  -3965303.70021        12.250           0.406
  22343290.308   -10564331.076 6  -8231937.36121        18.750           1.031
  23652457.644    -3314214.846 5  -2393063.62421         7.750           0.344
 91  6 11 17  8 59.9990000  0  6G18G11G19G16G 2G 6
  21158489.589     2839047.895 7   2212239.47322        23.750           1.781
  22886399.214    -7644053.431 6  -5956395.75521        16.250           0.844
  20367440.886    -2017274.842 6  -1571905.18521        19.000           1.406
  23247417.620    -5379955.848 6  -3985951.93721        12.250           0.438
  22333135.050   -10617702.141 6  -8273525.16321        18.750           1.000
  23643441.417    -3361592.348 5  -2429981.12721         8.000           0.250
 91  6 11 17  9 14.9990000  0  6G18G11G19G16G 2G 6
  21163172.776     2863644.236 7   2231405.40122        24.000           1.781
  22880398.800    -7675587.191 6  -5980967.51121        16.500           0.781
  20366237.386    -2023597.690 6  -1576832.10621        18.000           1.375
  23242402.245    -5406313.513 6  -4006490.39021        12.000           0.406
  22322995.401   -10671003.112 6  -8315058.34621        19.500           1.000
  23634434.792    -3408944.529 5  -2466878.91021         8.750           0.281
 91  6 11 17  9 29.9990000  0  6G18G11G19G16G 2G 6
  21167869.065     2888329.988 7   2250640.99822        24.000           1.844
  22874423.230    -7706991.749 6  -6005438.60421        16.500           0.750
  20365043.401    -2029870.604 6  -1581720.11721        18.500           1.344
  23237409.737    -5432540.865 5  -4026927.29421        11.750           0.375
  22312856.042   -10724244.475 6  -8356545.08521        18.000           1.063
  23625428.144    -3456281.822 5  -2503765.08121         8.250           0.313
 91  6 11 17  9 44.9990000  0  6G18G11G19G16G 2G 6
  21172582.589     2913105.304 7   2269946.39422        24.250           1.781
  22868466.112    -7738266.916 6  -6029808.84621        15.250           0.844
  20363860.769    -2036093.669 6  -1586569.28221        18.000           1.375
  23232447.761    -5458637.522 6  -4047262.37821        12.000           0.313
  22302742.245   -10777426.095 6  -8397985.26421        19.000           1.031
  23616416.089    -3503604.404 5  -2540639.80721         7.750           0.188
 91  6 11 17  9 59.9990000  0  6G18G11G19G16G 2G 6
  21177320.050     2937978.018 7   2289327.68122        25.000           1.781
  22862544.714    -7769404.034 6  -6054071.53021        16.250           0.844
  20362688.058    -2042258.379 6  -1591372.97021        17.250           1.438
  23227507.495    -5484595.019 6  -4067488.99421        12.000           0.406
  22292628.933   -10830539.368 6  -8439372.18021        18.750           0.969
  23607422.105    -3550903.859 5  -2577496.49421         8.000           0.313
 91  6 11 17 10 14.9990000  0  6G18G11G19G16G 2G 6
  21182067.659     2962946.591 7   2308783.66222        24.500           1.781
  22856644.550    -7800404.127 6  -6078227.43421        15.750           0.813
  20361522.761    -2048366.062 6  -1596132.22721        17.500           1.438
  23222594.136    -5510414.477 6  -4087608.06521        12.250           0.344
  22282535.800   -10883585.389 6  -8480706.71321        19.000           1.063
  23598425.753    -3598181.456 5  -2614336.13921         8.000           0.281
 91  6 11 17 10 29.9990000  0  6G18G11G19G16G 2G 6
  21186839.362     2988006.605 7   2328310.90222        25.000           1.844
  22850773.058    -7831271.316 6  -6102279.78421        15.750           0.813
  20360372.120    -2054421.163 6  -1600850.51222        17.000           1.500
  23217710.940    -5536100.110 6  -4107622.85621        12.500           0.406
  22272455.573   -10936568.393 6  -8521992.13121        19.000           1.063
  23589433.370    -3645441.682 5  -2651162.25821         8.250           0.344
 91  6 11 17 10 44.9990000  0  6G18G11G19G16G 2G 6
  21191622.276     3013155.185 7   2347907.14822        23.750           1.813
  22844922.558    -7862008.413 6  -6126230.76121        16.250           0.969
  20359228.276    -2060426.709 6  -1605530.18321        17.500           1.406
  23212842.815    -5561655.105 6  -4127535.83821        12.000           0.438
  22262385.198   -10989491.337 6  -8563230.75021        19.500           1.094
  23580442.503    -3692687.477 5  -2687977.14221         9.250           0.281
 91  6 11 17 10 59.9990000  0  6G18G11G19G16G 2G 6
  21196426.683     3038394.789 7   2367574.32222        24.500           1.875
  22839099.175    -7892612.195 6  -6150077.85721        15.250           0.969
  20358097.808    -2066379.762 6  -1610168.94821        17.750           1.438
  23208010.417    -5587076.525 6  -4147344.74221        12.250           0.406
  22252326.933   -11042351.211 6  -8604420.23221        19.000           1.000
  23571459.050    -3739916.062 5  -2724778.62221         8.750           0.313
 91  6 11 17 11 14.9990000  0  6G18G11G19G16G 2G 6
  21201247.761     3063726.840 7   2387313.52722        24.250           1.906
  22833301.222    -7923080.949 6  -6173819.73021        16.000           0.938
  20356973.495    -2072278.598 6  -1614765.46521        17.250           1.406
  23203194.995    -5612362.764 6  -4167048.32721        12.250           0.375
  22242279.714   -11095146.283 6  -8645559.21421        19.500           1.188
  23562464.917    -3787125.932 5  -2761565.50121         8.250           0.313
 91  6 11 17 11 29.9990000  0  6G18G11G19G16G 2G 6
  21206083.355     3089146.594 7   2407121.07722        23.750           1.875
  22827529.261    -7953418.879 6  -6197459.65821        16.750           0.813
  20355858.151    -2078127.750 6  -1619323.27222        17.500           1.500
  23198412.534    -5637518.166 6  -4186649.94121        12.000           0.406
  22232243.230   -11147880.942 6  -8686651.12021        19.250           1.031
  23553492.511    -3834321.522 5  -2798341.25121         8.000           0.188
 91  6 11 17 11 44.9990000  0  6G18G11G19G16G 2G 6
  21210939.659     3114657.144 7   2426999.38522        24.500           1.844
  22821781.112    -7983622.321 6  -6220994.80421        16.750           0.781
  20354756.394    -2083923.760 6  -1623839.67121        17.000           1.438
  23193647.347    -5662539.217 5  -4206146.86921        11.750           0.469
  22222218.019   -11200551.579 6  -8727693.15021        19.000           1.031
  23544508.511    -3881499.330 5  -2835103.13721         8.000           0.281
 91  6 11 17 11 59.9990000  0  6G18G11G19G16G 2G 6
  21215808.464     3140257.239 7   2446947.46222        24.000           1.969
  22816057.737    -8013692.387 6  -6244426.02221        16.500           0.844
  20353664.347    -2089668.127 6  -1628315.82921        17.500           1.406
  23188914.284    -5687427.415 6  -4225540.29221        12.750           0.438
  22212209.753   -11253159.615 6  -8768686.39121        19.750           1.063
  23535533.440    -3928661.001 5  -2871852.47221         8.000           0.250
 91  6 11 17 12 14.9990000  0  6G18G11G19G16G 2G 6
  21220699.089     3165946.567 7   2466965.06722        24.000           1.844
  22810359.917    -8043629.030 6  -6267753.26321        15.750           0.750
  20352581.503    -2095361.002 6  -1632751.86021        17.250           1.438
  23184198.472    -5712182.684 6  -4244830.12021        12.750           0.344
  22202212.120   -11305704.988 6  -8809630.81621        19.750           1.094
  23526562.292    -3975806.569 5  -2908589.28321         8.250           0.344
 91  6 11 17 12 29.9990000  0  6G18G11G19G16G 2G 6
  21225604.987     3191727.618 7   2487054.14222        24.500           1.875
  22804688.339    -8073429.104 6  -6290974.07821        15.750           0.750
  20351509.495    -2100999.446 6  -1637145.47721        17.000           1.469
  23179513.222    -5736801.985 6  -4264014.01021        12.750           0.563
  22192224.776   -11358184.861 7  -8850524.19621        20.250           1.094
  23517594.105    -4022933.210 5  -2945311.32121         8.500           0.406
 91  6 11 17 12 44.9990000  0  6G18G11G19G16G 2G 6
  21230527.401     3217599.420 7   2507213.94722        23.750           1.969
  22799046.222    -8103093.383 6  -6314089.10121        16.500           0.750
  20350443.042    -2106584.235 6  -1641497.29321        17.000           1.406
  23174858.237    -5761286.222 6  -4283092.65121        12.750           0.406
  22182250.776   -11410599.920 7  -8891367.06821        20.000           1.156
  23508624.776    -4070041.930 5  -2982019.39621         7.750           0.219
 91  6 11 17 12 59.9990000  0  6G18G11G19G16G 2G 6
  21235465.995     3243557.790 7   2527441.20722        23.250           1.906
  22793427.589    -8132625.812 6  -6337101.38421        16.250           0.813
  20349392.980    -2112119.561 6  -1645810.55822        17.000           1.500
  23170222.378    -5785639.417 6  -4302069.17821        13.250           0.438
  22172288.323   -11462954.073 7  -8932162.49021        20.250           1.156
  23499670.261    -4117136.829 5  -3018716.69221         8.250           0.219
 91  6 11 17 13 14.9990000  0  6G18G11G19G16G 2G 6
  21240424.417     3269611.182 7   2547742.51322        24.000           1.938
  22787831.253    -8162017.287 6  -6360003.81021        16.250           0.719
  20348351.815    -2117596.664 6  -1650078.45521        17.000           1.406
  23165613.862    -5809852.833 6  -4320936.78621        12.500           0.406
  22162339.886   -11515238.601 7  -8972903.65421        20.500           1.125
  23490717.597    -4164209.107 5  -3055396.36221         8.500           0.219
 91  6 11 17 13 29.9990000  0  6G18G11G19G16G 2G 6
  21245401.245     3295749.752 7   2568110.18522        24.750           1.906
  22782268.011    -8191277.047 6  -6382803.63221        17.500           0.813
  20347314.495    -2123025.086 6  -1654308.42421        17.500           1.375
  23161033.284    -5833935.989 6  -4339702.88821        12.250           0.406
  22152400.339   -11567462.575 7  -9013597.63921        20.250           1.000
  23481757.792    -4211268.234 5  -3092065.80821         8.500           0.344
 91  6 11 17 13 44.9990000  0  6G18G11G19G16G 2G 6
  21250390.714     3321978.950 7   2588548.47322        24.250           1.844
  22776724.081    -8220399.439 6  -6405496.40321        16.500           0.781
  20346296.550    -2128399.418 6  -1658496.24321        17.250           1.469
  23156472.034    -5857883.374 6  -4358363.21221        12.000           0.438
  22142473.987   -11619620.516 7  -9054240.16521        20.500           1.125
  23472804.159    -4258308.972 5  -3128720.90521         8.750           0.281
 91  6 11 17 13 59.9990000  0  6G18G11G19G16G 2G 6
  21255397.511     3348297.804 7   2609056.62222        24.000           1.906
  22771206.261    -8249385.028 6  -6428082.56621        16.250           0.844
  20345282.105    -2133720.404 6  -1662642.49121        17.000           1.406
  23151941.526    -5881695.610 6  -4376918.19321        12.250           0.469
  22132562.355   -11671713.143 7  -9094831.79921        20.500           1.063
  23463853.995    -4305332.043 5  -3165362.24621         8.750           0.281
 91  6 11 17 14 14.9990000  0  6G18G11G19G16G 2G 6
  21260423.581     3374705.658 7   2629634.11922        23.500           1.938
  22765717.183    -8278233.838 6  -6450562.14921        16.500           0.719
  20344278.605    -2138988.295 6  -1666747.36421        17.000           1.469
  23147439.776    -5905372.903 6  -4395368.04221        12.500           0.563
  22122658.933   -11723740.641 7  -9135372.67721        20.250           1.156
  23454910.612    -4352337.770 5  -3201990.03921         8.250           0.313
 91  6 11 17 14 29.9980000  0  6G18G11G19G16G 2G 6
  21265467.975     3401203.068 7   2650281.40922        24.250           1.906
  22760256.186    -8306941.424 6  -6472931.69121        16.500           0.750
  20343288.522    -2144200.236 6  -1670808.64821        17.250           1.313
  23142955.178    -5928911.422 6  -4413709.76721        12.250           0.438
  22112773.889   -11775696.970 7  -9175858.11821        20.250           1.094
  23445966.568    -4399320.558 5  -3238599.95721         8.500           0.281
 91  6 11 17 14 44.9980000  0  6G18G11G19G16G 2G 6
  21270525.459     3427790.509 7   2670998.85322        23.500           1.906
  22754818.975    -8335514.346 6  -6495196.31021        17.000           0.906
  20342304.779    -2149360.002 6  -1674829.27021        17.000           1.438
  23138505.623    -5952316.999 6  -4431947.88621        12.250           0.406
  22102898.912   -11827591.891 7  -9216295.69621        20.000           1.063
  23437036.139    -4446289.772 5  -3275199.31621         9.250           0.375
 91  6 11 17 14 59.9980000  0  6G18G11G19G16G 2G 6
  21275602.357     3454467.528 7   2691786.09222        23.750           1.875
  22749406.045    -8363948.809 6  -6517353.01721        15.750           0.813
  20341333.272    -2154465.629 6  -1678807.70621        17.250           1.438
  23134074.904    -5975586.667 6  -4450080.08621        12.250           0.469
  22093033.631   -11879420.287 7  -9256681.43621        20.250           1.250
  23428103.732    -4493240.708 5  -3311784.43621         9.250           0.313
 91  6 11 17 15 14.9980000  0  6G18G11G19G16G 2G 6
  21280695.279     3481233.641 7   2712642.75722        24.000           1.906
  22744021.756    -8392244.955 6  -6539401.95221        17.000           0.844
  20340375.936    -2159517.449 6  -1682744.21522        17.000           1.531
  23129676.834    -5998720.487 6  -4468106.46921        12.250           0.438
  22083186.037   -11931182.410 7  -9297015.53021        20.500           1.156
  23419171.350    -4540173.712 5  -3348355.59121         9.250           0.281
 91  6 11 17 15 29.9980000  0  6G18G11G19G16G 2G 6
  21285808.232     3508090.282 7   2733569.94822        24.500           1.781
  22738662.772    -8420400.847 6  -6561341.59621        16.000           0.781
  20339423.201    -2164513.794 6  -1686637.50121        17.000           1.375
  23125298.967    -6021716.883 6  -4486025.74821        12.500           0.469
  22073351.397   -11982876.383 7  -9337296.53421        20.500           1.156
  23410242.522    -4587087.208 5  -3384911.52321         8.750           0.250
 91  6 11 17 15 44.9980000  0  6G18G11G19G16G 2G 6
  21290934.943     3535034.975 7   2754565.76522        24.000           1.781
  22733333.717    -8448418.693 6  -6583173.67221        16.500           0.750
  20338481.295    -2169456.896 6  -1690489.29421        17.250           1.438
  23120949.623    -6044578.339 6  -4503839.87521        12.250           0.438
  22063524.193   -12034504.505 7  -9377526.22121        20.500           1.188
  23401320.084    -4633983.387 5  -3421453.99221         8.750           0.188
 91  6 11 17 15 59.9980000  0  6G18G11G19G16G 2G 6
  21296080.686     3562070.127 7   2775632.06422        24.500           1.688
  22728026.787    -8476295.604 6  -6604895.93421        16.750           0.781
  20337553.115    -2174344.071 6  -1694297.51422        17.500           1.531
  23116617.701    -6067301.893 5  -4521546.54021        11.500           0.438
  22053713.568   -12086063.886 7  -9417702.34921        20.250           1.188
  23392400.600    -4680859.748 5  -3457980.99021         8.750           0.313
 91  6 11 17 16 14.9980000  0  6G18G11G19G16G 2G 6
  21301241.397     3589194.930 7   2796768.21822        23.500           1.781
  22722750.701    -8504032.112 6  -6626508.77821        17.250           0.813
  20336632.506    -2179176.106 6  -1698062.76322        17.500           1.500
  23112326.318    -6089888.418 6  -4539146.43521        12.000           0.500
  22043916.240   -12137555.251 7  -9457825.47021        21.000           1.094
  23383484.092    -4727717.096 5  -3494493.19221         8.250           0.281
 91  6 11 17 16 29.9980000  0  6G18G11G19G16G 2G 6
  21306416.725     3616406.120 7   2817971.68822        22.750           1.688
  22717500.311    -8531631.047 6  -6648014.42821        16.750           0.594
  20335723.873    -2183956.046 6  -1701787.41622        18.000           1.594
  23108056.936    -6112340.910 6  -4556641.89121        12.750           0.531
  22034125.928   -12188981.303 7  -9497897.70321        20.500           1.219
  23374567.482    -4774558.361 5  -3530992.86421         8.750           0.281
 91  6 11 17 16 44.9980000  0  6G18G11G19G16G 2G 6
  21311610.990     3643701.098 7   2839240.45022        22.250           1.656
  22712275.725    -8559094.383 6  -6669414.40921        17.750           0.688
  20334824.756    -2188686.070 6  -1705473.18022        18.000           1.531
  23103808.795    -6134661.354 6  -4574034.45521        12.750           0.563
  22024352.982   -12240344.478 7  -9537920.93921        20.500           1.250
  23365654.928    -4821385.916 5  -3567481.85121         9.000           0.281
 91  6 11 17 16 59.9980000  0  6G18G11G19G16G 2G 6
  21316826.381     3671084.666 7   2860578.23322        23.750           1.688
  22707075.522    -8586417.002 6  -6690704.74221        17.750           0.813
  20333933.256    -2193361.272 6  -1709116.21722        18.000           1.531
  23099579.545    -6156844.940 6  -4591320.39021        12.250           0.563
  22014592.873   -12291639.786 7  -9577891.29121        20.250           1.250
  23356745.467    -4868194.877 5  -3603956.31221         9.250           0.375
 91  6 11 17 17 14.9980000  0  6G18G11G19G16G 2G 6
  21322052.123     3698555.953 7   2881984.37422        23.000           1.656
  22701900.006    -8613599.639 6  -6711886.00421        17.500           0.844
  20333057.397    -2197982.472 6  -1712717.17522        18.500           1.500
  23095391.506    -6178892.413 6  -4608500.23921        12.500           0.406
  22004841.803   -12342867.876 7  -9617809.26621        20.250           1.188
  23347843.568    -4914986.048 5  -3640416.95921         8.750           0.250
 91  6 11 17 17 29.9980000  0  6G18G11G19G16G 2G 6
  21327297.209     3726115.900 7   2903459.60422        23.500           1.563
  22696754.568    -8640640.825 6  -6732957.02121        17.250           0.813
  20332183.029    -2202548.546 6  -1716275.18022        18.250           1.500
  23091219.404    -6200802.634 5  -4625573.16121        11.750           0.469
  21995109.779   -12394027.398 7  -9657673.81121        20.500           1.219
  23338939.709    -4961758.248 5  -3676862.81221         8.250           0.219
 91  6 11 17 17 44.9980000  0  6G18G11G19G16G 2G 6
  21332559.725     3753762.139 7   2925002.06522        24.000           1.563
  22691635.209    -8667542.577 6  -6753919.40921        17.250           0.844
  20331326.225    -2207061.567 6  -1719791.84021        18.000           1.406
  23087077.014    -6222578.020 6  -4642541.00221        12.250           0.531
  21985382.748   -12445120.425 7  -9697486.54521        20.000           1.281
  23330053.100    -5008513.716 5  -3713295.62521         9.000           0.375
 91  6 11 17 17 59.9980000  0  6G18G11G19G16G 2G 6
  21337834.303     3781493.660 7   2946610.97822        23.000           1.625
  22686542.732    -8694305.207 6  -6774773.37921        17.000           0.813
  20330478.693    -2211522.071 6  -1723267.57921        18.500           1.469
  23082954.506    -6244218.771 5  -4659403.92121        11.750           0.531
  21975680.584   -12496147.216 7  -9737247.66721        21.000           1.344
  23321165.662    -5055252.976 5  -3749715.83121         9.000           0.344
 91  6 11 17 18 14.9980000  0  6G18G11G19G16G 2G 6
  21343126.740     3809316.535 7   2968291.09122        21.750           1.594
  22681476.178    -8720922.340 6  -6795513.97621        17.250           0.844
  20329640.928    -2215923.832 6  -1726697.54522        18.750           1.563
  23078869.193    -6265718.504 6  -4676156.98121        12.000           0.563
  21965979.506   -12547101.571 7  -9776952.32921        21.000           1.375
  23312256.623    -5101969.953 5  -3786118.65821         8.500           0.406
 91  6 11 17 18 29.9980000  0  6G18G11G19G16G 2G 6
  21348442.631     3837232.158 7   2990043.47622        22.750           1.656
  22676440.123    -8747392.494 6  -6816140.04121        17.500           0.844
  20328816.373    -2220265.583 6  -1730080.75022        17.750           1.500
  23074804.037    -6287076.143 5  -4692799.31021        11.750           0.563
  21956299.826   -12597982.198 7  -9816599.54621        21.250           1.406
  23303370.412    -5148663.393 5  -3822503.12521         8.500           0.406
 91  6 11 17 18 44.9980000  0  6G18G11G19G16G 2G 6
  21353770.717     3865234.949 7   3011863.77222        22.750           1.656
  22671429.459    -8773720.666 6  -6836655.46221        17.000           0.844
  20327999.045    -2224552.502 6  -1733421.23022        18.500           1.563
  23070760.834    -6308296.870 5  -4709334.94421        11.750           0.531
  21946629.248   -12648794.035 7  -9856193.16321        21.250           1.438
  23294502.732    -5195338.411 5  -3858873.25621         8.500           0.375
 91  6 11 17 18 59.9980000  0  6G18G11G19G16G 2G 6
  21359113.537     3893321.641 7   3033749.44922        22.250           1.594
  22666445.498    -8799909.809 6  -6857062.56521        17.250           0.781
  20327193.756    -2228787.717 6  -1736721.41822        18.250           1.500
  23066752.662    -6329383.665 6  -4725766.23221        12.250           0.469
  21936970.209   -12699540.200 7  -9895735.61521        20.500           1.313
  23285617.209    -5241998.238 5  -3895231.53621         8.500           0.281
 91  6 11 17 19 14.9980000  0  6G18G11G19G16G 2G 6
  21364478.318     3921504.493 7   3055710.06022        22.500           1.656
  22661489.818    -8825947.111 6  -6877351.36021        17.250           0.719
  20326398.076    -2232958.657 6  -1739971.51821        18.750           1.438
  23062766.186    -6350323.936 6  -4742083.32521        12.000           0.438
  21927328.904   -12750208.061 7  -9935217.04121        20.750           1.344
  23276739.240    -5288630.313 5  -3931568.18621         8.500           0.344
 91  6 11 17 19 29.9980000  0  6G18G11G19G16G 2G 6
  21369855.756     3949769.846 7   3077734.95022        22.250           1.688
  22656562.373    -8851845.826 6  -6897532.14921        17.000           0.688
  20325614.397    -2237078.696 6  -1743181.95522        18.750           1.563
  23058806.295    -6371131.216 5  -4758296.80121        11.750           0.563
  21917701.006   -12800811.056 7  -9974647.92521        21.000           1.375
  23267875.170    -5335248.073 5  -3967893.69921         8.750           0.344
 91  6 11 17 19 44.9980000  0  6G18G11G19G16G 2G 6
  21375250.162     3978122.400 7   3099827.79622        21.000           1.688
  22651660.686    -8877601.113 6  -6917601.17921        17.500           0.844
  20324839.639    -2241143.031 6  -1746348.98922        18.750           1.594
  23054873.482    -6391800.782 5  -4774402.96421        11.750           0.563
  21908085.357   -12851344.193 7 -10014024.37521        21.250           1.406
  23258998.725    -5381846.873 5  -4004204.44121         8.250           0.375
 91  6 11 17 19 59.9980000  0  6G18G11G19G16G 2G 6
  21380662.279     4006557.329 7   3121984.82122        21.250           1.625
  22646788.553    -8903217.178 6  -6937561.73821        17.500           0.844
  20324076.936    -2245156.355 6  -1749476.27522        19.250           1.594
  23050963.662    -6412337.024 6  -4790405.24721        12.250           0.594
  21898478.756   -12901811.905 7 -10053349.84321        20.750           1.281
  23250143.897    -5428431.146 5  -4040503.85021         9.250           0.406
 91  6 11 17 20 14.9980000  0  6G18G11G19G16G 2G 6
  21386087.584     4035077.454 7   3144208.23322        21.000           1.688
  22641939.857    -8928690.862 6  -6957411.32821        17.250           0.938
  20323326.131    -2249115.682 6  -1752561.48322        19.000           1.531
  23047084.514    -6432736.829 6  -4806301.20621        12.500           0.500
  21888890.264   -12952210.935 7 -10092621.78821        21.750           1.344
  23241277.834    -5474997.953 5  -4076789.67821         8.750           0.375
 91  6 11 17 20 29.9980000  0  6G18G11G19G16G 2G 6
  21391534.397     4063687.310 7   3166501.56722        22.000           1.656
  22637120.990    -8954017.171 6  -6977146.08721        16.750           0.781
  20322586.568    -2253015.955 6  -1755600.67921        18.250           1.469
  23043223.279    -6452995.496 6  -4822087.19221        12.250           0.531
  21879314.357   -13002536.303 7 -10131836.34321        21.500           1.219
  23232423.584    -5521542.435 5  -4113058.07721         8.750           0.313
 91  6 11 17 20 44.9980000  0  6G18G11G19G16G 2G 6
  21396990.287     4092376.077 7   3188856.39222        21.250           1.594
  22632327.053    -8979206.459 6  -6996774.09321        17.500           0.750
  20321848.490    -2256867.841 6  -1758602.16322        18.750           1.531
  23039396.451    -6473123.717 6  -4837771.53721        12.250           0.438
  21869748.857   -13052798.671 7 -10171001.80321        21.500           1.313
  23223564.053    -5568075.271 5  -4149317.42021         9.500           0.344
 91  6 11 17 20 59.9980000  0  6G18G11G19G16G 2G 6
  21402470.397     4121147.516 7   3211275.63322        22.750           1.625
  22627558.631    -9004254.915 6  -7016292.34821        16.250           0.813
  20321124.279    -2260667.643 6  -1761563.07122        19.000           1.531
  23035596.303    -6493117.860 6  -4853351.39521        12.250           0.406
  21860196.061   -13102994.259 7 -10210115.23521        21.250           1.250
  23214712.162    -5614592.723 5  -4185564.76421         9.250           0.344
 91  6 11 17 21 14.9980000  0  6G18G11G19G16G 2G 6
  21407959.287     4150001.367 7   3233759.09822        21.500           1.719
  22622822.889    -9029162.500 6  -7035700.83621        17.500           0.813
  20320414.022    -2264415.348 6  -1764483.37522        19.000           1.594
  23031809.670    -6512977.948 5  -4868826.80721        11.500           0.438
  21850657.553   -13153122.976 7 -10249176.54821        21.750           1.375
  23205870.865    -5661095.006 5  -4221800.30221         9.250           0.281
 91  6 11 17 21 29.9980000  0  6G18G11G19G16G 2G 6
  21413465.365     4178940.860 7   3256309.29222        21.750           1.625
  22618107.436    -9053925.415 6  -7054996.60221        16.500           0.813
  20319710.686    -2268107.247 6  -1767360.20122        19.500           1.625
  23028065.701    -6532700.089 6  -4884194.71821        12.000           0.375
  21841132.279   -13203180.987 7 -10288182.77021        21.750           1.250
  23197023.311    -5707578.498 5  -4258021.16221         9.250           0.375
 91  6 11 17 21 44.9980000  0  6G18G11G19G16G 2G 6
  21418987.967     4207961.694 7   3278922.86522        21.750           1.688
  22613421.787    -9078547.436 6  -7074182.59321        16.500           0.813
  20319018.225    -2271747.446 6  -1770196.73222        19.000           1.594
  23024332.475    -6552288.433 6  -4899458.37221        12.000           0.500
  21831619.232   -13253172.368 7 -10327137.07921        21.750           1.344
  23188177.639    -5754047.280 5  -4294230.59521         9.500           0.313
 91  6 11 17 21 59.9980000  0  6G18G11G19G16G 2G 6
  21424527.475     4237069.520 7   3301604.22722        22.000           1.656
  22608762.967    -9103022.563 6  -7093254.09121        16.500           0.844
  20318336.326    -2275330.135 6  -1772988.45522        19.500           1.500
  23020629.787    -6571737.003 5  -4914613.10921        11.250           0.531
  21822116.107   -13303091.278 7 -10366034.90721        21.250           1.375
  23179339.904    -5800495.387 5  -4330423.90921         9.250           0.344
 91  6 11 17 22 14.9980000  0  6G18G11G19G16G 2G 6
  21430083.662     4266263.585 7   3324352.78522        22.000           1.625
  22604134.803    -9127351.321 6  -7112211.54621        17.000           0.781
  20317665.834    -2278855.991 6  -1775735.89122        19.000           1.625
  23016960.787    -6591046.659 5  -4929659.61221        11.500           0.563
  21812637.975   -13352938.047 7 -10404876.52421        21.750           1.344
  23170501.006    -5846923.653 5  -4366601.74821         9.750           0.406
 91  6 11 17 22 29.9980000  0  6G18G11G19G16G 2G 6
  21435654.850     4295546.212 7   3347170.35222        21.750           1.563
  22599535.639    -9151531.043 6  -7131052.87421        17.250           0.813
  20317006.514    -2282322.569 6  -1778437.13722        19.000           1.531
  23013307.506    -6610215.131 5  -4944596.10821        11.750           0.438
  21803164.451   -13402710.133 7 -10443659.94521        21.750           1.313
  23161670.451    -5893329.614 5  -4402762.20921        10.000           0.344
 91  6 11 17 22 44.9980000  0  6G18G11G19G16G 2G 6
  21441244.061     4324912.708 7   3370053.27622        21.500           1.594
  22594961.076    -9175565.975 6  -7149781.38521        17.500           0.813
  20316358.061    -2285734.303 6  -1781095.64422        19.000           1.625
  23009691.264    -6629246.602 6  -4959425.82421        12.750           0.375
  21793703.826   -13452412.013 7 -10482388.66321        21.750           1.188
  23152842.162    -5939717.688 5  -4438908.75321         9.750           0.375
 91  6 11 17 22 59.9980000  0  6G18G11G19G16G 2G 6
  21446846.217     4354362.162 7   3393000.84322        21.000           1.563
  22590414.928    -9199456.412 6  -7168397.30321        17.750           0.906
  20315717.975    -2289091.419 6  -1783711.59322        19.250           1.563
  23006095.264    -6648141.560 6  -4974149.17921        12.000           0.406
  21784256.522   -13502043.927 7 -10521062.86921        21.000           1.438
  23144022.522    -5986088.399 5  -4475041.74221         9.750           0.375
 91  6 11 17 23 14.9980000  0  6G18G11G19G16G 2G 6
  21452469.936     4383892.882 7   3416011.72322        22.000           1.531
  22585895.881    -9223203.757 6  -7186901.70721        17.250           0.938
  20315088.740    -2292395.555 6  -1786286.25322        19.250           1.688
  23002528.357    -6666901.528 6  -4988767.36221        12.000           0.531
  21774826.803   -13551607.346 7 -10559683.69021        21.250           1.344
  23135198.537    -6032443.386 5  -4511162.50921        10.000           0.375
 91  6 11 17 23 29.9980000  0  6G18G11G19G16G 2G 6
  21458103.514     4413504.465 7   3439085.61822        21.000           1.531
  22581404.053    -9246808.126 6  -7205294.71121        17.500           0.781
  20314469.818    -2295646.997 6  -1788819.85822        19.500           1.625
  22998980.873    -6685526.960 6  -5003280.69021        12.000           0.438
  21765406.154   -13601102.476 7 -10598251.30421        21.250           1.313
  23126384.740    -6078782.805 5  -4547271.12721        10.500           0.313
 91  6 11 17 23 44.9980000  0  6G18G11G19G16G 2G 6
  21463750.561     4443195.590 7   3462221.48822        21.250           1.531
  22576938.631    -9270270.580 6  -7223577.14521        17.250           0.875
  20313861.350    -2298847.044 6  -1791313.41122        19.250           1.594
  22995458.881    -6704018.668 5  -5017689.81621        11.500           0.438
  21756003.436   -13650530.500 7 -10636766.63321        21.750           1.406
  23117564.022    -6125107.968 5  -4583368.64121        10.000           0.344
 91  6 11 17 23 59.9980000  0  6G18G11G19G16G 2G 6
  21469417.467     4472971.380 7   3485423.34422        20.750           1.531
  22572500.959    -9293585.619 6  -7241744.70021        16.750           0.906
  20313259.490    -2301990.184 6  -1793762.62622        19.500           1.688
  22991970.865    -6722371.603 6  -5031990.82121        12.000           0.469
  21746611.818   -13699885.789 7 -10675225.27521        22.250           1.375
  23108761.389    -6171413.478 5  -4619450.83021        10.500           0.281
 91  6 11 17 24 14.9980000  0  6G18G11G19G16G 2G 6
  21475097.553     4502826.492 7   3508687.01422        20.250           1.500
  22568094.389    -9316757.938 6  -7259801.03821        18.250           0.813
  20312676.311    -2305081.356 6  -1796171.33822        19.250           1.625
  22988505.873    -6740590.454 6  -5046187.34121        12.250           0.469
  21737234.787   -13749173.079 7 -10713630.93821        22.000           1.375
  23099948.959    -6217704.239 5  -4655521.55221        10.000           0.219
 91  6 11 17 24 29.9980000  0  6G18G11G19G16G 2G 6
  21480796.818     4532758.996 7   3532010.98522        20.750           1.500
  22563711.100    -9339789.352 6  -7277747.59221        17.500           0.625
  20312097.295    -2308122.497 6  -1798541.07522        19.750           1.625
  22985055.881    -6758677.327 5  -5060281.01721        11.750           0.375
  21727865.975   -13798394.380 7 -10751985.19121        21.750           1.406
  23091132.811    -6263982.290 5  -4691582.34521         9.750           0.313
 91  6 11 17 24 44.9980000  0  6G18G11G19G16G 2G 6
  21486506.936     4562772.002 7   3555397.66722        21.500           1.531
  22559355.951    -9362676.433 6  -7295581.68621        17.750           0.875
  20311527.147    -2311110.296 6  -1800869.24522        19.250           1.563
  22981643.193    -6776629.261 5  -5074269.54921        11.250           0.406
  21718514.725   -13847546.409 7 -10790285.45221        21.500           1.438
  23082334.967    -6310244.345 5  -4727630.68921        10.750           0.281
 91  6 11 17 24 59.9980000  0  6G18G11G19G16G 2G 6
  21492237.272     4592865.679 7   3578847.22721        21.750           1.469
  22555029.412    -9385418.497 6  -7313302.76621        17.250           0.938
  20310967.787    -2314044.146 6  -1803155.37022        19.000           1.688
  22978252.045    -6794445.356 5  -5088152.22321        11.500           0.469
  21709176.912   -13896628.571 7 -10828531.27821        22.250           1.375
  23073536.889    -6356489.957 5  -4763666.22421        10.750           0.469
 91  6 11 17 25 14.9980000  0  6G18G11G19G16G 2G 6
  21497976.272     4623038.673 7   3602358.59321        21.000           1.469
  22550727.467    -9408016.457 6  -7330911.55921        17.000           0.844
  20310421.623    -2316925.027 6  -1805400.22522        19.000           1.656
  22974886.061    -6812126.979 5  -5101930.13621        11.750           0.438
  21699848.881   -13945641.468 7 -10866723.12121        22.250           1.438
  23064738.842    -6402720.099 5  -4799689.67721        10.750           0.406
 91  6 11 17 25 29.9980000  0  6G18G11G19G16G 2G 6
  21503733.982     4653296.849 7   3625936.33022        20.250           1.500
  22546458.029    -9430464.278 6  -7348403.37621        18.250           0.813
  20309885.459    -2319747.222 6  -1807599.35022        19.250           1.719
  22971546.459    -6829668.318 5  -5115598.72421        11.500           0.438
  21690535.522   -13994579.339 7 -10904856.51121        22.750           1.375
  23055943.350    -6448928.995 5  -4835696.59121        10.250           0.313
 91  6 11 17 25 44.9980000  0  6G18G11G19G16G 2G 6
  21509506.686     4683636.600 7   3649577.63021        20.000           1.438
  22542209.967    -9452765.109 6  -7365780.65121        17.000           0.906
  20309357.951    -2322514.080 6  -1809755.35622        19.000           1.750
  22968238.522    -6847072.470 6  -5129160.39821        12.250           0.375
  21681233.443   -14043445.461 7 -10942934.00721        22.250           1.375
  23047152.615    -6495120.008 5  -4871689.57221        10.750           0.375
 91  6 11 17 25 59.9980000  0  6G18G11G19G16G 2G 6
  21515296.389     4714053.405 7   3673278.98121        20.250           1.469
  22537995.147    -9474923.003 6  -7383046.53421        17.250           0.875
  20308838.850    -2325229.650 7  -1811871.38922        20.000           1.688
  22964954.545    -6864343.548 6  -5142618.39821        12.000           0.344
  21671947.397   -14092243.962 7 -10980958.80221        21.500           1.375
  23038367.904    -6541297.245 5  -4907671.80721        11.500           0.344
 91  6 11 17 26 14.9980000  0  6G18G11G19G16G 2G 6
  21521099.889     4744550.249 6   3697042.68721        19.750           1.438
  22533810.818    -9496934.562 6  -7400198.39221        18.750           0.813
  20308332.959    -2327890.683 6  -1813944.92922        18.750           1.625
  22961695.482    -6881478.349 5  -5155970.21321        11.750           0.438
  21662676.787   -14140971.506 7 -11018928.29621        22.000           1.281
  23029589.178    -6587457.543 5  -4943640.86721        11.250           0.375
 91  6 11 17 26 29.9980000  0  6G18G11G19G16G 2G 6
  21526918.397     4775125.232 7   3720867.28721        20.500           1.469
  22529643.303    -9518801.581 6  -7417237.64121        17.250           0.875
  20307837.678    -2330499.090 6  -1815977.46722        19.500           1.719
  22958456.412    -6898479.032 5  -5169217.52821        11.750           0.344
  21653417.982   -14189629.779 7 -11056843.82221        22.000           1.406
  23020807.170    -6633602.924 5  -4979598.30221        10.750           0.344
 91  6 11 17 26 44.9980000  0  6G18G11G19G16G 2G 6
  21532751.029     4805781.317 7   3744755.08521        20.500           1.438
  22525511.998    -9540520.458 6  -7434161.43821        17.750           0.844
  20307350.857    -2333051.360 6  -1817966.25822        19.000           1.656
  22955250.147    -6915342.230 5  -5182357.71121        11.500           0.438
  21644172.639   -14238215.204 7 -11094702.58321        22.250           1.281
  23012023.756    -6679729.889 5  -5015541.35321        10.750           0.406
 91  6 11 17 26 59.9980000  0  6G18G11G19G16G 2G 6
  21538597.990     4836521.019 6   3768708.03421        19.000           1.438
  22521409.178    -9562088.516 6  -7450967.70721        17.750           0.844
  20306876.029    -2335544.960 6  -1819909.33422        19.250           1.656
  22952065.537    -6932065.159 5  -5195388.56221        11.500           0.438
  21634943.350   -14286725.173 7 -11132502.54821        23.000           1.438
  23003253.318    -6725835.821 5  -5051468.05321        10.500           0.250
 91  6 11 17 27 14.9980000  0  6G18G11G19G16G 2G 6
  21544463.537     4867342.295 7   3792724.54221        20.000           1.375
  22517331.834    -9583507.476 6  -7467657.80421        17.750           0.875
  20306416.475    -2337981.655 6  -1821808.06822        19.500           1.719
  22948911.795    -6948649.879 5  -5208311.74421        11.500           0.375
  21625725.061   -14335161.510 7 -11170245.14021        21.750           1.406
  22994472.498    -6771922.588 5  -5087379.79121        10.500           0.344
 91  6 11 17 27 29.9980000  0  6G18G11G19G16G 2G 6
  21550345.740     4898240.831 7   3816801.25421        20.500           1.375
  22513284.967    -9604781.392 6  -7484234.88421        18.250           0.844
  20305962.068    -2340365.619 6  -1823665.71522        19.500           1.750
  22945774.787    -6965100.596 5  -5221130.49021        10.750           0.438
  21616520.412   -14383528.354 7 -11207933.58321        21.750           1.375
  22985714.850    -6817994.530 5  -5123280.00121        10.500           0.406
 91  6 11 17 27 44.9980000  0  6G18G11G19G16G 2G 6
  21556244.107     4929221.683 7   3840942.11121        21.000           1.344
  22509265.264    -9625904.742 6  -7500694.63021        17.750           0.938
  20305518.748    -2342691.581 6  -1825478.16022        19.500           1.719
  22942674.467    -6981411.940 5  -5233840.64221        11.000           0.375
  21607330.912   -14431820.142 7 -11245563.53722        22.000           1.500
  22976947.561    -6864046.287 5  -5159164.46321        10.000           0.344
 91  6 11 17 27 59.9980000  0  6G18G11G19G16G 2G 6
  21562155.725     4960284.587 7   3865146.90521        21.000           1.406
  22505275.037    -9646877.246 6  -7517036.84521        18.000           0.906
  20305087.436    -2344959.293 6  -1827245.22322        19.000           1.719
  22939598.990    -6997583.676 5  -5246442.02721        11.500           0.438
  21598156.795   -14480036.822 7 -11283134.95621        22.250           1.469
  22968188.857    -6910077.823 5  -5195033.19321        10.000           0.250
 91  6 11 17 28 14.9980000  0  6G18G11G19G16G 2G 6
  21568079.600     4991433.892 7   3889419.03122        20.250           1.500
  22501311.693    -9667694.238 6  -7533257.87821        18.000           0.906
  20304666.537    -2347164.394 6  -1828963.48622        19.000           1.719
  22936548.154    -7013611.467 6  -5258931.23321        12.000           0.344
  21588990.428   -14528173.801 7 -11320644.28621        21.000           1.438
  22959435.053    -6956084.479 5  -5230882.49421        10.500           0.344
 91  6 11 17 28 29.9980000  0  6G18G11G19G16G 2G 6
  21574020.381     5022657.169 7   3913748.78221        20.750           1.438
  22497377.959    -9688367.775 6  -7549367.13221        17.500           0.938
  20304255.865    -2349318.795 6  -1830642.25622        18.750           1.625
  22933519.920    -7029507.510 5  -5271317.76921        11.750           0.375
  21579848.639   -14576243.006 7 -11358100.79522        21.750           1.500
  22950679.772    -7002078.461 5  -5266721.95921        10.500           0.344
 91  6 11 17 28 44.9980000  0  6G18G11G19G16G 2G 6
  21579977.342     5053957.630 7   3938138.69321        20.250           1.375
  22493470.740    -9708894.491 6  -7565361.96821        17.500           0.906
  20303859.107    -2351419.253 6  -1832278.98622        19.000           1.750
  22930523.115    -7045268.939 5  -5283599.43321        11.500           0.500
  21570714.076   -14624241.065 7 -11395501.86321        21.500           1.406
  22941935.022    -7048056.597 5  -5302549.08021        10.500           0.375
 91  6 11 17 28 59.9980000  0  6G18G11G19G16G 2G 6
  21585950.865     5085343.654 7   3962595.26121        20.500           1.406
  22489594.943    -9729265.794 6  -7581235.71721        17.750           0.813
  20303470.467    -2353457.388 6  -1833867.15922        19.250           1.750
  22927549.592    -7060886.932 5  -5295769.29721        11.500           0.406
  21561592.709   -14672159.543 7 -11432840.92921        21.500           1.438
  22933189.639    -7094010.397 5  -5338357.20321        10.500           0.375
 91  6 11 17 29 14.9980000  0  6G18G11G19G16G 2G 6
  21591939.647     5116809.324 7   3987113.91022        20.250           1.500
  22485748.303    -9749486.969 6  -7596992.49321        17.250           0.875
  20303092.732    -2355438.712 6  -1835411.05122        19.000           1.719
  22924604.045    -7076367.056 5  -5307831.75021        11.000           0.406
  21552485.537   -14720003.729 7 -11470122.10721        21.000           1.375
  22924444.053    -7139945.283 5  -5374150.62421        11.250           0.281
 91  6 11 17 29 29.9980000  0  6G18G11G19G16G 2G 6
  21597940.092     5148354.208 6   4011694.26021        19.750           1.469
  22481928.475    -9769557.939 6  -7612632.19021        17.250           0.938
  20302726.264    -2357363.316 6  -1836910.75722        18.750           1.688
  22921691.693    -7091709.703 5  -5319787.08521        11.500           0.438
  21543401.373   -14767773.667 7 -11507345.42921        22.000           1.469
  22915710.334    -7185861.490 5  -5409929.47021        11.000           0.375
 91  6 11 17 29 44.9980000  0  6G18G11G19G16G 2G 6
  21603956.514     5179975.491 6   4036334.15421        19.500           1.406
  22478136.272    -9789481.357 6  -7628156.94321        17.750           0.906
  20302370.881    -2359233.735 6  -1838368.23222        18.750           1.594
  22918797.678    -7106917.180 6  -5331637.07721        12.000           0.438
  21534322.678   -14815471.920 7 -11544512.89021        21.500           1.469
  22906977.107    -7231761.686 5  -5445695.83621        11.250           0.406
 91  6 11 17 29 59.9980000  0  6G18G11G19G16G 2G 6
  21609993.170     5211673.861 7   4061034.11721        20.000           1.375
  22474373.365    -9809256.278 6  -7643565.97821        17.500           0.906
  20302025.045    -2361049.029 6  -1839782.76522        18.500           1.656
  22915922.811    -7121988.748 5  -5343381.15621        11.250           0.469
  21525260.561   -14863097.549 7 -11581623.76122        22.000           1.531
  22898246.232    -7277644.941 5  -5481449.01421        10.500           0.344
 91  6 11 17 30 14.9980000  0  6G18G11G19G16G 2G 6
  21616037.998     5243450.359 6   4085794.95521        19.750           1.375
  22470639.389    -9828881.482 6  -7658858.33621        17.750           0.938
  20301690.365    -2362808.154 6  -1841153.52422        18.250           1.656
  22913087.029    -7136923.315 5  -5355018.51621        11.750           0.406
  21516213.561   -14910649.514 7 -11618677.23922        22.750           1.594
  22889512.514    -7323510.271 5  -5517188.20921        10.000           0.469
 91  6 11 17 30 29.9980000  0  6G18G11G19G16G 2G 6
  21622098.178     5275301.271 7   4110613.78621        20.000           1.406
  22466931.889    -9848359.996 6  -7674036.41121        17.750           0.781
  20301366.443    -2364514.210 6  -1842482.93322        17.750           1.563
  22910265.959    -7151724.324 5  -5366551.77821        11.750           0.313
  21507176.373   -14958130.857 7 -11655675.67922        22.250           1.563
  22880796.732    -7369360.749 5  -5552915.84821        11.250           0.406
 91  6 11 17 30 44.9980000  0  6G18G11G19G16G 2G 6
  21628173.240     5307225.317 6   4135489.60021        19.250           1.375
  22463253.029    -9867693.071 6  -7689101.15321        17.250           0.875
  20301048.967    -2366168.600 6  -1843772.07722        18.000           1.594
  22907474.170    -7166393.174 5  -5377982.07521        11.750           0.500
  21498152.584   -15005542.749 7 -11692620.01522        22.250           1.594
  22872074.654    -7415197.839 5  -5588633.05221        11.250           0.469
 91  6 11 17 30 59.9980000  0  6G18G11G19G16G 2G 6
  21634264.881     5339232.093 6   4160429.87321        19.750           1.438
  22459604.537    -9886870.537 6  -7704044.64121        17.500           0.906
  20300751.811    -2367761.226 6  -1845013.09722        17.500           1.625
  22904709.404    -7180919.692 6  -5389301.45821        12.000           0.406
  21489145.389   -15052875.064 7 -11729502.32722        22.500           1.625
  22863350.334    -7461011.474 5  -5624331.98421        10.500           0.469
 91  6 11 17 31 14.9980000  0  6G18G11G19G16G 2G 6
  21640370.787     5371318.435 7   4185432.14721        20.000           1.344
  22455983.756    -9905895.191 6  -7718869.04821        17.250           0.938
  20300454.631    -2369295.118 6  -1846208.35522        18.000           1.625
  22901973.193    -7195307.047 5  -5400512.42021        11.750           0.469
  21480153.920   -15100130.599 7 -11766324.81922        22.250           1.656
  22854639.928    -7506804.680 5  -5660014.97521        11.250           0.406
 91  6 11 17 31 29.9980000  0  6G18G11G19G16G 2G 6
  21646490.147     5403482.319 6   4210494.83521        19.250           1.156
  22452394.084    -9924768.826 6  -7733575.79621        18.500           0.969
  20300175.639    -2370772.132 6  -1847359.28922        17.500           1.500
  22899263.545    -7209557.167 6  -5411616.42521        12.000           0.438
  21471174.232   -15147311.274 7 -11803088.98622        21.750           1.625
  22845928.311    -7552579.366 5  -5695683.56021        11.000           0.438
 91  6 11 17 31 44.9980000  0  6G18G11G19G16G 2G 6
  21652626.936     5435721.051 6   4235615.86721        19.000           1.250
  22448829.287    -9943493.790 6  -7748166.68721        18.000           0.938
  20299903.475    -2372194.572 6  -1848467.69622        17.750           1.500
  22896574.584    -7223672.384 5  -5422615.31521        11.500           0.344
  21462207.982   -15194419.276 7 -11839796.52022        21.750           1.563
  22837220.053    -7598337.867 5  -5731339.52621        11.500           0.438
 91  6 11 17 31 59.9980000  0  6G18G11G19G16G 2G 6
  21658776.764     5468037.937 6   4260797.76921        19.250           1.313
  22445297.482    -9962066.335 6  -7762638.82121        17.500           0.906
  20299643.740    -2373558.652 6  -1849530.63922        17.750           1.500
  22893913.998    -7237649.502 5  -5433506.62321        11.750           0.438
  21453261.139   -15241450.994 7 -11876444.61422        22.750           1.625
  22828508.631    -7644076.660 5  -5766980.13621        11.000           0.344
 91  6 11 17 32 14.9980000  0  6G18G11G19G16G 2G 6
  21664938.717     5500431.537 6   4286039.43921        18.750           1.188
  22441791.568    -9980487.717 6  -7776993.17121        18.250           0.938
  20299393.748    -2374865.739 6  -1850549.17822        17.750           1.531
  22891275.357    -7251489.721 5  -5444291.24921        11.500           0.406
  21444325.936   -15288407.654 7 -11913034.23822        22.500           1.719
  22819822.053    -7689797.121 6  -5802606.49921        12.250           0.375
 91  6 11 17 32 29.9980000  0  6G18G11G19G16G 2G 6
  21671120.006     5532898.844 6   4311338.56121        19.250           1.125
  22438312.373    -9998760.537 6  -7791231.75021        17.500           0.875
  20299156.881    -2376118.610 6  -1851525.47321        18.000           1.469
  22888674.420    -7265195.609 6  -5454971.23121        12.000           0.406
  21435406.686   -15335292.003 7 -11949567.50722        23.250           1.781
  22811115.318    -7735501.834 5  -5838220.59221        10.500           0.500
 91  6 11 17 32 44.9980000  0  6G18G11G19G16G 2G 6
  21677312.865     5565440.300 6   4336695.46321        18.750           1.188
  22434865.131   -10016883.843 6  -7805353.83321        18.000           0.906
  20298927.889    -2377316.469 6  -1852458.89022        18.000           1.500
  22886091.326    -7278766.270 5  -5465545.80621        11.500           0.313
  21426497.498   -15382103.109 7 -11986043.69122        23.250           1.719
  22802428.217    -7781190.119 5  -5873821.82821        11.500           0.563
 91  6 11 17 32 59.9980000  0  6G18G11G19G16G 2G 6
  21683516.397     5598053.867 6   4362108.56021        18.250           1.094
  22431442.334   -10034859.491 6  -7819360.81521        17.750           0.844
  20298712.615    -2378461.362 6  -1853351.03221        17.250           1.438
  22883535.701    -7292203.995 6  -5476016.77221        12.500           0.406
  21417604.232   -15428842.800 7 -12022464.21922        23.250           1.781
  22793726.826    -7826863.850 5  -5909411.72121        11.000           0.500
 91  6 11 17 33 14.9980000  0  6G18G11G19G16G 2G 6
  21689737.248     5630739.773 6   4387578.04421        18.750           1.156
  22428053.100   -10052687.055 6  -7833252.43821        18.500           0.906
  20298502.678    -2379552.913 6  -1854201.59621        17.250           1.344
  22881001.826    -7305508.470 6  -5486383.89021        12.250           0.344
  21408721.678   -15475510.682 7 -12058828.79422        22.750           1.875
  22785045.779    -7872522.762 5  -5944990.09021        11.000           0.438
 91  6 11 17 33 29.9980000  0  6G18G11G19G16G 2G 6
  21695974.811     5663503.049 6   4413107.80821        18.250           1.063
  22424686.787   -10070361.117 6  -7847024.43221        17.500           0.875
  20298309.248    -2380585.541 6  -1855006.26121        18.250           1.438
  22878501.029    -7318674.586 6  -5496643.23221        12.250           0.469
  21399854.600   -15522101.379 7 -12095133.22822        23.250           1.781
  22776352.670    -7918161.521 5  -5980552.73721        10.000           0.406
 91  6 11 17 33 44.9980000  0  6G18G11G19G16G 2G 6
  21702219.232     5696341.576 6   4438696.19621        17.250           1.063
  22421352.912   -10087883.479 6  -7860678.22321        18.000           0.938
  20298122.459    -2381561.151 6  -1855766.49521        18.000           1.375
  22876014.373    -7331704.267 6  -5506796.24121        12.000           0.438
  21391003.209   -15568616.671 7 -12131378.90022        23.250           1.906
  22767672.068    -7963782.029 5  -6016101.17321        10.500           0.438
 91  6 11 17 33 59.9980000  0  6G18G11G19G16G 2G 6
  21708482.584     5729255.549 6   4464343.37521        17.750           0.969
  22418045.295   -10105253.437 6  -7874213.25121        17.000           0.969
  20297945.436    -2382479.228 6  -1856481.89621        18.750           1.469
  22873560.990    -7344597.104 6  -5516842.61721        12.000           0.438
  21382162.756   -15615055.987 7 -12167565.37522        23.000           1.938
  22759002.467    -8009383.709 5  -6051634.93621        11.000           0.500
 91  6 11 17 34 14.9980000  0  6G18G11G19G16G 2G 6
  21714759.178     5762237.969 6   4490043.89521        18.250           1.094
  22414770.584   -10122477.697 6  -7887634.75721        18.250           0.906
  20297783.092    -2383346.447 6  -1857157.67421        17.500           1.406
  22871137.537    -7357359.616 5  -5526787.44021        11.500           0.406
  21373343.553   -15661425.832 7 -12203697.70722        23.500           1.906
  22750321.732    -8054973.434 5  -6087159.37221        10.750           0.344
 91  6 11 17 34 29.9980000  0  6G18G11G19G16G 2G 6
  21721052.811     5795296.559 6   4515803.75721        18.500           1.156
  22411518.459   -10139548.219 6  -7900936.47821        17.500           0.844
  20297625.732    -2384154.955 6  -1857787.70121        18.000           1.375
  22868736.061    -7369983.955 6  -5536624.61221        12.000           0.375
  21364533.303   -15707718.202 7 -12239769.68022        23.250           1.875
  22741653.350    -8100543.233 5  -6122668.29421        10.500           0.500
 91  6 11 17 34 44.9980000  0  6G18G11G19G16G 2G 6
  21727357.451     5828433.179 6   4541624.44121        18.000           1.063
  22408303.904   -10156463.040 6  -7914116.85921        18.000           0.938
  20297484.178    -2384902.739 6  -1858370.40321        17.250           1.281
  22866363.451    -7382468.611 6  -5546352.93821        12.500           0.344
  21355743.295   -15753931.247 7 -12275779.84222        23.750           1.938
  22732988.545    -8146091.197 5  -6158160.22421        11.250           0.438
 91  6 11 17 34 59.9980000  0  6G18G11G19G16G 2G 6
  21733675.865     5861638.885 6   4567498.95121        18.750           1.000
  22405109.592   -10173230.612 6  -7927182.50421        17.250           1.031
  20297355.248    -2385598.319 6  -1858912.43521        17.500           1.375
  22864007.381    -7394822.069 6  -5555979.03621        12.000           0.406
  21346961.303   -15800073.468 7 -12311734.80922        23.750           1.844
  22724323.467    -8191625.902 5  -6193641.79221        11.250           0.438
 91  6 11 17 35 14.9980000  0  6G18G11G19G16G 2G 6
  21740009.318     5894913.029 6   4593426.78321        18.250           1.063
  22401950.647   -10189851.441 6  -7940133.79021        18.000           0.969
  20297231.584    -2386242.311 6  -1859414.26521        18.000           1.250
  22861680.178    -7407045.115 6  -5565503.50421        12.000           0.531
  21338193.209   -15846145.442 7 -12347635.03822        23.500           1.875
  22715650.107    -8237147.922 5  -6229113.49221        10.250           0.438
 91  6 11 17 35 29.9980000  0  6G18G11G19G16G 2G 6
  21746355.897     5928264.157 6   4619414.60521        18.500           1.063
  22398816.162   -10206316.393 6  -7952963.63321        17.250           0.875
  20297122.115    -2386825.812 6  -1859868.96321        18.000           1.250
  22859383.022    -7419128.734 6  -5574919.32521        12.250           0.375
  21329439.240   -15892138.067 7 -12383473.44622        23.500           1.875
  22706996.545    -8282648.332 5  -6264568.34521        10.750           0.594
 91  6 11 17 35 44.9980000  0  6G18G11G19G16G 2G 6
  21752716.139     5961689.154 6   4645460.00021        18.000           1.031
  22395712.568   -10222628.590 6  -7965674.43621        17.500           0.938
  20297019.147    -2387351.926 6  -1860278.94421        18.250           1.313
  22857106.631    -7431076.055 6  -5584228.95521        12.250           0.406
  21320703.826   -15938054.367 7 -12419252.36622        23.750           1.844
  22698334.857    -8328130.282 5  -6300008.80521        10.000           0.625
 91  6 11 17 35 59.9980000  0  6G18G11G19G16G 2G 6
  21759088.803     5995185.329 6   4671560.84521        17.750           1.063
  22392634.834   -10238789.881 6  -7978267.64121        16.500           0.875
  20296930.686    -2387822.492 6  -1860645.64121        18.250           1.313
  22854865.404    -7442888.979 6  -5593433.85121        12.000           0.500
  21311981.459   -15983896.133 7 -12454973.22022        24.250           1.875
  22689688.131    -8373595.654 5  -6335436.35121        10.750           0.563
 91  6 11 17 36 14.9980000  0  6G18G11G19G16G 2G 6
  21765476.256     6028749.559 6   4697714.72721        18.000           1.094
  22389587.537   -10254803.486 6  -7990745.78021        17.000           1.000
  20296850.467    -2388240.720 6  -1860971.55621        18.000           1.281
  22852634.014    -7454571.184 5  -5602536.89421        11.250           0.438
  21303272.147   -16029666.636 7 -12490638.54922        24.250           1.750
  22681045.740    -8419047.795 5  -6370853.61421        10.750           0.500
 91  6 11 17 36 29.9980000  0  6G18G11G19G16G 2G 6
  21771875.943     6062384.328 6   4723923.56421        18.000           1.031
  22386569.522   -10270666.327 6  -8003106.44221        16.750           0.875
  20296778.881    -2388603.600 6  -1861254.34621        18.250           1.344
  22850439.201    -7466119.831 6  -5611535.86621        12.250           0.406
  21294576.373   -16075362.758 7 -12526245.91322        24.250           1.875
  22672395.186    -8464483.770 5  -6406258.25221        10.500           0.438
 91  6 11 17 36 44.9980000  0  6G18G11G19G16G 2G 6
  21778291.279     6096092.822 6   4750189.85021        17.750           1.000
  22383578.982   -10286375.105 6  -8015347.04921        17.500           0.938
  20296722.459    -2388908.009 6  -1861491.56321        18.000           1.344
  22848265.381    -7477531.768 6  -5620428.31021        12.250           0.438
  21285890.154   -16120981.407 7 -12561792.90722        24.000           1.844
  22663750.404    -8509900.472 5  -6441647.88621        10.000           0.563
 91  6 11 17 36 59.9980000  0  6G18G11G19G16G 2G 6
  21784719.482     6129873.165 6   4776512.11821        17.500           1.188
  22380619.342   -10301931.304 6  -8027468.74021        17.500           0.875
  20296674.717    -2389155.379 6  -1861684.34021        18.250           1.281
  22846128.170    -7488808.546 6  -5629215.44421        12.500           0.469
  21277227.115   -16166523.806 7 -12597280.48222        24.000           1.750
  22655115.881    -8555299.252 5  -6477023.55621        10.750           0.656
 91  6 11 17 37 14.9980000  0  6G18G11G19G16G 2G 6
  21791162.717     6163723.243 6   4802888.73821        17.000           1.063
  22377688.443   -10317336.852 6  -8039473.07421        18.000           0.844
  20296639.381    -2389347.660 6  -1861834.18821        18.250           1.281
  22843999.076    -7499952.208 6  -5637898.86421        12.250           0.406
  21268575.522   -16211991.874 7                        24.000
  22646479.037    -8600682.072 5                        10.250
 91  6 11 17 37 29.9980000  0  6G18G11G19G16G 2G 6
  21797617.482     6197644.162 6   4829320.53721        17.500           1.000
  22374785.232   -10332590.440 6  -8051358.97621        17.750           1.031
  20296616.600    -2389483.467 6                        18.750
  22841902.748    -7510961.118 6  -5646477.24821        12.000           0.406
  21259934.982   -16257384.254 7                        23.500
  22637845.201    -8646047.728 5                        10.500
 91  6 11 17 37 44.9980000  0  6G18G11G19G16G 2G 6
  21804085.584     6231636.613 6   4855808.09121        17.500           1.125
  22371913.998   -10347690.865 6  -8063125.53921        18.000           1.000
  20296599.022    -2389561.816 6                        18.500
  22839832.764    -7521834.587 5  -5654950.09821        11.500           0.438
  21251312.600   -16302700.061 7                        23.750
  22629219.436    -8691395.221 5                        10.500
 91  6 11 17 37 59.9980000  0  6G18G11G19G16G 2G 6
  21810570.748     6265702.485 6   4882352.85521        17.750           1.063
  22369069.045   -10362636.042 6  -8074771.12621        17.000           0.875
  20296596.131    -2389580.611 6                        18.250
  22837793.217    -7532570.843 5  -5663316.03921        11.750           0.563
  21242706.631   -16347937.015 7 -12738641.40122        24.500           1.969
  22620589.975    -8736722.427 5  -6618392.24121        11.000           0.625
 91  6 11 17 38 14.9980000  0  6G18G11G19G16G 2G 6
  21817066.045     6299844.123 6   4908956.66221        17.250           1.156
  22366255.232   -10377423.308 6  -8086293.66821        18.000           0.938
  20296604.357    -2389537.153 6                        18.500
  22835778.272    -7543167.406 5  -5671573.13321        11.750           0.469
  21234115.068   -16393092.517 7 -12773827.49522        24.250           1.938
  22611964.740    -8782026.806 5  -6653694.35621        10.500           0.500
 91  6 11 17 38 29.9980000  0  6G18G11G19G16G 2G 6
  21823573.147     6334050.652 6   4935611.02421        17.250           1.125
  22363467.725   -10392063.009 6  -8097701.23721        16.500           0.906
  20296619.529    -2389442.041 6                        18.750
  22833784.818    -7553634.967 6  -5679729.69921        12.000           0.406
  21225533.959   -16438176.969 7 -12808958.22922        23.750           1.813
  22603353.717    -8827318.938 5  -6688986.90221        11.250           0.594
 91  6 11 17 38 44.9980000  0  6G18G11G19G16G 2G 6
  21830093.990     6368319.680 6   4962314.09421        17.250           1.156
  22360712.334   -10406557.360 6  -8108995.52421        17.500           1.000
  20296650.404    -2389297.347 6                        18.000
  22831818.256    -7563975.469 6  -5687787.26721        12.500           0.406
  21216965.131   -16483192.378 7 -12844035.16522        24.250           1.906
  22594735.053    -8872600.937 5  -6724271.57521        11.500           0.625
 91  6 11 17 38 59.9980000  0  6G18G11G19G16G 2G 6
  21836629.811     6402660.634 6   4989073.20421        17.750           1.063
  22357980.318   -10420896.721 6  -8120169.05021        17.250           1.031
  20296689.779    -2389093.582 6                        18.750
  22829879.975    -7574179.655 6  -5695738.59921        12.000           0.469
  21208412.600   -16528129.043 7 -12879050.74522        24.000           1.938
  22586123.482    -8917863.201 5  -6759540.85921        10.750           0.563
 91  6 11 17 39 14.9980000  0  6G18G11G19G16G 2G 6
  21843177.443     6437068.205 6   5015884.23721        17.250           1.125
  22355282.936   -10435086.072 6  -8131225.69221        17.250           1.000
  20296737.826    -2388835.776 6  -1861435.52321        18.250           1.406
  22827966.584    -7584252.386 6  -5703587.50821        12.000           0.375
  21199880.639   -16572992.099 7 -12914008.96222        24.500           1.938
  22577515.084    -8963110.701 5  -6794798.65021        11.500           0.594
 91  6 11 17 39 29.9980000  0  6G18G11G19G16G 2G 6
  21849735.412     6471547.335 6   5042751.00821        16.250           1.094
  22352610.600   -10449120.207 6  -8142161.38121        17.250           1.031
  20296797.811    -2388518.620 6  -1861188.41321        18.500           1.438
  22826065.607    -7594188.897 6  -5711330.27621        12.000           0.438
  21191355.397   -16617776.333 7 -12948905.77022        24.500           1.906
  22568901.584    -9008338.350 5  -6830040.96921        11.000           0.656
 91  6 11 17 39 44.9980000  0  6G18G11G19G16G 2G 6
  21856314.303     6506096.880 6   5069672.65521        17.000           1.094
  22349968.904   -10462999.782 6  -8152976.64921        16.250           0.969
  20296868.272    -2388142.826 6  -1860895.60921        18.500           1.438
  22824199.670    -7603990.033 6  -5718967.54921        12.000           0.500
  21182848.490   -16662482.320 7 -12983741.59422        25.000           1.875
  22560305.139    -9053546.963 5  -6865268.46921        11.500           0.688
 91  6 11 17 39 59.9980000  0  6G18G11G19G16G 2G 6
  21862899.639     6540714.454 6   5096647.32921        16.250           0.906
  22347358.818   -10476727.092 6  -8163673.23821        17.500           0.906
  20296951.928    -2387710.485 6  -1860558.74721        18.250           1.313
  22822366.147    -7613658.186 5  -5726501.20521        11.750           0.469
  21174358.287   -16707112.321 7 -13018518.20822        25.250           1.906
  22551699.295    -9098738.792 5  -6900482.87121        11.500           0.531
 91  6 11 17 40 14.9980000  0  6G18G11G19G16G 2G 6
  21869499.826     6575410.900 6   5123683.45521        16.000           1.125
  22344778.014   -10490290.785 6  -8174242.36521        17.750           0.938
  20297046.772    -2387210.475 6  -1860169.15321        18.250           1.344
  22820553.639    -7623182.301 6  -5733922.62721        12.000           0.469
  21165877.725   -16751655.163 7 -13053226.91622        24.500           1.938
  22543113.037    -9143902.577 5  -6935675.44021        11.750           0.594
 91  6 11 17 40 29.9980000  0  6G18G11G19G16G 2G 6
  21876115.076     6610171.954 6   5150769.92521        16.750           1.031
  22342222.545   -10503705.122 6  -8184695.09921        16.500           0.969
  20297151.740    -2386657.134 6  -1859738.00321        18.250           1.344
  22818765.311    -7632576.644 6  -5741242.93121        12.250           0.469
  21157418.607   -16796124.936 7 -13087878.68222        25.250           1.969
  22534518.436    -9189052.692 5  -6970857.34221        11.500           0.594
 91  6 11 17 40 44.9980000  0  6G18G11G19G16G 2G 6
  21882748.787     6645001.766 6   5177909.97321        17.250           1.063
  22339702.225   -10516965.584 6  -8195027.92921        17.500           0.844
  20297270.553    -2386045.856 6  -1859261.71221        18.000           1.344
  22817003.201    -7641836.759 6  -5748458.62521        12.000           0.406
  21148970.037   -16840517.116 7 -13122469.98322        24.750           2.000
  22525928.498    -9234184.609 6  -7006025.06121        12.250           0.563
 91  6 11 17 40 59.9980000  0  6G18G11G19G16G 2G 6
  21889387.209     6679892.033 6   5205097.11021        17.250           0.938
  22337203.967   -10530079.933 6  -8205246.91321        17.250           0.906
  20297395.670    -2385384.507 6  -1858746.40821        18.250           1.344
  22815263.584    -7650970.844 5  -5755576.13621        11.500           0.500
  21140537.115   -16884839.485 7 -13157006.88622        24.750           2.063
  22517345.022    -9279306.193 6  -7041184.74021        12.000           0.406
 91  6 11 17 41 14.9980000  0  6G18G11G19G16G 2G 6
  21896041.451     6714849.006 6   5232336.23421        17.750           0.938
  22334739.834   -10543041.965 6  -8215347.20321        17.750           0.969
  20297530.631    -2384666.937 6  -1858187.28521        18.000           1.375
  22813551.998    -7659972.474 5  -5762590.41821        11.250           0.344
  21132117.686   -16929085.783 7 -13191484.51422        24.500           2.000
  22508756.787    -9324411.217 5  -7076331.49921        11.250           0.500
 91  6 11 17 41 29.9980000  0  6G18G11G19G16G 2G 6
  21902706.209     6749874.437 6   5259628.70421        17.750           0.969
  22332300.506   -10555849.567 6  -8225327.16421        17.750           0.906
  20297679.693    -2383891.143 6  -1857582.80121        18.250           1.313
  22811863.529    -7668839.979 6  -5769500.20021        12.000           0.375
  21123711.350   -16973253.798 7 -13225901.14522        24.250           2.063
  22500178.850    -9369497.688 5  -7111463.81221        11.500           0.563
 91  6 11 17 41 44.9980000  0  6G18G11G19G16G 2G 6
  21909384.061     6784971.911 6   5286977.30321        16.500           0.969
  22329893.529   -10568498.625 6  -8235183.57621        17.000           0.906
  20297837.068    -2383053.049 6  -1856929.77121        18.250           1.469
  22810200.162    -7677569.396 5  -5776302.37121        11.750           0.375
  21115323.201   -17017339.606 7 -13260253.71022        25.000           2.063
  22491609.850    -9414561.590 6  -7146578.54721        12.000           0.688
 91  6 11 17 41 59.9980000  0  6G18G11G19G16G 2G 6
  21916075.186     6820145.232 6   5314385.00821        17.000           0.906
  22327518.998   -10580985.214 6  -8244913.39021        18.000           1.000
  20298010.842    -2382148.643 6  -1856225.07022        17.750           1.500
  22808564.217    -7686156.641 5  -5782993.76721        11.500           0.375
  21106950.545   -17061339.098 7 -13294539.02722        24.500           2.094
  22483037.936    -9459598.930 6  -7181672.57821        12.000           0.688
 91  6 11 17 42 14.9980000  0  6G18G11G19G16G 2G 6
  21922781.084     6855383.035 6   5341842.96521        16.750           0.844
  22325168.147   -10593320.449 6  -8254525.28421        17.000           1.000
  20298194.842    -2381189.016 6  -1855477.33821        18.000           1.438
  22806957.334    -7694613.234 5  -5789583.35521        11.750           0.406
  21098592.850   -17105263.444 7 -13328765.78322        25.250           2.125
  22474462.826    -9504620.846 5  -7216754.60321        11.750           0.531
 91  6 11 17 42 29.9980000  0  6G18G11G19G16G 2G 6
  21929500.404     6890684.436 6   5369350.48021        17.750           0.969
  22322852.709   -10605505.104 6  -8264019.82621        18.000           0.938
  20298386.631    -2380174.893 6  -1854687.13521        18.000           1.438
  22805378.115    -7702939.929 6  -5796071.72021        12.000           0.375
  21090248.959   -17149113.231 7 -13362934.44022        24.750           2.094
  22465901.607    -9549628.051 5  -7251825.15121        11.500           0.656
 91  6 11 17 42 44.9980000  0  6G18G11G19G16G 2G 6
  21936230.186     6926048.782 6   5396907.03121        17.000           0.813
  22320564.537   -10617539.363 6  -8273397.20721        17.750           1.000
  20298591.311    -2379106.377 6  -1853854.55421        18.000           1.375
  22803817.982    -7711137.416 6  -5802459.40821        12.250           0.438
  21081918.022   -17192888.682 7 -13397045.17922        24.750           2.188
  22457340.225    -9594620.764 6  -7286884.41821        12.000           0.563
 91  6 11 17 42 59.9980000  0  6G18G11G19G16G 2G 6
  21942976.428     6961480.753 6   5424516.27521        19.000           0.906
  22318303.217   -10629418.237 6  -8282653.48021        17.250           0.938
  20298805.623    -2377978.449 6  -1852975.68521        17.500           1.469
  22802278.748    -7719200.607 6  -5808742.44921        12.000           0.375
  21073601.412   -17236584.784 7 -13431094.08422        24.500           2.156
  22448780.287    -9639594.203 6  -7321928.66021        12.000           0.531
 91  6 11 17 43 14.9980000  0  6G18G11G19G16G 2G 6
  21949726.912     6996977.372 6   5452175.91421        16.500           0.813
  22316072.068   -10641144.357 6  -8291790.73921        18.000           1.000
  20299027.467    -2376793.848 6  -1852052.64821        17.750           1.469
  22800766.178    -7727132.503 5  -5814923.17521        11.500           0.406
  21065301.592   -17280204.194 7 -13465083.23022        24.500           2.250
  22440230.561    -9684550.894 6  -7356959.85221        13.000           0.594
 91  6 11 17 43 29.9980000  0  6G18G11G19G16G 2G 6
  21956498.084     7032547.690 6   5479892.95621        17.250           0.813
  22313871.600   -10652708.696 6  -8300801.93321        17.500           0.906
  20299268.592    -2375543.528 6  -1851078.40421        16.750           1.469
  22799289.607    -7734923.985 5  -5820994.49821        11.250           0.375
  21057019.865   -17323737.823 7 -13499005.53022        25.000           2.156
  22431675.686    -9729481.907 6  -7391971.03921        12.250           0.500
 91  6 11 17 43 44.9980000  0  6G18G11G19G16G 2G 6
  21963277.264     7068183.602 6   5507661.13521        16.500           0.844
  22311698.865   -10664118.821 6  -8309692.97221        17.750           0.844
  20299516.420    -2374235.047 6  -1850058.83522        17.750           1.531
  22797834.178    -7742582.785 6  -5826962.42321        12.000           0.469
  21048746.193   -17367193.109 7 -13532866.79222        24.250           2.250
  22423131.451    -9774394.753 6  -7426968.06821        12.500           0.594
 91  6 11 17 43 59.9980000  0  6G18G11G19G16G 2G 6
  21970071.607     7103884.496 6   5535479.92821        16.750           0.906
  22309556.764   -10675375.216 6  -8318464.21221        17.750           0.844
  20299778.232    -2372869.104 6  -1848994.49021        17.250           1.469
  22796396.959    -7750109.497 5  -5832827.42021        11.750           0.406
  21040493.982   -17410570.481 7 -13566667.33322        24.250           2.188
  22414588.084    -9819290.014 6  -7461951.39621        12.750           0.563
 91  6 11 17 44 14.9980000  0  6G18G11G19G16G 2G 6
  21976875.139     7139649.804 6   5563348.94121        15.750           0.906
  22307443.147   -10686477.885 6  -8327115.66121        17.750           0.938
  20300046.662    -2371445.570 6  -1847885.26822        18.000           1.500
  22794992.607    -7757504.392 5  -5838589.72421        11.750           0.438
  21032254.982   -17453870.030 7 -13600407.23422        24.250           2.250
  22406043.975    -9864167.787 6  -7496921.07721        12.500           0.500
 91  6 11 17 44 29.9980000  0  6G18G11G19G16G 2G 6
  21983694.357     7175483.699 6   5591271.38721        16.000           0.813
  22305360.725   -10697422.612 6  -8335644.04221        17.500           0.750
  20300330.795    -2369960.352 6  -1846727.98322        17.750           1.500
  22793610.100    -7764763.556 6  -5844246.24821        12.250           0.438
  21024023.037   -17497087.689 7 -13634083.32622        23.500           2.281
  22397507.373    -9909023.932 6  -7531873.92421        12.750           0.594
 91  6 11 17 44 44.9980000  0  6G18G11G19G16G 2G 6
  21990525.748     7211377.940 6   5619240.85521        15.750           0.781
  22303309.209   -10708217.225 6  -8344055.44921        18.500           0.938
  20300623.318    -2368421.096 6  -1845528.58722        17.750           1.531
  22792250.662    -7771894.817 5  -5849803.11221        11.750           0.438
  21015816.709   -17540231.022 7 -13667701.50022        24.000           2.156
  22388980.701    -9953866.170 6  -7566815.94321        12.500           0.625
 91  6 11 17 44 59.9970000  0  6G18G11G19G16G 2G 6
  21997366.892     7247333.423 6   5647258.03721        15.750           0.906
  22301283.212   -10718857.720 6  -8352346.76721        17.500           0.813
  20300927.517    -2366824.508 6  -1844284.52922        18.250           1.563
  22790918.806    -7778894.377 5  -5855257.34421        11.750           0.344
  21007623.751   -17583293.943 7 -13701257.01722        24.250           2.125
  22380446.720    -9998688.192 6  -7601742.18721        12.500           0.500
 91  6 11 17 45 14.9970000  0  6G18G11G19G16G 2G 6
  22004224.767     7283358.339 6   5675329.33221        16.250           0.813
  22299287.298   -10729341.430 6  -8360515.93021        17.750           0.813
  20301243.485    -2365166.450 6  -1842992.56422        17.750           1.656
  22789620.470    -7785759.516 6  -5860606.83121        12.000           0.438
  20999445.821   -17626278.201 7 -13734751.23522        24.000           2.219
  22371926.321   -10043491.966 6  -7636654.23321        13.000           0.500
 91  6 11 17 45 29.9970000  0  6G18G11G19G16G 2G 6
  22011091.649     7319452.602 6   5703454.65621        15.000           0.875
  22297321.470   -10739665.420 6  -8368560.60121        18.000           0.844
  20301573.657    -2363444.810 6  -1841651.05822        17.250           1.563
  22788334.517    -7792487.596 6  -5865849.53421        12.250           0.469
  20991282.759   -17669178.402 7 -13768179.96022        24.000           2.156
  22363399.907   -10088272.210 6  -7671547.92821        12.750           0.469
 91  6 11 17 45 44.9970000  0  6G18G11G19G16G 2G 6
  22017968.696     7355605.953 6   5731626.01621        15.250           0.875
  22295386.524   -10749839.601 6  -8376488.57921        17.500           0.781
  20301906.517    -2361669.283 6  -1840267.56722        17.500           1.594
  22787073.907    -7799088.817 5  -5870993.37321        11.500           0.406
  20983131.829   -17712004.286 7 -13801550.77922        23.500           2.156
  22354879.907   -10133038.947 6  -7706431.10721        13.750           0.531
 91  6 11 17 45 59.9970000  0  6G18G11G19G16G 2G 6
  22024864.212     7391819.901 6   5759844.60221        15.750           0.844
  22293480.188   -10759862.388 6  -8384298.56921        17.750           0.875
  20302255.563    -2359838.331 6  -1838840.88222        17.500           1.656
  22785851.876    -7805561.562 5  -5876037.12821        11.750           0.438
  20974991.524   -17754754.472 7 -13834862.60222        23.000           2.219
  22346368.399   -10177790.586 6  -7741302.51121        13.500           0.563
 91  6 11 17 46 14.9970000  0  6G18G11G19G16G 2G 6
  22031764.860     7428097.141 6   5788112.49721        15.500           0.844
  22291603.157   -10769730.725 6  -8391988.19321        18.750           0.844
  20302615.649    -2357948.879 6  -1837368.60722        17.000           1.594
  22784644.204    -7811902.716 5  -5880978.31921        11.750           0.469
  20966875.970   -17797425.677 7 -13868112.89522        24.000           2.219
  22337853.532   -10222523.956 6  -7776159.69021        13.000           0.594
 91  6 11 17 46 29.9970000  0  6G18G11G19G16G 2G 6
  22038678.993     7464437.995 6   5816429.97121        15.250           0.813
  22289753.962   -10779443.772 6  -8399556.82721        18.000           0.906
  20302984.399    -2356000.078 6  -1835850.09322        17.500           1.625
  22783458.751    -7818111.999 5  -5885816.73921        11.250           0.313
  20958771.501   -17840017.262 7 -13901301.13322        24.500           2.250
  22329347.071   -10267238.354 6  -7811002.06921        13.250           0.531
 91  6 11 17 46 44.9970000  0  6G18G11G19G16G 2G 6
  22045606.868     7500837.622 6   5844793.23221        15.250           0.750
  22287935.884   -10789006.202 6  -8407008.08521        18.000           0.813
  20303368.493    -2353996.777 6  -1834289.11122        17.000           1.656
  22782294.071    -7824193.996 5  -5890555.99521        11.250           0.375
  20950679.384   -17882533.834 7 -13934430.92522        24.750           2.219
  22320835.587   -10311938.396 6  -7845833.27021        12.750           0.531
 91  6 11 17 46 59.9970000  0  6G18G11G19G16G 2G 6
  22052547.696     7537298.414 6   5873204.15521        15.250           0.875
  22286145.149   -10798415.451 6  -8414339.99721        18.500           0.688
  20303759.407    -2351936.170 6  -1832683.47522        17.500           1.719
  22781168.665    -7830146.421 5  -5895194.28221        11.250           0.469
  20942603.470   -17924972.759 7 -13967500.21122        23.750           2.094
  22312337.931   -10356621.550 6  -7880651.31021        13.500           0.563
 91  6 11 17 47 14.9970000  0  6G18G11G19G16G 2G 6
  22059498.056     7573826.861 6   5901667.78821        15.000           0.688
  22284385.032   -10807664.732 6  -8421547.24821        18.250           0.781
  20304166.360    -2349811.651 6  -1831028.04422        17.500           1.594
  22780065.946    -7835962.593 5  -5899726.40421        11.000           0.406
  20934544.571   -17967327.248 7 -14000503.70622        24.000           2.125
  22303841.517   -10401281.062 6  -7915450.92321        14.000           0.656
 91  6 11 17 47 29.9970000  0  6G18G11G19G16G 2G 6
  22066460.407     7610416.281 6   5930178.94721        15.500           0.781
  22282652.173   -10816760.590 6  -8428634.94021        18.000           0.750
  20304580.228    -2347629.711 6  -1829327.86522        16.750           1.594
  22778981.149    -7841649.232 5  -5904157.59321        11.500           0.438
  20926498.360   -18009603.684 7 -14033446.38122        24.000           2.250
  22295342.204   -10445923.342 6  -7950237.12121        13.500           0.531
 91  6 11 17 47 44.9970000  0  6G18G11G19G16G 2G 6
  22073431.798     7647065.054 6   5958736.36221        14.750           0.813
  22280950.110   -10825704.392 6  -8435604.15721        17.500           0.813
  20305005.415    -2345391.524 6  -1827583.85622        17.000           1.625
  22777920.079    -7847207.949 5  -5908489.09421        11.500           0.438
  20918468.704   -18051803.542 7 -14066329.37722        24.250           2.250
  22286848.993   -10490549.930 6  -7985011.07021        13.000           0.563
 91  6 11 17 47 59.9970000  0  6G18G11G19G16G 2G 6
  22080421.954     7683777.416 6   5987343.31221        15.500           0.813
  22279277.329   -10834491.467 6  -8442451.23421        18.000           0.781
  20305443.915    -2343092.346 6  -1825792.33022        17.250           1.563
  22776889.282    -7852634.332 5  -5912717.47221        10.500           0.313
  20910456.798   -18093921.903 7 -14099148.88222        24.000           2.188
  22278360.657   -10535156.012 6  -8019769.05821        13.000           0.625
 91  6 11 17 48 14.9970000  0  6G18G11G19G16G 2G 6
  22087416.688     7720544.787 6   6015993.14421        15.750           0.750
  22277633.149   -10843130.332 6  -8449182.83721        18.000           0.813
  20305891.423    -2340740.718 6  -1823959.92022        17.250           1.563
  22775878.313    -7857936.865 5  -5916849.35721        10.250           0.313
  20902453.899   -18135967.160 7 -14131911.41822        24.000           2.156
  22269876.407   -10579750.095 6  -8054517.70321        13.000           0.563
 91  6 11 17 48 29.9970000  0  6G18G11G19G16G 2G 6
  22094421.767     7757370.516 6   6044688.43121        14.750           0.750
  22276017.813   -10851617.340 6  -8455796.09821        18.250           0.813
  20306349.603    -2338332.957 6  -1822083.77922        17.500           1.531
  22774893.040    -7863111.868 5  -5920881.85321        10.750           0.406
  20894464.142   -18177935.670 7 -14164614.14722        23.500           2.094
  22261395.587   -10624328.543 6  -8089254.15021        13.250           0.656
 91  6 11 17 48 44.9970000  0  6G18G11G19G16G 2G 6
  22101442.454     7794242.721 6   6073419.93021        15.500           0.688
  22274432.978   -10859964.108 6  -8462300.06921        18.750           0.750
  20306816.946    -2335880.704 6  -1820172.96922        17.250           1.563
  22773932.267    -7868171.293 5  -5924824.29421        11.000           0.438
  20886492.204   -18219839.068 7 -14197266.15222        23.000           2.156
  22252909.274   -10668903.001 6  -8123987.49821        13.500           0.531
 91  6 11 17 48 59.9970000  0  6G18G11G19G16G 2G 6
  22108469.868     7831176.588 6   6102199.48621        15.500           0.719
  22272869.329   -10868155.093 6  -8468682.65421        17.250           0.781
  20307292.899    -2333368.206 6  -1818215.21122        18.000           1.563
  22772995.126    -7873099.616 5  -5928664.58821        11.000           0.438
  20878536.853   -18261661.822 7 -14229855.30822        23.500           2.156
  22244429.759   -10713457.788 6  -8158705.50921        13.250           0.531
 91  6 11 17 49 14.9970000  0  6G18G11G19G16G 2G 6
  22115508.165     7868176.407 6   6131030.44021        14.750           0.781
  22271341.415   -10876185.907 6  -8474940.43621        18.000           0.781
  20307785.798    -2330791.146 6  -1816207.15022        18.000           1.500
  22772078.181    -7877892.607 5  -5932399.40421        10.500           0.469
  20870589.462   -18303399.275 7 -14262377.99922        23.000           2.094
  22235956.688   -10757988.612 6  -8193404.85421        13.500           0.531
 91  6 11 17 49 29.9970000  0  6G18G11G19G16G 2G 6
  22122563.009     7905234.381 6   6159906.70921        15.250           0.781
  22269845.032   -10884064.087 6  -8481079.27721        18.500           0.844
  20308285.548    -2328157.037 6  -1814154.63522        17.500           1.656
  22771196.329    -7882557.645 5  -5936034.55421        10.750           0.406
  20862666.329   -18345058.855 7 -14294840.01022        23.750           2.125
  22227487.751   -10802502.993 6  -8228091.39221        13.250           0.594
 91  6 11 17 49 44.9970000  0  6G18G11G19G16G 2G 6
  22129625.524     7942345.930 6   6188824.72421        14.750           0.656
  22268374.040   -10891793.850 6  -8487102.47321        18.500           0.781
  20308798.493    -2325470.028 6  -1812060.89722        18.000           1.563
  22770335.938    -7887099.440 5  -5939573.63921        10.750           0.438
  20854749.860   -18386644.826 7 -14327244.66722        23.250           2.063
  22219018.462   -10847005.044 6  -8262768.31121        13.750           0.563
 91  6 11 17 49 59.9970000  0  6G18G11G19G16G 2G 6
  22136695.571     7979514.935 6   6217787.51521        14.500           0.781
  22266930.970   -10899371.162 6  -8493006.87321        17.250           0.844
  20309318.673    -2322725.945 6  -1809922.68621        17.500           1.469
  22769492.368    -7891514.365 5  -5943013.86521        10.750           0.438
  20846852.532   -18428153.272 7 -14359588.91322        24.250           2.031
  22210559.931   -10891490.665 6  -8297432.42521        14.750           0.531
 91  6 11 17 50 14.9970000  0  6G18G11G19G16G 2G 6
  22143781.017     8016739.266 6   6246793.41121        14.250           0.813
  22265517.993   -10906797.859 6  -8498793.88221        17.750           0.750
  20309852.306    -2319926.646 6  -1807741.45222        17.750           1.594
  22768673.868    -7895804.040 5  -5946356.52721        10.750           0.313
  20838967.978   -18469585.858 7 -14391874.04022        24.000           2.094
  22202090.603   -10935961.706 6  -8332085.19821        14.250           0.625
 91  6 11 17 50 29.9970000  0  6G18G11G19G16G 2G 6
  22150874.462     8054018.562 6   6275842.12921        14.250           0.688
  22264134.149   -10914074.074 6  -8504463.66321        17.500           0.719
  20310394.829    -2317072.245 6  -1805517.28021        18.250           1.469
  22767881.751    -7899969.001 5  -5949601.96221        10.250           0.375
  20831096.306   -18510942.705 7 -14424100.15322        24.000           2.156
  22193630.321   -10980418.328 6  -8366726.73221        14.000           0.563
 91  6 11 17 50 44.9970000  0  6G18G11G19G16G 2G 6
  22157983.978     8091359.764 6   6304939.11621        14.750           0.781
  22262783.470   -10921192.883 6  -8510010.77021        18.500           0.750
  20310951.149    -2314155.701 6  -1803244.68922        18.500           1.594
  22767109.923    -7904002.316 5  -5952744.84821         9.750           0.469
  20823244.563   -18552216.671 7 -14456261.68922        24.000           2.219
  22185177.899   -11024853.546 6  -8401351.56121        14.250           0.594
 91  6 11 17 50 59.9970000  0  6G18G11G19G16G 2G 6
  22165098.587     8128757.970 6   6334080.51821        13.750           0.750
  22261453.478   -10928158.557 6  -8515438.55121        17.500           0.688
  20311512.657    -2311181.452 6  -1800927.13022        18.750           1.563
  22766373.806    -7907908.746 5  -5955788.85221        10.500           0.406
  20815405.821   -18593412.149 7 -14488362.05922        24.500           2.281
  22176727.610   -11069271.742 6  -8435963.16421        14.250           0.438
 91  6 11 17 51 14.9970000  0  6G18G11G19G16G 2G 6
  22172228.149     8166208.063 6   6363262.30921        14.500           0.625
  22260157.040   -10934976.162 6  -8520750.97321        18.000           0.688
  20312091.946    -2308154.369 6  -1798568.40222        18.250           1.563
  22765652.985    -7911693.069 5  -5958737.72421        10.000           0.438
  20807580.095   -18634534.047 7 -14520405.09722        24.250           2.375
  22168272.165   -11113677.801 6  -8470565.27921        13.500           0.500
 91  6 11 17 51 29.9970000  0  6G18G11G19G16G 2G 6
  22179360.868     8203713.400 6   6392487.17821        14.000           0.719
  22258887.540   -10941641.953 6  -8525945.07221        17.250           0.844
  20312679.938    -2305070.727 6  -1796165.60022        18.500           1.625
  22764959.634    -7915351.643 5  -5961588.60121        10.500           0.438
  20799769.720   -18675578.621 7 -14552387.87922        24.250           2.313
  22159823.056   -11158068.032 6  -8505155.06821        13.750           0.594
 91  6 11 17 51 44.9970000  0  6G18G11G19G16G 2G 6
  22186507.665     8241280.094 6   6421759.85421        13.500           0.656
  22257650.478   -10948149.754 6  -8531016.08521        18.000           0.719
  20313277.829    -2301924.149 6  -1793713.75422        18.500           1.531
  22764278.587    -7918878.786 5  -5964337.07421        10.500           0.344
  20791973.063   -18716539.583 7 -14584305.50722        23.750           2.438
  22151383.157   -11202436.076 6  -8539727.57421        14.500           0.500
 91  6 11 17 51 59.9970000  0  6G18G11G19G16G 2G 6
  22193671.712     8278901.542 6   6451075.17821        14.500           0.656
  22256439.603   -10954506.049 6  -8535969.02221        18.000           0.844
  20313888.610    -2298721.085 6  -1791217.89622        18.500           1.563
  22763640.407    -7922280.892 5  -5966988.08621        10.250           0.438
  20784196.384   -18757423.370 7 -14616163.00022        24.000           2.281
  22142941.392   -11246788.369 6  -8574287.80521        13.750           0.438
 91  6 11 17 52 14.9970000  0  6G18G11G19G16G 2G 6
  22200840.431     8316577.762 6   6480433.17421        14.500           0.656
  22255262.634   -10960710.497 6  -8540803.63521        18.000           0.813
  20314507.399    -2295461.174 6  -1788677.74022        18.250           1.594
  22763020.462    -7925557.772 5  -5969541.54921        10.250           0.438
  20776429.134   -18798229.462 7 -14647959.94922        24.250           2.438
  22134503.767   -11291124.540 6  -8608835.47421        13.250           0.438
 91  6 11 17 52 29.9970000  0  6G18G11G19G16G 2G 6
  22208019.126     8354311.375 6   6509835.89821        13.750           0.656
  22254106.579   -10966760.058 6  -8545517.56921        17.750           0.719
  20315137.290    -2292141.326 6  -1786090.88222        18.500           1.625
  22762412.892    -7928706.325 5  -5971994.99021         9.500           0.344
  20768682.728   -18838954.744 7 -14679693.93222        24.750           2.344
  22126072.970   -11335441.457 6  -8643368.13721        14.250           0.531
 91  6 11 17 52 44.9970000  0  6G18G11G19G16G 2G 6
  22215204.946     8392100.484 6   6539281.84421        12.250           0.656
  22252987.759   -10972656.666 6  -8550112.30921        18.500           0.781
  20315783.220    -2288763.333 6  -1783458.72121        18.750           1.469
  22761841.868    -7931728.961 5  -5974350.32721        10.250           0.469
  20760947.149   -18879601.109 7 -14711366.42022        24.750           2.313
  22117640.165   -11379741.062 6  -8677887.32221        14.000           0.406
 91  6 11 17 52 59.9970000  0  6G18G11G19G16G 2G 6
  22222410.048     8429944.308 6   6568770.43321        13.750           0.656
  22251895.470   -10978400.692 6  -8554588.16921        18.250           0.781
  20316436.649    -2285327.297 6  -1780781.32322        18.250           1.500
  22761289.196    -7934625.862 5  -5976607.68721        10.250           0.344
  20753225.071   -18920168.750 7 -14742977.56122        25.250           2.281
  22109212.118   -11424023.697 6  -8712393.25721        13.750           0.531
 91  6 11 17 53 14.9970000  0  6G18G11G19G16G 2G 6
  22229624.188     8467852.886 6   6598309.49021        13.750           0.719
  22250826.306   -10983982.122 6  -8558937.31121        17.500           0.719
  20317103.079    -2281823.303 6  -1778050.96622        18.500           1.563
  22760765.110    -7937387.289 5  -5978759.50421        10.250           0.438
  20745518.993   -18960647.660 7 -14774519.56922        24.500           2.281
  22100794.274   -11468279.160 6  -8746878.04721        14.250           0.500
 91  6 11 17 53 29.9970000  0  6G18G11G19G16G 2G 6
  22236848.470     8505817.293 6   6627892.04221        13.250           0.688
  22249800.532   -10989409.240 6  -8563166.21721        18.000           0.719
  20317783.134    -2278259.737 6  -1775274.19922        18.750           1.563
  22760262.853    -7940021.838 5  -5980812.43621         9.750           0.406
  20737837.188   -19001046.132 7 -14805998.90022        25.750           2.281
  22092374.821   -11512515.869 6  -8781348.20821        13.750           0.531
 91  6 11 17 53 44.9970000  0  6G18G11G19G16G 2G 6
  22244087.095     8543836.911 6   6657517.60921        13.750           0.719
  22248792.563   -10994682.748 6  -8567275.43721        17.250           0.813
  20318472.087    -2274637.159 6  -1772451.44122        18.750           1.594
  22759780.212    -7942530.321 5  -5982767.12621         9.750           0.438
  20730163.642   -19041364.687 7 -14837415.95522        25.250           2.313
  22083959.329   -11556734.465 6  -8815804.25721        14.250           0.438
 91  6 11 17 53 59.9970000  0  6G18G11G19G16G 2G 6
  22251328.540     8581910.017 6   6687184.86821        13.750           0.656
  22247822.259   -10999804.249 6  -8571266.19621        17.750           0.656
  20319169.134    -2270956.917 6  -1769583.75822        18.500           1.594
  22759329.438    -7944914.477 5  -5984624.94721         9.750           0.344
  20722504.923   -19081604.758 7 -14868771.85622        25.250           2.344
  22075549.353   -11600936.408 6  -8850247.35221        14.250           0.563
 91  6 11 17 54 14.9970000  0  6G18G11G19G16G 2G 6
  22258586.774     8620043.422 6   6716899.10021        13.750           0.719
  22246873.821   -11004766.712 6  -8575133.04221        17.750           0.813
  20319884.423    -2267212.026 6  -1766665.68722        18.500           1.531
  22758896.751    -7947167.514 5  -5986380.61121         9.750           0.375
  20714861.853   -19121759.384 7 -14900061.17022        25.250           2.438
  22067144.087   -11645114.591 6  -8884671.90721        14.500           0.469
 91  6 11 17 54 29.9970000  0  6G18G11G19G16G 2G 6
  22265851.853     8658231.075 6   6746655.60021        14.000           0.625
  22245959.149   -11009575.802 6  -8578880.37421        17.500           0.750
  20320609.376    -2263408.066 6  -1763701.60022        18.500           1.594
  22758496.587    -7949294.947 5  -5988038.37021        10.000           0.406
  20707237.040   -19161834.261 7 -14931288.33722        25.000           2.438
  22058736.313   -11689274.632 6  -8919082.32321        14.750           0.563
 91  6 11 17 54 44.9970000  0  6G18G11G19G16G 2G 6
  22273130.103     8696476.407 6   6776457.09021        13.500           0.688
  22245074.181   -11014227.963 6  -8582505.42421        18.000           0.688
  20321342.673    -2259541.397 6  -1760688.64322        18.500           1.656
  22758119.642    -7951293.330 5  -5989595.61021         9.750           0.375
  20699627.384   -19201825.656 7 -14962450.46423        25.250           2.531
  22050341.696   -11733412.836 6  -8953475.73621        14.750           0.469
 91  6 11 17 54 59.9970000  0  6G18G11G19G16G 2G 6
  22280421.454     8734775.173 6   6806300.18821        14.000           0.656
  22244219.853   -11018727.171 6  -8586011.29721        17.750           0.688
  20322091.618    -2255616.049 6  -1757629.95921        18.500           1.469
  22757754.884    -7953166.931 5  -5991055.57621         9.500           0.344
  20692032.173   -19241737.504 7 -14993550.61223        25.000           2.500
  22041943.165   -11777533.256 6  -8987855.28121        14.750           0.563
 91  6 11 17 55 14.9970000  0  6G18G11G19G16G 2G 6
  22287719.470     8773125.166 6   6836183.20421        14.500           0.719
  22243388.798   -11023075.221 6  -8589399.38321        17.500           0.719
  20322849.751    -2251633.483 6  -1754526.69422        18.500           1.656
  22757429.431    -7954917.849 5  -5992419.97821        10.000           0.375
  20684452.360   -19281571.583 7 -15024590.15523        25.250           2.563
  22033553.274   -11821637.517 6  -9022222.24321        14.750           0.500
 91  6 11 17 55 29.9970000  0  6G18G11G19G16G 2G 6
  22295025.634     8811523.750 6   6866104.08921        13.500           0.688
  22242592.759   -11027274.871 6  -8592671.84521        17.750           0.875
  20323615.142    -2247596.607 6  -1751381.10722        18.000           1.688
  22757111.767    -7956548.788 5  -5993690.88521         9.750           0.344
  20676886.665   -19321330.360 7 -15055571.01823        25.500           2.594
  22025156.517   -11865728.395 6  -9056578.77021        14.750           0.531
 91  6 11 17 55 44.9970000  0  6G18G11G19G16G 2G 6
  22302339.938     8849980.699 6   6896070.45421        13.750           0.625
  22241823.720   -11031316.369 6  -8595821.04821        17.750           0.750
  20324396.563    -2243495.386 6  -1748185.36922        18.000           1.656
  22756832.563    -7958050.218 5  -5994860.85721        10.500           0.375
  20669338.001   -19361003.871 7 -15086485.43823        25.250           2.563
  22016776.923   -11909795.923 6  -9090917.10521        15.000           0.500
 91  6 11 17 55 59.9970000  0  6G18G11G19G16G 2G 6
  22309674.767     8888489.321 6   6926077.07321        14.250           0.656
  22241082.798   -11035205.650 6  -8598851.65621        18.000           0.906
  20325190.821    -2239335.678 6  -1744944.07222        17.250           1.594
  22756567.313    -7959428.336 5  -5995934.76721        10.500           0.469
  20661804.321   -19400598.066 7 -15117338.05423        25.250           2.500
  22008395.681   -11953845.948 6  -9125241.79921        15.250           0.594
 91  6 11 17 56 14.9970000  0  6G18G11G19G16G 2G 6
  22317012.751     8927051.591 6   6956125.48121        14.000           0.688
  22240370.415   -11038940.897 6  -8601762.23521        17.750           0.750
  20325993.837    -2235115.548 6  -1741655.68422        18.250           1.656
  22756328.462    -7960680.904 5  -5996910.83121         9.750           0.281
  20654282.517   -19440111.011 7 -15148127.36423        25.250           2.563
  22000014.548   -11997876.608 6  -9159551.41121        15.000           0.625
 91  6 11 17 56 29.9970000  0  6G18G11G19G16G 2G 6
  22324359.485     8965662.993 6   6986212.17821        13.750           0.719
  22239689.884   -11042526.131 6  -8604555.92921        18.250           0.750
  20326805.290    -2230838.930 6  -1738323.28122        17.250           1.625
  22756114.915    -7961812.094 5  -5997792.29521        10.000           0.281
  20646778.767   -19479546.529 7 -15178856.33523        25.500           2.594
  21991638.681   -12041891.968 6  -9193849.10121        15.250           0.500
 91  6 11 17 56 44.9970000  0  6G18G11G19G16G 2G 6
  22331710.782     9004321.451 6   7016335.55921        12.750           0.594
  22239036.282   -11045963.507 6  -8607234.40421        18.250           0.906
  20327627.165    -2226508.146 6  -1734948.66922        17.250           1.531
  22755925.259    -7962824.653 5  -5998581.34621        10.250           0.375
  20639286.017   -19518907.013 7 -15209526.84323        25.250           2.594
  21983271.853   -12085893.988 6  -9228136.38921        16.000           0.500
 91  6 11 17 56 59.9970000  0  6G18G11G19G16G 2G 6
  22339084.267     9043031.179 6   7046498.85021        13.250           0.656
  22238411.657   -11049248.460 6  -8609794.10721        18.500           0.906
  20328465.446    -2222118.404 6  -1731528.11722        17.250           1.688
  22755757.188    -7963714.070 5  -5999274.43221        10.500           0.344
  20631810.759   -19558187.700 7 -15240135.16923        25.000           2.563
  21974898.134   -12129878.074 6  -9262409.70621        15.250           0.594
 91  6 11 17 57 14.9970000  0  6G18G11G19G16G 2G 6
  22346456.517     9081795.309 6   7076704.56321        13.500           0.625
  22237813.962   -11052377.540 6  -8612232.36021        17.500           0.844
  20329311.048    -2217666.020 6  -1728058.76022        17.250           1.781
  22755606.759    -7964477.030 5  -5999868.99321        10.250           0.344
  20624356.821   -19597384.962 7 -15270678.48623        25.750           2.563
  21966531.759   -12173840.614 6  -9296666.22821        15.250           0.531
 91  6 11 17 57 29.9970000  0  6G18G11G19G16G 2G 6
  22353845.103     9120611.594 6   7106950.91321        13.000           0.594
  22237249.353   -11055353.249 6  -8614551.10221        18.000           0.844
  20330171.118    -2213153.466 6  -1724542.51022        17.250           1.750
  22755486.985    -7965116.141 5  -6000367.06221        10.250           0.406
  20616913.220   -19636501.208 7 -15301158.67223        26.250           2.563
  21958166.290   -12217783.953 6  -9330907.80021        15.250           0.563
 91  6 11 17 57 44.9970000  0  6G18G11G19G16G 2G 6
  22361240.470     9159478.775 5   7137236.90921        11.750           0.500
  22236711.696   -11058176.299 6  -8616750.89221        18.250           0.875
  20331042.649    -2208581.254 6  -1720979.78222        17.500           1.719
  22755388.181    -7965632.290 5  -6000769.29121        10.000           0.375
  20609486.493   -19675537.192 7 -15331576.32123        26.000           2.594
  21949810.009   -12261708.881 6  -9365135.01521        15.250           0.563
 91  6 11 17 57 59.9970000  0  6G18G11G19G16G 2G 6
  22368648.212     9198393.833 6   7167560.20121        13.000           0.563
  22236202.438   -11060849.467 6  -8618833.89421        17.250           0.813
  20331923.524    -2203952.231 6  -1717372.78022        16.250           1.750
  22755317.181    -7966028.550 5  -6001078.09921        10.500           0.406
  20602071.470   -19714495.544 7 -15361933.47523        26.250           2.594
  21941455.220   -12305618.034 6  -9399349.93821        15.000           0.531
 91  6 11 17 58 14.9970000  0  6G18G11G19G16G 2G 6
  22376060.368     9237352.186 6   7197917.25621        12.250           0.531
  22235726.345   -11063377.157 6  -8620803.53621        19.000           0.750
  20332814.923    -2199270.751 6  -1713724.90722        17.500           1.688
  22755254.954    -7966309.336 5  -6001296.94421         9.750           0.375
  20594670.868   -19753380.452 7 -15392233.40023        25.500           2.594
  21933103.915   -12349515.745 6  -9433555.94521        15.500           0.500
 91  6 11 17 58 29.9970000  0  6G18G11G19G16G 2G 6
  22383482.220     9276361.349 6   7228313.88721        12.250           0.531
  22235271.165   -11065751.705 6  -8622653.85421        18.500           0.875
  20333716.837    -2194529.013 6  -1710030.07822        17.250           1.656
  22755235.353    -7966467.031 5                        10.000
  20587287.251   -19792184.081 7 -15422469.99323        25.250           2.563
  21924747.618   -12393394.256 6  -9467746.99621        15.250           0.500
 91  6 11 17 58 44.9970000  0  6G18G11G19G16G 2G 6
  22390912.149     9315415.793 5   7258745.80321        11.750           0.563
  22234847.392   -11067978.638 6  -8624389.13521        18.500           0.844
  20334626.384    -2189732.470 6  -1706292.54322        17.000           1.781
  22755217.017    -7966507.206 5                        10.000
  20579918.829   -19830911.915 7 -15452647.52623        26.250           2.719
  21916398.181   -12437258.893 6  -9501927.23321        15.000           0.500
 91  6 11 17 58 59.9970000  0  6G18G11G19G16G 2G 6
  22398354.720     9354517.806 5   7289214.77221        11.750           0.594
  22234452.563   -11070055.045 6  -8626007.14621        18.750           0.813
  20335551.040    -2184878.075 6  -1702509.92522        17.500           1.750
  22755236.938    -7966427.186 5                        10.250
  20572561.087   -19869561.089 7 -15482763.76623        25.250           2.750
  21908060.501   -12481106.713 6  -9536094.37021        15.750           0.563
 91  6 11 17 59 14.9970000  0  6G18G11G19G16G 2G 6
  22405804.251     9393671.776 5   7319724.22721        11.500           0.688
  22234086.798   -11071976.888 6  -8627504.70121        18.500           0.813
  20336483.298    -2179961.515 6  -1698678.87622        16.500           1.688
  22755273.657    -7966222.930 5                        10.500
  20565221.579   -19908127.390 7 -15512815.42923        25.750           2.750
  21899717.095   -12524933.528 6  -9570245.13921        15.500           0.594
 91  6 11 17 59 29.9970000  0  6G18G11G19G16G 2G 6
  22413266.946     9432874.052 6   7350271.33421        12.500           0.500
  22233748.829   -11073747.303 6  -8628884.26221        18.000           0.844
  20337433.806    -2174985.888 6  -1694801.80322        17.000           1.656
  22755330.798    -7965897.699 5                        10.500
  20557900.290   -19946613.864 7 -15542804.89123        26.250           2.688
  21891384.235   -12568742.387 6  -9604381.91321        15.000           0.500
 91  6 11 17 59 44.9970000  0  6G18G11G19G16G 2G 6
  22420734.845     9472124.274 5   7380855.83721        11.750           0.500
  22233441.345   -11075366.650 6  -8630146.11121        18.250           0.906
  20338392.712    -2169951.210 6  -1690878.70622        16.750           1.750
  22755425.673    -7965451.816 5  -6000629.01421        10.250           0.375
  20550592.392   -19985020.581 7 -15572732.20623        26.250           2.688
  21883050.118   -12612533.412 6  -9638504.79721        15.500           0.500
 91  6 11 17 59 59.9970000  0  6G18G11G19G16G 2G 6
  22428215.665     9511426.790 6   7411481.04221        12.500           0.594
  22233161.696   -11076830.258 6  -8631286.61821        18.500           0.938
  20339361.759    -2164852.844 6  -1686905.99022        16.500           1.813
  22755524.782    -7964880.974 5  -6000184.24621        10.250           0.406
  20543297.204   -20023342.874 7 -15602593.74023        26.000           2.625
  21874721.071   -12656302.009 6  -9672610.19421        15.500           0.563
 91  6 11 18  0 14.9970000  0  6G18G11G19G16G 2G 6
  22435699.431     9550771.610 6   7442139.22321        12.000           0.563
  22232913.790   -11078147.898 6  -8632313.36321        18.750           0.875
  20340342.556    -2159700.613 6  -1682891.29022        16.250           1.594
  22755662.751    -7964195.093 5  -5999649.83921        11.250           0.313
  20536022.470   -20061590.522 7 -15632397.11023        26.250           2.688
  21866392.024   -12700057.755 6  -9706705.58921        15.250           0.531
 91  6 11 18  0 29.9970000  0  6G18G11G19G16G 2G 6
  22443199.524     9590166.167 6   7472836.16821        14.000           0.625
  22232688.298   -11079312.019 6  -8633220.50521        18.250           0.875
  20341333.251    -2154486.773 6  -1678828.59022        16.500           1.813
  22755817.040    -7963386.869 5  -5999020.10821        10.500           0.281
  20528753.813   -20099755.883 7 -15662136.35623        25.250           2.563
  21858073.610   -12743793.057 6  -9740785.03621        15.500           0.531
 91  6 11 18  0 44.9970000  0  6G18G11G19G16G 2G 6
  22450705.251     9629610.720 6   7503572.07321        13.000           0.469
  22232495.618   -11080322.258 6  -8634007.72521        18.500           0.969
  20342338.188    -2149210.605 6  -1674717.32722        16.500           1.719
  22756000.493    -7962455.993 5  -5998294.76921        10.750           0.438
  20521512.298   -20137838.270 7 -15691810.94522        26.000           2.469
  21849753.181   -12787507.321 6  -9774848.10221        15.250           0.469
 91  6 11 18  0 59.9970000  0  6G18G11G19G16G 2G 6
  22458218.446     9669099.602 6   7534342.50021        13.250           0.594
  22232334.470   -11081183.851 6  -8634679.12321        18.500           0.938
  20343352.501    -2143877.414 6  -1670561.62522        16.750           1.625
  22756190.634    -7961407.827 5  -5997478.05721        11.000           0.469
  20514276.759   -20175842.928 7 -15721424.96523        25.000           2.688
  21841435.228   -12831205.701 6  -9808898.79021        15.750           0.594
 91  6 11 18  1 14.9970000  0  6G18G11G19G16G 2G 6
  22465740.985     9708636.296 6   7565150.19521        13.500           0.594
  22232198.017   -11081893.630 6  -8635232.22021        18.750           0.969
  20344380.415    -2138483.992 6  -1666358.99422        16.750           1.781
  22756412.540    -7960239.316 5  -5996567.57421        10.750           0.344
  20507062.259   -20213766.472 7 -15750975.78523        25.500           2.531
  21833120.720   -12874884.852 6  -9842934.49621        15.000           0.500
 91  6 11 18  1 29.9970000  0  6G18G11G19G16G 2G 6
  22473275.821     9748216.919 6   7595992.13321        12.500           0.594
  22232092.103   -11082454.995 6  -8635669.68021        19.000           0.969
  20345413.415    -2133033.586 6  -1662111.95122        17.000           1.719
  22756660.134    -7958953.772 5  -5995565.88521        10.750           0.375
  20499858.509   -20251612.350 7 -15780466.07723        25.250           2.563
  21824823.212   -12918548.161 6  -9876957.86521        16.250           0.500
 91  6 11 18  1 44.9970000  0  6G18G11G19G16G 2G 6
  22480818.892     9787845.831 6   7626871.66621        13.250           0.438
  22232015.399   -11082863.558 6  -8635988.06121        19.000           0.969
  20346467.532    -2127521.638 6  -1657816.96822        17.000           1.656
  22756925.056    -7957547.130 5  -5994469.82121        10.750           0.219
  20492674.056   -20289375.815 7 -15809892.15623        25.250           2.531
  21816513.188   -12962191.063 6  -9910965.31121        15.750           0.563
 91  6 11 18  1 59.9970000  0  6G18G11G19G16G 2G 6
  22488363.728     9827519.008 6   7657785.70521        13.250           0.469
  22231965.806   -11083122.992 6  -8636190.24921        19.000           0.969
  20347524.985    -2121951.767 6  -1653476.84222        17.000           1.719
  22757218.579    -7956023.297 5  -5993282.45921        10.750           0.375
  20485505.009   -20327060.554 7 -15839256.88123        25.500           2.563
  21808211.556   -13005817.145 6  -9944959.67421        15.750           0.531
 91  6 11 18  2 14.9970000  0  6G18G11G19G16G 2G 6
  22495925.978     9867242.498 6   7688738.97021        13.000           0.344
  22231945.563   -11083226.803 6                        18.750
  20348599.884    -2116317.486 6  -1649086.52622        17.000           1.688
  22757534.970    -7954375.817 5  -5991998.74621        10.750           0.344
  20478347.931   -20364660.207 7 -15868555.31022        25.000           2.469
  21799908.228   -13049419.910 6  -9978935.84921        15.750           0.563
 91  6 11 18  2 29.9970000  0  6G18G11G19G16G 2G 6
  22503494.204     9907006.545 6   7719723.82621        13.000           0.531
  22231960.196   -11083185.093 6                        19.500
  20349682.220    -2110628.439 6  -1644653.53722        16.750           1.625
  22757866.970    -7952614.816 5  -5990626.59421        10.750           0.250
  20471210.071   -20402184.431 7 -15897794.96422        25.750           2.344
  21791619.563   -13093009.109 6 -10012901.46621        15.750           0.563
 91  6 11 18  2 44.9970000  0  6G18G11G19G16G 2G 6
  22511064.392     9946814.068 6   7750742.53821        12.250           0.406
  22231991.876   -11082994.657 6                        19.750
  20350771.829    -2104881.265 6  -1640175.25222        16.250           1.688
  22758222.993    -7950737.435 5  -5989163.75821        11.000           0.406
  20464083.407   -20439629.896 7 -15926973.24722        25.750           2.469
  21783328.899   -13136581.471 6 -10046853.95321        15.750           0.594
 91  6 11 18  2 59.9970000  0  6G18G11G19G16G 2G 6
  22518654.103     9986662.361 6   7781793.02021        13.250           0.375
  22232052.634   -11082657.749 6                        18.500
  20351878.728    -2099078.327 6  -1635653.51922        17.000           1.688
  22758602.946    -7948746.154 5  -5987612.13521        10.750           0.313
  20456970.009   -20476998.989 7 -15956092.02723        25.500           2.500
  21775038.892   -13180139.046 6 -10080794.92421        15.750           0.500
 91  6 11 18  3 14.9970000  0  6G18G11G19G16G 2G 6
  22526242.478    10026550.412 6   7812874.49021        13.250           0.406
  22232150.587   -11082175.463 6  -8635452.02821        19.500           0.938
  20352992.970    -2093220.487 6  -1631089.00722        17.250           1.563
  22759001.196    -7946641.854 5  -5985972.45921        10.250           0.344
  20449872.626   -20514292.527 7 -15985151.92322        25.000           2.375
  21766748.368   -13223682.902 6 -10114725.20421        15.500           0.656
 91  6 11 18  3 29.9970000  0  6G18G11G19G16G 2G 6
  22533837.337    10066485.263 5   7843992.43721        11.500           0.406
  22232266.759   -11081540.690 6  -8634957.42221        18.500           1.031
  20354119.673    -2087300.431 6  -1626476.01822        18.250           1.688
  22759422.642    -7944417.536 5  -5984239.26421        10.750           0.313
  20442794.392   -20551503.412 7 -16014147.41023        25.750           2.563
  21758468.220   -13267205.776 6 -10148639.13421        15.750           0.563
 91  6 11 18  3 44.9970000  0  6G18G11G19G16G 2G 6
  22541450.259    10106467.489 5   7875147.24821        11.500           0.406
  22232418.306   -11080752.368 7  -8634343.16721        20.000           1.000
  20355259.946    -2081317.083 6  -1621813.70622        17.250           1.531
  22759869.517    -7942072.510 5  -5982412.00621        10.500           0.219
  20435727.618   -20588630.319 7 -16043077.46723        25.250           2.625
  21750192.095   -13310706.383 6 -10182535.71221        15.000           0.469
 91  6 11 18  3 59.9970000  0  6G18G11G19G16G 2G 6
  22549065.821    10146494.951 5   7906337.32721        11.750           0.469
  22232594.790   -11079812.741 6  -8633611.01621        19.000           1.000
  20356408.017    -2075272.559 6  -1617103.73022        17.750           1.625
  22760342.126    -7939609.080 5  -5980492.50921        11.000           0.250
  20428677.267   -20625675.366 7 -16071943.74223        24.750           2.500
  21741920.306   -13354186.894 6 -10216416.63721        15.750           0.625
 91  6 11 18  4 14.9970000  0  6G18G11G19G16G 2G 6
  22556691.188    10186572.954 5   7937566.81421        11.500           0.469
  22232806.384   -11078716.397 6  -8632756.73121        19.750           1.094
  20357571.407    -2069161.217 6  -1612341.68522        17.250           1.563
  22760826.915    -7937021.635 5  -5978476.36621        10.000           0.281
  20421644.298   -20662632.994 7 -16100741.88723        24.500           2.563
  21733646.040   -13397641.688 6 -10250277.51321        15.750           0.531
 91  6 11 18  4 29.9970000  0  6G18G11G19G16G 2G 6
  22564330.806    10226690.224 6   7968826.84821        12.250           0.469
  22233040.001   -11077474.356 6  -8631788.92521        18.750           1.000
  20358744.642    -2062993.771 6  -1607535.91822        17.000           1.531
  22761347.392    -7934321.269 5  -5976372.23321        11.000           0.313
  20414629.001   -20699514.046 7 -16129480.36823        25.250           2.500
  21725377.329   -13441081.609 6 -10284126.80721        15.250           0.563
 91  6 11 18  4 44.9970000  0  6G18G11G19G16G 2G 6
  22571971.204    10266847.718 5   8000118.20021        11.000           0.469
  22233303.173   -11076085.338 6  -8630706.59221        19.000           1.000
  20359932.665    -2056768.939 6  -1602685.44521        17.500           1.469
  22761885.110    -7931507.215 5  -5974179.48921        10.750           0.313
  20407624.157   -20736317.175 7 -16158158.13523        25.000           2.531
  21717118.993   -13484505.302 6 -10317963.45421        16.250           0.625
 91  6 11 18  4 59.9970000  0  6G18G11G19G16G 2G 6
  22579617.267    10307049.836 5   8031444.35221        11.000           0.469
  22233597.985   -11074544.931 6  -8629506.28921        18.500           1.031
  20361126.954    -2050482.254 6  -1597786.76522        17.250           1.500
  22762441.345    -7928575.201 5  -5971894.84921        10.000           0.313
  20400637.454   -20773037.819 7 -16186771.62523        25.500           2.500
  21708861.399   -13527908.104 6 -10351783.81821        16.500           0.656
 91  6 11 18  5 14.9970000  0  6G18G11G19G16G 2G 6
  22587274.962    10347293.345 5   8062802.76721        10.750           0.531
  22233920.978   -11072856.276 6  -8628190.46321        19.250           1.000
  20362337.126    -2044136.607 6  -1592842.15222        17.500           1.594
  22763020.470    -7925528.217 5  -5969520.60121        10.000           0.375
  20393663.454   -20809679.039 7 -16215323.22623        25.250           2.563
  21700600.524   -13571293.042 6 -10385590.26021        16.000           0.625
 91  6 11 18  5 29.9970000  0  6G18G11G19G16G 2G 6
  22594945.017    10387582.182 5   8094196.48721        10.750           0.469
  22234271.290   -11071015.295 6  -8626755.94021        19.250           1.063
  20363556.626    -2037727.631 6  -1587848.19022        17.500           1.500
  22763623.118    -7922362.258 5  -5967053.65721        10.500           0.375
  20386706.353   -20846236.500 7 -16243809.56422        25.000           2.438
  21692351.446   -13614655.887 6 -10419379.49021        16.000           0.563
 91  6 11 18  5 44.9970000  0  6G18G11G19G16G 2G 6
  22602619.462    10427912.271 5   8125622.35621        11.000           0.375
  22234648.626   -11069025.975 6  -8625205.82921        18.750           1.125
  20364785.720    -2031259.427 6  -1582808.06921        17.250           1.438
  22764247.103    -7919081.362 5  -5964497.14221        10.750           0.375
  20379765.931   -20882714.084 7 -16272233.65923        25.000           2.500
  21684100.173   -13658000.434 6 -10453154.46221        16.500           0.656
 91  6 11 18  5 59.9970000  0  6G18G11G19G16G 2G 6
  22610302.306    10468286.377 5   8157082.52521        11.250           0.469
  22235053.728   -11066885.493 6  -8623537.92921        18.250           1.063
  20366029.392    -2024728.922 6  -1577719.41621        17.500           1.469
  22764892.681    -7915683.091 5  -5961849.18821        11.000           0.313
  20372838.595   -20919108.731 7 -16300593.12923        25.000           2.531
  21675862.938   -13701323.619 6 -10486912.79321        16.250           0.594
 91  6 11 18  6 14.9970000  0  6G18G11G19G16G 2G 6
  22617992.696    10508701.149 5   8188574.39021        11.250           0.500
  22235491.626   -11064596.752 6  -8621754.50121        18.250           0.938
  20367279.235    -2018138.800 6  -1572584.28921        16.750           1.469
  22765559.118    -7912170.423 5  -5959112.13021        10.250           0.313
  20365929.157   -20955423.300 7 -16328890.19523        25.000           2.563
  21667618.524   -13744628.242 6 -10520656.65621        16.750           0.594
 91  6 11 18  6 29.9970000  0  6G18G11G19G16G 2G 6
  22625690.329    10549155.997 5   8220097.48521        11.250           0.438
  22235954.517   -11062160.478 6  -8619856.09621        18.250           0.969
  20368547.017    -2011489.694 6  -1567403.22021        17.500           1.438
  22766247.353    -7908544.415 5  -5956286.70521        10.250           0.375
  20359032.751   -20991658.549 7 -16357125.46623        25.000           2.625
  21659387.024   -13787915.012 6 -10554386.60921        16.750           0.656
 91  6 11 18  6 44.9970000  0  6G18G11G19G16G 2G 6
  22633393.884    10589656.590 5   8251656.22521        10.750           0.531
  22236448.868   -11059570.701 6  -8617838.09621        18.500           0.906
  20369825.220    -2004775.450 6  -1562171.37921        17.250           1.438
  22766960.853    -7904799.252 5  -5953368.42221        11.000           0.375
  20352155.860   -21027808.253 7 -16385294.06123        25.000           2.750
  21651146.649   -13831177.652 6 -10588097.74921        16.750           0.625
 91  6 11 18  6 59.9970000  0  6G18G11G19G16G 2G 6
  22641109.587    10630193.535 5   8283243.28921        11.000           0.531
  22236969.173   -11056836.522 6  -8615707.55821        18.250           1.000
  20371115.556    -1998005.046 6  -1556895.79021        17.750           1.375
  22767703.813    -7900944.032 5  -5950364.40421        10.500           0.219
  20345290.853   -21063881.463 7 -16413403.05323        24.500           2.563
  21642920.540   -13874425.245 6 -10621797.17421        16.750           0.719
 91  6 11 18  7 14.9970000  0  6G18G11G19G16G 2G 6
  22648834.462    10670769.876 6   8314861.05921        12.000           0.563
  22237518.524   -11053954.784 6  -8613462.04021        18.250           1.063
  20372414.532    -1991175.097 6  -1551573.80021        17.750           1.406
  22768448.946    -7896975.692 5  -5947272.22621        10.250           0.250
  20338439.423   -21099874.817 7 -16441449.82523        24.500           2.781
  21634693.509   -13917654.336 6 -10655482.17921        17.000           0.656
 91  6 11 18  7 29.9970000  0  6G18G11G19G16G 2G 6
  22656562.595    10711388.535 6   8346511.80621        12.000           0.500
  22238094.571   -11050922.727 6  -8611099.39521        18.250           0.938
  20373724.540    -1984282.685 6  -1546203.13121        17.250           1.375
  22769230.181    -7892891.386 5  -5944089.70721        11.250           0.344
  20331607.173   -21135785.231 7 -16469431.95723        24.500           2.844
  21626470.688   -13960861.948 6 -10689150.44421        17.250           0.625
 91  6 11 18  7 44.9970000  0  6G18G11G19G16G 2G 6
  22664300.407    10752048.161 5   8378194.48121        11.500           0.594
  22238698.563   -11047741.245 6  -8608620.32421        18.000           0.938
  20375049.243    -1977328.640 6  -1540784.44321        17.250           1.469
  22770031.649    -7888692.325 5  -5940817.75721        11.000           0.375
  20324790.415   -21171613.543 7 -16497350.11623        24.750           2.750
  21618255.212   -14004048.848 6 -10722802.58121        17.500           0.688
 91  6 11 18  7 59.9970000  0  6G18G11G19G16G 2G 6
  22672047.282    10792749.235 5   8409909.44621        11.750           0.563
  22239332.220   -11044410.050 6  -8606024.58421        17.750           1.000
  20376384.899    -1970312.346 6  -1535317.24921        17.250           1.438
  22770846.970    -7884378.196 5  -5937456.12521        10.250           0.250
  20317986.688   -21207359.363 7 -16525203.99723        25.000           2.688
  21610039.438   -14047214.540 6 -10756438.17621        17.000           0.688
 91  6 11 18  8 14.9970000  0  6G18G11G19G16G 2G 6
  22679797.774    10833493.531 5   8441658.09421        11.250           0.375
  22239995.181   -11040927.007 6  -8603310.51821        17.250           0.969
  20377732.290    -1963231.472 6  -1529799.72521        17.500           1.469
  22771697.782    -7879946.779 5  -5934003.09621        10.750           0.250
  20311200.657   -21243020.438 7 -16552991.84423        24.750           2.688
  21601834.368   -14090356.627 6 -10790055.37421        17.750           0.625
 91  6 11 18  8 29.9970000  0  6G18G11G19G16G 2G 6
  22687557.845    10874276.218 5   8473436.64421        10.000           0.469
  22240685.876   -11037296.751 6  -8600481.73021        17.000           0.875
  20379092.603    -1956090.464 6  -1524235.35221        17.000           1.438
  22772558.188    -7875402.965 5  -5930462.52021        11.000           0.281
  20304428.118   -21278601.236 7 -16580717.13623        25.000           2.594
  21593625.634   -14133479.727 6 -10823657.79521        17.500           0.656
 91  6 11 18  8 44.9970000  0  6G18G11G19G16G 2G 6
  22695327.462    10915096.039 5   8505244.13821        11.250           0.469
  22241407.860   -11033520.511 6  -8597539.21121        17.500           0.844
  20380459.985    -1948890.387 6  -1518624.95221        17.250           1.469
  22773443.149    -7870747.995 5  -5926835.32621        11.000           0.313
  20297675.282   -21314102.873 7 -16608380.74423        25.250           2.656
  21585422.712   -14176584.778 6 -10857246.13921        17.250           0.563
 91  6 11 18  8 59.9970000  0  6G18G11G19G16G 2G 6
  22703100.962    10955951.317 5   8537079.28121        11.000           0.469
  22242152.782   -11029599.743 6  -8594484.06321        17.000           0.938
  20381840.782    -1941632.718 6  -1512969.66922        16.250           1.531
  22774346.728    -7865983.656 5  -5923122.90221        10.500           0.344
  20290932.235   -21349526.714 7 -16635983.72723        25.250           2.625
  21577223.243   -14219673.247 6 -10890821.55921        17.250           0.656
 91  6 11 18  9 14.9970000  0  6G18G11G19G16G 2G 6
  22710886.384    10996849.307 5   8568947.67121        11.750           0.500
  22242932.032   -11025527.188 6  -8591310.63821        17.750           0.813
  20383234.360    -1934310.022 6  -1507263.71922        17.000           1.500
  22775280.298    -7861102.925 5  -5919319.78721        11.000           0.250
  20284209.087   -21384865.411 7 -16663520.37123        24.750           2.594
  21569025.478   -14262737.546 6 -10924378.14421        16.750           0.563
 91  6 11 18  9 29.9970000  0  6G18G11G19G16G 2G 6
  22718675.212    11037787.424 5   8600847.36421        10.250           0.531
  22243725.329   -11021305.291 6  -8588020.83921        15.500           0.875
  20384640.720    -1926924.605 6  -1501508.88622        17.000           1.531
  22776227.376    -7856108.158 5  -5915427.82421        11.000           0.375
  20277500.899   -21420121.162 7 -16690992.38323        25.500           2.563
  21560836.892   -14305780.037 6 -10957917.75021        17.500           0.656
 91  6 11 18  9 44.9970000  0  6G18G11G19G16G 2G 6
  22726474.446    11078756.609 5   8632771.22121        11.750           0.438
  22244556.962   -11016942.952 6  -8584621.60621        15.750           0.875
  20386056.212    -1919485.107 6  -1495711.92121        17.000           1.438
  22777197.938    -7851008.318 5  -5911453.95621        11.500           0.250
  20270805.181   -21455302.654 7 -16718406.53323        25.250           2.563
  21552648.548   -14348809.311 6 -10991447.04521        17.000           0.719
 91  6 11 18  9 59.9970000  0  6G18G11G19G16G 2G 6
  22734277.563    11119767.613 5   8664727.69721        10.250           0.313
  22245415.907   -11012429.312 6  -8581104.48921        15.500           0.875
  20387483.931    -1911980.424 6  -1489864.15622        17.500           1.531
  22778185.618    -7845792.941 5  -5907390.07121        10.750           0.250
  20264123.720   -21490398.807 7 -16745754.18023        24.250           2.688
  21544467.462   -14391814.342 6 -11024957.44621        17.750           0.656
 91  6 11 18 10 14.9970000  0  6G18G11G19G16G 2G 6
  22742088.423    11160814.714 5   8696712.28021        10.500           0.406
  22246302.267   -11007770.081 6  -8577473.90721        15.750           0.906
  20388923.532    -1904416.052 6  -1483969.88421        16.750           1.469
  22779203.587    -7840467.627 5  -5903240.49821        11.000           0.188
  20257463.524   -21525415.158 7 -16773039.63923        25.000           2.719
  21536284.806   -14434800.563 6 -11058453.20221        18.000           0.625
 91  6 11 18 10 29.9970000  0  6G18G11G19G16G 2G 6
  22749907.384    11201899.527 5   8728726.26821        10.000           0.375
  22247214.556   -11002963.232 6  -8573728.32021        15.000           0.844
  20390375.767    -1896789.973 6  -1478027.53021        16.250           1.469
  22780243.337    -7835030.650 5  -5899003.93521        11.250           0.219
  20250817.298   -21560349.629 7 -16800261.30123        25.750           2.719
  21528108.767   -14477765.765 6 -11091932.57121        17.500           0.656
 91  6 11 18 10 44.9970000  0  6G18G11G19G16G 2G 6
  22757731.657    11243019.262 5   8760767.44421        10.000           0.313
  22248161.509   -10998011.569 6  -8569869.88321        15.750           0.781
  20391838.548    -1889104.689 6  -1472039.03422        17.000           1.563
  22781297.876    -7829484.879 6  -5894682.60821        12.000           0.188
  20244182.970   -21595204.822 7 -16827421.18923        25.500           2.719
  21519937.165   -14520712.600 6 -11125397.61621        17.500           0.688
 91  6 11 18 10 59.9970000  0  6G18G11G19G16G 2G 6
  22765566.446    11284167.051 5   8792830.49721         9.250           0.281
  22249127.845   -10992921.948 6  -8565903.94021        15.250           0.844
  20393307.938    -1881367.006 6  -1466009.72022        17.000           1.500
  22782371.954    -7823837.307 5  -5890281.95121        11.500           0.188
  20237562.056   -21629987.677 7 -16854524.70523        25.750           2.813
  21511765.415   -14563647.766 6 -11158853.58921        17.250           0.594
 91  6 11 18 11 14.9970000  0  6G18G11G19G16G 2G 6
  22773394.306    11325352.221 5   8824922.67421         9.000           0.188
  22250128.954   -10987684.877 6  -8561823.11921        16.000           0.688
  20394792.157    -1873567.206 6  -1459931.99621        16.750           1.469
  22783467.478    -7818078.204 5  -5885794.41721        11.750           0.313
  20230960.087   -21664688.334 7 -16881564.18323        25.750           2.719
  21503602.032   -14606561.538 6 -11192292.88221        17.500           0.594
 91  6 11 18 11 29.9970000  0  6G18G11G19G16G 2G 6
  22781244.298    11366576.518 5   8857045.34721        10.000           0.344
  22251149.806   -10982298.477 6  -8557625.93021        15.000           0.719
  20396288.353    -1865703.007 6  -1453804.09922        17.750           1.594
  22784589.501    -7812206.048 6  -5881218.75721        12.250           0.344
  20224373.532   -21699304.678 7 -16908537.95823        26.000           2.656
  21495439.298   -14649451.848 6 -11225713.89821        17.500           0.625
 91  6 11 18 11 44.9970000  0  6G18G11G19G16G 2G 6
  22789098.407    11407841.453 5   8889199.71921        10.500           0.125
  22252205.017   -10976760.880 6  -8553310.92121        15.250           0.719
  20397800.290    -1857772.422 6  -1447624.46022        16.750           1.563
  22785726.649    -7806219.224 6  -5876553.77321        12.250           0.219
  20217803.399   -21733834.759 7 -16935444.51123        26.000           2.625
  21487277.501   -14692316.539 6 -11259114.94921        17.000           0.656
 91  6 11 18 11 59.9970000  0  6G18G11G19G16G 2G 6
  22796957.384    11449143.541 5   8921382.99621        11.000           0.219
  22253285.884   -10971075.596 6  -8548880.84221        14.500           0.813
  20399319.095    -1849778.856 6  -1441395.74822        17.250           1.594
  22786888.532    -7800121.130 6  -5871802.06421        12.000           0.281
  20211247.110   -21768281.907 7 -16962286.44123        25.750           2.594
  21479126.806   -14735158.932 6 -11292498.62921        17.250           0.688
 91  6 11 18 12 14.9970000  0  6G18G11G19G16G 2G 6
  22804826.173    11490485.942 5   8953597.70821        10.000           0.313
  22254397.876   -10965239.535 6  -8544333.27921        15.750           0.781
  20400854.720    -1841719.022 6  -1435115.39222        16.750           1.531
  22788070.688    -7793908.664 5  -5866961.24921        11.250           0.250
  20204708.196   -21802642.686 7 -16989061.07523        25.750           2.563
  21470982.915   -14777975.689 6 -11325862.33321        17.750           0.625
 91  6 11 18 12 29.9970000  0  6G18G11G19G16G 2G 6
  22812695.946    11531865.433 5   8985841.29021         9.000           0.188
  22255534.720   -10959255.909 6  -8539670.71821        15.000           0.750
  20402402.431    -1833595.897 6  -1428785.72422        16.750           1.750
  22789268.548    -7787585.333 5  -5862034.06821        11.000           0.313
  20198188.313   -21836920.459 7 -17015771.02723        26.500           2.594
  21462838.274   -14820769.870 6 -11359208.43621        17.500           0.625
 91  6 11 18 12 44.9970000  0  6G18G11G19G16G 2G 6
  22820577.985    11573287.525 5   9018118.10821         9.250           0.281
  22256704.321   -10953118.751 6  -8534888.53421        15.000           0.719
  20403959.228    -1825403.348 6  -1422401.96222        17.500           1.563
  22790489.649    -7781145.115 5  -5857015.75121        11.250           0.219
  20191682.040   -21871109.158 7 -17042411.56523        25.750           2.625
  21454699.274   -14863535.389 6 -11392532.21421        17.250           0.719
 91  6 11 18 12 59.9970000  0  6G18G11G19G16G 2G 6
  22828468.720    11614743.861 5   9050421.57721         8.750           0.375
  22257895.923   -10946836.423 6  -8529993.21321        14.750           0.688
  20405530.853    -1817149.520 6  -1415970.45022        17.500           1.563
  22791742.251    -7774596.328 5  -5851912.90021        11.750           0.156
  20185189.876   -21905216.775 7 -17068988.92823        26.250           2.625
  21446566.579   -14906280.240 6 -11425839.90121        17.250           0.594
 91  6 11 18 13 14.9970000  0  6G18G11G19G16G 2G 6
  22836360.634    11656235.718 5   9082752.73021         8.250           0.313
  22259122.157   -10940407.406 6  -8524983.61721        15.500           0.813
  20407114.509    -1808832.623 6  -1409489.78622        17.250           1.594
  22793010.798    -7767938.131 5  -5846724.72121        11.250           0.188
  20178715.774   -21939241.522 7 -17095501.71323        26.500           2.563
  21438433.063   -14949002.678 6 -11459130.10121        17.000           0.688
 91  6 11 18 13 29.9970000  0  6G18G11G19G16G 2G 6
  22844268.337    11697765.555 5   9115113.47721         8.750           0.344
  22260371.259   -10933829.497 6  -8519857.98821        14.750           0.719
  20408707.329    -1800450.260 6  -1402958.11622        17.250           1.625
  22794306.196    -7761168.265 6  -5841449.58721        12.000           0.281
  20172257.103   -21973181.166 7 -17121948.18823        26.500           2.500
  21430308.603   -14991700.197 6 -11492400.88721        17.500           0.563
 91  6 11 18 13 44.9970000  0  6G18G11G19G16G 2G 6
  22852181.173    11739329.516 5   9147500.78921         9.500           0.344
  22261654.688   -10927106.192 6  -8514619.05121        15.250           0.719
  20410316.431    -1792005.687 6  -1396377.95922        17.750           1.563
  22795612.642    -7754290.283 6  -5836090.18021        12.750           0.313
  20165813.056   -22007038.953 7 -17148330.88023        26.000           2.656
  21422190.532   -15034376.163 6 -11525654.90221        17.000           0.688
 91  6 11 18 13 59.9970000  0  6G18G11G19G16G 2G 6
  22860097.454    11780935.097 5   9179920.57221         9.250           0.313
  22262959.235   -10920230.222 6  -8509261.18021        14.500           0.688
  20411932.704    -1783491.609 6  -1389743.65422        18.250           1.625
  22796941.993    -7747296.676 5  -5830640.68121        11.250           0.281
  20159389.563   -22040807.480 7 -17174644.02323        27.000           2.688
  21414073.407   -15077023.090 6 -11558886.26121        17.500           0.625
 91  6 11 18 14 14.9970000  0  6G18G11G19G16G 2G 6
  22868019.368    11822569.880 5   9212363.07221        10.250           0.313
  22264300.563   -10913213.557 6                        16.000
  20413565.181    -1774919.743 6  -1383064.30922        17.500           1.594
  22798287.103    -7740199.560 5                        10.250
  20152976.462   -22074498.649 7 -17200896.88723        26.500           2.594
  21405960.485   -15119652.687 6 -11592104.12921        17.500           0.625
 91  6 11 18 14 29.9970000  0  6G18G11G19G16G 2G 6
  22875946.024    11864230.760 5   9244825.98921        10.250           0.375
  22265663.290   -10906059.083 6                        16.250
  20415208.470    -1766292.720 6  -1376341.99822        17.750           1.594
  22799659.853    -7733001.788 5                        10.750
  20146580.868   -22108115.009 7 -17227091.46023        26.750           2.594
  21397847.157   -15162267.582 6 -11625310.54121        17.000           0.594
 91  6 11 18 14 44.9970000  0  6G18G11G19G16G 2G 6
  22883883.173    11905923.988 5   9277314.07821         9.750           0.375
  22267048.282   -10898760.979 6                        16.000
  20416863.306    -1757604.646 6  -1369572.10322        17.750           1.594
  22801045.290    -7725698.163 5                        11.000
  20140198.712   -22141650.694 7 -17253223.16623        27.250           2.531
  21389744.751   -15204861.816 6 -11658500.85521        16.750           0.719
 91  6 11 18 14 59.9960000  0  6G18G11G19G16G 2G 6
  22891823.293    11947653.292 5   9309830.24421         9.500           0.469
  22268462.082   -10891312.827 6                        16.000
  20418527.699    -1748848.906 6  -1362749.49022        17.750           1.563
  22802461.160    -7718282.183 5                        10.750
  20133833.738   -22175096.236 8 -17279284.63623        28.000           2.656
  21381645.879   -15247425.369 6 -11691667.25221        16.750           0.781
 91  6 11 18 15 14.9960000  0  6G18G11G19G16G 2G 6
  22899769.434    11989421.077 5   9342376.43521         9.000           0.500
  22269907.981   -10883716.628 6                        16.250
  20420206.004    -1740027.052 6  -1355875.34822        17.750           1.531
  22803891.293    -7710755.988 5                        10.750
  20127480.816   -22208459.078 7 -17305281.66623        27.250           2.531
  21373549.707   -15289966.665 6 -11724816.32121        17.000           0.688
 91  6 11 18 15 29.9960000  0  6G18G11G19G16G 2G 6
  22907723.191    12031218.171 5   9374945.47821         8.750           0.469
  22271382.707   -10875979.272 6  -8474780.01821        16.750           0.688
  20421893.965    -1731146.002 6  -1348955.09722        17.750           1.563
  22805348.488    -7703126.608 5  -5796222.85221        11.000           0.156
  20121152.566   -22241743.338 8 -17331217.45623        28.000           2.563
  21365459.715   -15332489.198 6 -11757950.75021        16.750           0.688
 91  6 11 18 15 44.9960000  0  6G18G11G19G16G 2G 6
  22915676.090    12073045.083 4   9407537.73521         7.250           0.469
  22272888.316   -10868100.007 6  -8468640.36121        17.500           0.625
  20423599.223    -1722204.674 6  -1341987.86521        18.000           1.469
  22806813.145    -7695393.191 5  -5790196.86821        11.250           0.125
  20114831.176   -22274947.966 7 -17357091.20223        27.250           2.594
  21357370.356   -15374991.788 6 -11791069.65621        16.750           0.719
 91  6 11 18 15 59.9960000  0  6G18G11G19G16G 2G 6
  22923644.613    12114898.443 4   9440150.56821         7.250           0.625
  22274411.824   -10860082.202 6  -8462392.74321        17.750           0.781
  20425309.301    -1713206.266 6  -1334976.16322        18.750           1.563
  22808304.957    -7687559.333 5  -5784092.60321        10.750           0.281
  20108529.457   -22308075.992 7 -17382905.25823        27.500           2.625
  21349289.168   -15417477.538 6 -11824175.42921        16.750           0.719
 91  6 11 18 16 14.9960000  0  6G18G11G19G16G 2G 6
  22931617.621    12156783.934 5   9472788.46021         8.000           0.469
  22275961.098   -10851920.164 6  -8456032.74421        16.500           0.719
  20427033.699    -1704144.838 6  -1327915.35222        18.000           1.563
  22809811.426    -7679619.529 5  -5777905.79021        10.250           0.375
  20102241.691   -22341121.658 7 -17408655.13623        27.750           2.563
  21341203.457   -15459940.579 6 -11857263.50421        16.500           0.750
 91  6 11 18 16 29.9960000  0  6G18G11G19G16G 2G 6
  22939592.410    12198698.241 5   9505448.81221         8.500           0.438
  22277539.965   -10843617.121 6  -8449562.87221        17.250           0.750
  20428770.988    -1695023.364 6  -1320807.75122        18.250           1.500
  22811346.832    -7671576.889 5  -5771638.88221        10.500           0.281
  20095964.277   -22374088.011 7 -17434343.21823        27.000           2.625
  21333125.590   -15502383.800 6 -11890336.14321        16.500           0.750
 91  6 11 18 16 44.9960000  0  6G18G11G19G16G 2G 6
  22947568.512    12240643.277 5   9538133.12221         8.750           0.438
  22279148.496   -10835170.965 6  -8442981.47721        17.250           0.719
  20430517.981    -1685839.605 6  -1313651.61322        17.500           1.531
  22812900.691    -7663429.696 5  -5765290.48021        10.750           0.250
  20089709.066   -22406972.743 7 -17459967.69223        27.500           2.594
  21325058.473   -15544805.007 6 -11923391.62221        16.250           0.781
 91  6 11 18 16 59.9960000  0  6G18G11G19G16G 2G 6
  22955564.043    12282621.291 5   9570843.10121         9.750           0.375
  22280787.043   -10826579.229 6  -8436286.65521        18.000           0.813
  20432276.215    -1676590.939 6  -1306444.89122        17.500           1.594
  22814468.246    -7655175.482 5  -5758858.70621        10.750           0.375
  20083466.129   -22439773.361 7 -17485526.62423        27.500           2.563
  21316990.191   -15587201.330 6 -11956427.71121        16.250           0.875
 91  6 11 18 17 14.9960000  0  6G18G11G19G16G 2G 6
  22963560.535    12324635.907 5   9603581.62421         9.000           0.344
  22282449.434   -10817838.502 6  -8429475.72621        17.000           0.625
  20434049.520    -1667273.698 6  -1299184.74822        17.500           1.688
  22816066.863    -7646811.056 5  -5752341.00721        11.000           0.219
  20077242.371   -22472486.123 7 -17511017.09723        27.750           2.594
  21308926.332   -15629569.190 6 -11989441.61321        16.250           0.719
 91  6 11 18 17 29.9960000  0  6G18G11G19G16G 2G 6
  22971562.699    12366680.209 5   9636343.25221        10.000           0.375
  22284137.356   -10808955.706 6  -8422554.09321        17.250           0.656
  20435834.090    -1657894.441 6  -1291876.27722        17.500           1.625
  22817669.527    -7638342.955 5  -5745742.57421        10.750           0.219
  20071032.387   -22505117.771 7 -17536444.36223        27.750           2.563
  21300869.387   -15671915.221 6 -12022438.52021        16.250           0.781
 91  6 11 18 17 44.9960000  0  6G18G11G19G16G 2G 6
  22979570.957    12408752.945 5   9669127.05821         9.750           0.344
  22285856.816   -10799931.551 6  -8415522.31321        17.750           0.750
  20437631.191    -1648453.706 6  -1284519.90122        17.250           1.531
  22819308.441    -7629772.440 5  -5739064.30021        10.750           0.125
  20064839.699   -22537668.924 7 -17561808.90523        27.750           2.688
  21292819.090   -15714239.893 6 -12055418.77721        16.750           0.844
 91  6 11 18 17 59.9960000  0  6G18G11G19G16G 2G 6
  22987580.934    12450856.692 5   9701935.02821         8.500           0.344
  22287599.012   -10790763.473 6  -8408378.37121        17.250           0.625
  20439442.395    -1638948.829 6  -1277113.54022        17.750           1.625
  22820954.270    -7621096.806 5  -5732304.13321        10.250           0.313
  20058660.535   -22570136.873 8 -17587108.61023        28.000           2.656
  21284764.434   -15756540.354 6 -12088380.16621        16.250           0.688
 91  6 11 18 18 14.9960000  0  6G18G11G19G16G 2G 6
  22995599.910    12492982.740 5   9734760.34621         8.750           0.219
  22289370.496   -10781460.388 6  -8401129.23021        17.500           0.719
  20441260.824    -1629388.389 6  -1269663.89122        18.000           1.563
  22822626.738    -7612325.068 5  -5725469.10321        10.000           0.219
  20052494.191   -22602530.005 7 -17612350.01723        27.500           2.594
  21276720.027   -15798825.277 6 -12121329.44721        16.250           0.875
 91  6 11 18 18 29.9960000  0  6G18G11G19G16G 2G 6
  23003616.066    12535137.264 5   9767607.82921         7.750           0.219
  22291167.574   -10772015.961 6  -8393769.98121        17.500           0.625
  20443090.324    -1619765.847 6  -1262165.85022        18.000           1.625
  22824318.004    -7603450.936 5  -5718554.23121        10.750           0.188
  20046345.707   -22634841.860 7 -17637528.09223        27.500           2.656
  21268678.801   -15841087.979 6 -12154261.41921        16.250           0.781
 91  6 11 18 18 44.9960000  0  6G18G11G19G16G 2G 6
  23011642.481    12577315.927 5   9800474.18221         8.500           0.188
  22292993.762   -10762434.578 6                        18.000
  20444933.145    -1610085.507 6                        18.000
  22826016.051    -7594478.690 5  -5711562.91821        10.250           0.219
  20040211.168   -22667076.701 7 -17662646.15123        27.250           2.750
  21260639.426   -15883332.628 6 -12187179.31521        16.500           0.781
 91  6 11 18 18 59.9960000  0  6G18G11G19G16G 2G 6
  23019675.816    12619525.627 5   9833364.72221         9.000           0.156
  22294844.465   -10752709.055 6                        17.750
  20446784.348    -1600339.777 6                        17.500
  22827748.793    -7585401.585 5  -5704489.89121        10.750           0.188
  20034093.520   -22699227.224 7 -17687698.50823        27.250           2.750
  21252601.582   -15925551.885 6 -12220077.43721        16.750           0.781
 91  6 11 18 19 14.9960000  0  6G18G11G19G16G 2G 6
  23027714.731    12661766.417 5   9866279.47821         9.250           0.219
  22296721.871   -10742839.192 6  -8371034.89121        17.750           0.719
  20448653.793    -1590528.272 6  -1239383.43221        17.500           1.469
  22829496.106    -7576219.682 5  -5697335.23821        10.000           0.188
  20027991.793   -22731292.956 7 -17712684.79923        27.750           2.594
  21244574.934   -15967745.234 6 -12252955.36821        16.750           0.813
 91  6 11 18 19 29.9960000  0  6G18G11G19G16G 2G 6
  23035758.840    12704030.225 5   9899212.17021         9.750           0.156
  22298627.176   -10732833.124 6  -8363237.94621        17.000           0.625
  20450532.543    -1580658.762 6  -1231692.95022        17.750           1.625
  22831262.606    -7566940.983 5  -5690105.14121         9.750           0.281
  20021905.543   -22763281.770 7 -17737611.14623        27.750           2.719
  21236550.051   -16009920.453 6 -12285819.17021        17.250           0.813
 91  6 11 18 19 44.9960000  0  6G18G11G19G16G 2G 6
  23043806.621    12746327.478 5   9932170.89721         8.750           0.156
  22300557.270   -10722680.407 6  -8355326.77821        17.750           0.594
  20452427.238    -1570720.769 6  -1223949.09622        18.250           1.500
  22833049.504    -7557555.025 5  -5682791.48921        10.000           0.281
  20015832.754   -22795183.285 7 -17762469.47423        27.500           2.719
  21228526.777   -16052066.991 6 -12318660.62221        16.750           0.781
 91  6 11 18 19 59.9960000  0  6G18G11G19G16G 2G 6
  23051860.043    12788646.404 5   9965146.49121         8.750           0.250
  22302514.277   -10712392.612 6  -8347310.32021        17.750           0.750
  20454326.613    -1560725.736 6  -1216160.80222        18.250           1.531
  22834846.895    -7548073.878 5  -5675403.63321         9.250           0.219
  20009778.176   -22827009.052 7 -17787268.77323        27.500           2.750
  21220508.973   -16094196.105 6 -12351488.50321        17.000           0.875
 91  6 11 18 20 14.9960000  0  6G18G11G19G16G 2G 6
  23059918.965    12830985.900 5   9998138.09621         9.250           0.125
  22304495.746   -10701970.790 6  -8339189.45021        16.500           0.688
  20456241.316    -1550674.295 6  -1208328.54822        18.000           1.531
  22836670.348    -7538498.556 5  -5667942.39621         9.000           0.125
  20003736.332   -22858759.577 7 -17812009.44623        27.750           2.813
  21212497.512   -16136308.430 6 -12384303.29921        17.250           0.781
 91  6 11 18 20 29.9960000  0  6G18G11G19G16G 2G 6
  23067978.801    12873351.434 5  10031150.01021         8.500           0.219
  22306508.840   -10691409.372 6  -8330959.77121        17.250           0.688
  20458163.840    -1540560.740 6  -1200447.89522        17.750           1.594
  22838507.449    -7528823.192 5  -5660403.22921         9.000           0.156
  19997710.129   -22890429.324 7 -17836687.16623        27.500           2.625
  21204488.262   -16178398.271 6 -12417100.57721        17.750           0.875
 91  6 11 18 20 44.9960000  0  6G18G11G19G16G 2G 6
  23076041.684    12915747.275 4  10064185.53221         7.000           0.156
  22308542.238   -10680703.931 6  -8322617.89421        16.500           0.656
  20460101.457    -1530380.312 6  -1192515.13522        18.500           1.625
  22840378.590    -7519043.586 5  -5652782.87221         9.500           0.125
  19991698.676   -22922013.616 7 -17861298.30823        27.500           2.781
  21196484.090   -16220460.887 6 -12449876.64521        17.500           0.906
 91  6 11 18 20 59.9960000  0  6G18G11G19G16G 2G 6
  23084119.309    12958173.965 4  10097245.07221         6.250           0.125
  22310605.637   -10669854.150 6  -8314163.53121        16.250           0.625
  20462054.012    -1520132.336 6  -1184529.73321        17.500           1.469
  22842255.762    -7509159.563 5  -5645081.06821         9.750           0.156
  19985704.660   -22953511.659 7 -17885842.22923        27.750           2.656
  21188485.848   -16262495.475 6 -12482630.87021        18.000           0.875
 91  6 11 18 21 14.9960000  0  6G18G11G19G16G 2G 6
  23092195.551    13000624.249 4  10130323.04921         6.500           0.125
  22312700.082   -10658867.129 6  -8305602.22921        16.750           0.563
  20464013.426    -1509823.745 6  -1176497.11321        18.250           1.469
  22844156.152    -7499178.311 5  -5637303.53521         9.750           0.219
  19979725.098   -22984930.442 7 -17910324.39623        27.500           2.781
  21180489.715   -16304509.068 6 -12515368.74021        18.000           0.875
 91  6 11 18 21 29.9960000  0  6G18G11G19G16G 2G 6
  23100281.004    13043094.584 4  10163416.56521         7.000           0.125
  22314814.981   -10647746.217 6  -8296936.60421        16.250           0.594
  20465988.824    -1499457.835 6  -1168419.82422        17.750           1.500
  22846071.785    -7489103.253 5  -5629452.86321         9.500           0.063
  19973760.527   -23016273.415 7 -17934747.49123        27.250           2.813
  21172496.684   -16346504.718 6 -12548092.61621        17.500           0.844
 91  6 11 18 21 44.9960000  0  6G18G11G19G16G 2G 6
  23108363.457    13085584.853 4  10196525.66921         7.250           0.156
  22316960.043   -10636491.536 6  -8288166.74121        16.500           0.656
  20467968.902    -1489034.528 6  -1160297.80022        17.750           1.625
  22848012.668    -7478934.591 5  -5621529.33221         9.250           0.156
  19967811.090   -23047540.379 7 -17959111.34823        27.250           2.750
  21164508.020   -16388482.293 6 -12580802.42121        17.750           0.844
 91  6 11 18 21 59.9960000  0  6G18G11G19G16G 2G 6
  23116451.059    13128097.777 4  10229652.44721         7.250           0.250
  22319125.137   -10625100.473 6  -8279290.60221        16.250           0.531
  20469966.285    -1478550.824 6  -1152128.72122        17.750           1.625
  22849963.113    -7468670.031 5  -5613531.01921        10.000           0.125
  19961878.863   -23078728.382 8 -17983413.68523        28.000           2.750
  21156525.559   -16430438.868 6 -12613495.85321        18.250           0.813
 91  6 11 18 22 14.9960000  0  6G18G11G19G16G 2G 6
  23124547.754    13170631.221 5  10262795.19621         8.000           0.156
  22321316.856   -10613575.125 6  -8270309.81321        15.500           0.563
  20471973.152    -1468008.601 6  -1143914.05122        18.000           1.594
  22851928.441    -7458311.636 5  -5605459.62221         8.750           0.219
  19955956.762   -23109839.449 7 -18007656.07523        27.750           2.813
  21148546.965   -16472376.150 6 -12646174.25521        18.500           0.938
 91  6 11 18 22 29.9960000  0  6G18G11G19G16G 2G 6
  23132645.215    13213184.126 5  10295953.08521         8.000           0.250
  22323538.207   -10601916.244 6  -8261224.98821        16.250           0.563
  20473988.934    -1457408.482 6  -1135654.25722        18.500           1.625
  22853923.981    -7447860.213 5  -5597315.73521         9.000           0.188
  19950053.574   -23140874.097 7 -18031838.91623        27.750           2.813
  21140570.262   -16514294.680 6 -12678838.04421        18.500           0.844
 91  6 11 18 22 44.9960000  0  6G18G11G19G16G 2G 6
  23140752.629    13255759.796 5  10329128.73821         9.250           0.313
  22325785.418   -10590120.458 6  -8252033.49121        16.500           0.656
  20476018.145    -1446746.720 6  -1127346.43422        17.750           1.594
  22855917.488    -7437312.422 5  -5589096.73221         8.500           0.250
  19944161.496   -23171828.639 7 -18055959.33823        27.500           2.750
  21132599.691   -16556190.705 6 -12711484.30321        19.000           0.844
 91  6 11 18 22 59.9960000  0  6G18G11G19G16G 2G 6
  23148857.723    13298358.268 5  10362322.18321         9.250           0.375
  22328051.965   -10578187.671 6  -8242735.24221        15.750           0.594
  20478059.402    -1436023.120 6                        16.500
  22857954.059    -7426668.510 5                         9.250
  19938286.504   -23202702.873 8 -18080017.18523        28.000           2.813
  21124627.012   -16598064.059 6 -12744112.89221        18.750           0.906
 91  6 11 18 23 14.9960000  0  6G18G11G19G16G 2G 6
  23156963.191    13340974.917 5  10395529.83321         8.500           0.375
  22330350.738   -10566122.788 6  -8233334.05121        16.000           0.406
  20480111.129    -1425242.052 6                        18.000
  22860001.449    -7415933.106 5                         9.000
  19932424.856   -23233501.321 7 -18104015.97523        27.000           2.844
  21116663.066   -16639919.035 6 -12776727.15621        18.750           0.875
 91  6 11 18 23 29.9960000  0  6G18G11G19G16G 2G 6
  23165078.676    13383613.921 5  10428754.85221         7.500           0.344
  22332670.027   -10553921.480 6  -8223826.54921        15.500           0.469
  20482172.598    -1414398.992 6                        18.000
  22862056.574    -7405101.802 5                         9.500
  19926578.629   -23264219.529 7 -18127952.24123        27.000           2.719
  21108701.270   -16681751.205 6 -12809323.64921        19.000           0.938
 91  6 11 18 23 44.9960000  0  6G18G11G19G16G 2G 6
  23173201.973    13426272.839 5  10461995.36521         8.750           0.281
  22335015.574   -10541585.862 6  -8214214.40421        15.750           0.594
  20484245.715    -1403495.903 6                        17.250
  22864138.246    -7394177.253 5                        10.000
  19920750.895   -23294859.606 7 -18151827.62523        27.250           2.938
  21100747.684   -16723562.245 6 -12841903.68621        19.000           0.875
 91  6 11 18 23 59.9960000  0  6G18G11G19G16G 2G 6
  23181312.652    13468957.084 5  10495255.63821         8.500           0.313
  22337389.152   -10529110.514 6  -8204493.37821        15.250           0.594
  20486332.395    -1392527.178 6                        18.000
  22866234.879    -7383154.071 5                        10.000
  19914933.113   -23325415.714 7 -18175637.58423        26.750           2.688
  21092793.410   -16765346.585 6 -12874462.90621        19.000           0.938
 91  6 11 18 24 14.9960000  0  6G18G11G19G16G 2G 6
  23189436.590    13511659.313 4  10528529.91521         6.750           0.219
  22339794.363   -10516502.773 6  -8194669.18921        16.250           0.625
  20488434.184    -1381499.850 6  -1076504.96222        17.250           1.563
  22868350.574    -7372039.553 5  -5546661.16721         9.750           0.188
  19909133.770   -23355895.013 7 -18199387.69023        27.000           2.781
  21084849.777   -16807111.141 6 -12907006.71521        19.000           0.906
 91  6 11 18 24 29.9960000  0  6G18G11G19G16G 2G 6
  23197572.816    13554376.647 4  10561815.90121         6.500           0.344
  22342218.301   -10503765.791 6  -8184744.29621        17.000           0.563
  20490542.074    -1370416.696 6  -1067868.78622        17.250           1.531
  22870476.215    -7360836.745 5  -5537931.74021         9.000           0.219
  19903350.113   -23386300.521 7 -18223080.29723        27.500           2.688
  21076905.074   -16848858.788 6 -12939537.35521        19.000           0.969
 91  6 11 18 24 44.9960000  0  6G18G11G19G16G 2G 6
  23205704.918    13597118.262 4  10595120.81021         6.250           0.250
  22344664.371   -10490890.255 6  -8174711.42821        16.250           0.563
  20492666.770    -1359268.252 6  -1059181.72422        17.000           1.563
  22872631.785    -7349536.628 5  -5529126.55121         9.250           0.188
  19897577.801   -23416622.739 7 -18246708.00323        27.250           2.781
  21068965.941   -16890579.816 6 -12972047.24621        19.000           1.000
 91  6 11 18 24 59.9960000  0  6G18G11G19G16G 2G 6
  23213844.676    13639878.096 4  10628439.93821         6.250           0.156
  22347137.418   -10477881.863 6  -8164575.03021        15.500           0.594
  20494798.481    -1348059.978 6  -1050448.05121        16.500           1.406
  22874800.285    -7338145.240 5  -5520250.21321         9.000           0.281
  19891823.902   -23446867.088 7 -18270275.03623        27.750           2.750
  21061027.613   -16932279.792 6 -13004540.73221        18.500           0.938
 91  6 11 18 25 14.9960000  0  6G18G11G19G16G 2G 6
  23221987.770    13682665.630 5  10661780.70321         9.250           0.125
  22349645.934   -10464731.321 6  -8154327.87221        17.000           0.531
  20496941.410    -1336782.334 6  -1041660.31422        16.750           1.500
  22876983.059    -7326653.048 5  -5511295.34321         9.000           0.156
  19886085.754   -23477024.219 7 -18293774.10123        27.250           2.750
  21053100.941   -16973949.078 6 -13037010.30921        18.750           0.969
 91  6 11 18 25 29.9960000  0  5G11G19G16G 2G 6
  22352175.856   -10451447.260 6  -8143976.66421        17.250           0.500
  20499101.590    -1325443.555 6  -1032824.94921        17.250           1.375
  22879186.988    -7315068.592 5  -5502268.53921         7.750           0.188
  19880361.332   -23507102.315 7 -18317211.58223        27.000           2.813
  21045174.770   -17015595.910 6 -13069462.38421        19.000           0.938
 91  6 11 18 25 44.9960000  0  6G18G11G19G16G 2G 6
  23238289.762          -0.34915                         9.250
  22354728.918   -10438027.663 6  -8133519.86821        17.000           0.656
  20501272.012    -1314041.603 6  -1023940.35221        16.500           1.375
  22881416.848    -7303390.385 5  -5493168.73921         8.250           0.250
  19874654.043   -23537099.256 7 -18340585.82623        27.750           2.906
  21037255.840   -17057218.073 6 -13101895.23921        19.250           1.063
 91  6 11 18 25 59.9960000  0  6G18G11G19G16G 2G 6
  23246440.863       42845.641 5                         8.250
  22357304.324   -10424474.840 6  -8122959.23121        17.000           0.625
  20503451.637    -1302578.399 6  -1015008.02621        17.000           1.469
  22883656.785    -7291620.656 5  -5483997.56121         8.750           0.219
  19868960.582   -23567017.041 7 -18363898.39323        27.750           2.625
  21029340.051   -17098817.507 6 -13134310.38721        18.750           0.938
 91  6 11 18 26 14.9960000  0  6G18G11G19G16G 2G 6
  23254594.191       85712.667 5        -0.40731         8.000           0.188
  22359907.981   -10410786.009 6  -8112292.63821        16.000           0.500
  20505646.113    -1291051.041 6  -1006025.71321        17.250           1.438
  22885914.934    -7279756.637 5  -5474752.95921         9.500           0.250
  19863282.941   -23596852.772 8 -18387147.02023        28.000           2.750
  21021428.199   -17140391.133 6 -13166705.41721        18.750           0.969
 91  6 11 18 26 29.9960000  0  6G18G11G19G16G 2G 6
  23262756.613      128602.108 4     33419.71621         7.000           0.094
  22362534.887   -10396960.089 6  -8101519.21321        15.750           0.469
  20507852.457    -1279457.966 6   -996992.18521        17.500           1.375
  22888189.637    -7267797.352 5  -5465434.06121         9.000           0.281
  19857619.590   -23626605.097 8 -18410330.65623        28.250           2.813
  21013519.363   -17181937.412 6 -13199079.14321        19.000           0.969
 91  6 11 18 26 44.9960000  0  6G18G11G19G16G 2G 6
  23270924.629      171511.989 4     66855.78421         6.750           0.250
  22365197.559   -10382998.943 6  -8090640.41721        17.250           0.594
  20510069.098    -1267800.820 6   -987908.73721        17.000           1.344
  22890478.426    -7255744.623 5  -5456042.38521         9.250           0.125
  19851975.051   -23656275.658 8 -18433450.58423        28.250           2.688
  21005617.848   -17223457.955 6 -13231432.81921        18.500           1.000
 91  6 11 18 26 59.9960000  0  6G18G11G19G16G 2G 6
  23279096.481      214436.407 4    100303.13821         7.250           0.219
  22367874.848   -10368908.428 6  -8079660.80721        16.500           0.469
  20512296.441    -1256085.502 6   -978779.96821        16.500           1.438
  22892795.840    -7243604.500 5  -5446582.65921         9.750           0.188
  19846340.723   -23685870.375 8 -18456511.40723        28.000           2.750
  20997721.004   -17264958.371 6 -13263770.81021        18.750           1.000
 91  6 11 18 27 14.9960000  0  6G18G11G19G16G 2G 6
  23287259.340      257376.907 3    133763.06321         6.000           0.156
  22370581.856   -10354687.123 6  -8068579.28621        16.500           0.563
  20514539.699    -1244310.036 6   -969604.32121        16.500           1.344
  22895107.238    -7231375.629 5  -5437053.73221         7.750           0.250
  19840724.566   -23715387.445 8 -18479511.73023        28.500           2.688
  20989830.770   -17306436.871 6 -13296091.72421        19.250           0.875
 91  6 11 18 27 29.9960000  0  5G11G19G16G 2G 6
  22373315.785   -10340334.648 6  -8057395.54521        16.750           0.563
  20516794.012    -1232473.815 6   -960381.32521        17.000           1.313
  22897460.246    -7219057.665 5  -5427455.36621         8.000           0.250
  19835123.691   -23744826.213 7 -18502451.03323        27.750           2.750
  20981941.785   -17347892.683 6 -13328394.95021        18.500           1.063
 91  6 11 18 27 44.9960000  0  5G11G19G16G 2G 6
  22376069.848   -10325854.573 6  -8046112.41821        16.250           0.500
  20519055.371    -1220580.109 6   -951113.54521        16.750           1.281
  22899824.004    -7206654.180 5  -5417790.37821         8.750           0.188
  19829536.106   -23774190.021 8 -18525331.92723        28.000           2.750
  20974054.824   -17389329.052 6 -13360683.02521        18.500           1.063
 91  6 11 18 27 59.9960000  0  5G11G19G16G 2G 6
  22378853.395   -10311246.098 6  -8034729.19321        17.500           0.438
  20521330.699    -1208627.798 6   -941800.10321        16.500           1.313
  22902197.449    -7194164.201 5  -5408058.00421         7.750           0.156
  19823964.301   -23803477.748 8 -18548153.53923        28.250           2.719
  20966174.559   -17430744.823 6 -13392955.05521        18.250           1.000
 91  6 11 18 28 14.9960000  0  5G11G19G16G 2G 6
  22381653.887   -10296511.268 6  -8023247.51721        15.750           0.625
  20523617.637    -1196618.783 6   -932442.46721        17.250           1.313
  22904587.731    -7181590.304 5  -5398260.20521         8.000           0.313
  19818405.035   -23832691.268 8 -18570917.32423        28.250           2.688
  20958298.309   -17472141.787 6 -13425212.42321        18.750           1.094
 91  6 11 18 28 29.9960000  0  5G11G19G16G 2G 6
  22384484.020   -10281644.040 6  -8011662.69121        17.000           0.531
  20525907.051    -1184546.644 6   -923035.65021        16.500           1.281
  22907006.926    -7168926.561 5  -5388392.41821         8.500           0.250
  19812858.871   -23861824.392 8 -18593618.46123        28.000           2.875
  20950424.574   -17513513.579 6 -13457450.17521        18.750           1.125
 91  6 11 18 28 44.9960000  0  5G11G19G16G 2G 6
  22387337.918   -10266646.662 6  -7999976.42921        15.750           0.594
  20528221.020    -1172413.583 6   -913581.35021        16.250           1.375
  22909425.090    -7156175.246 5  -5378456.39121         7.750           0.313
  19807330.418   -23890879.175 8 -18616258.55523        28.250           2.688
  20942556.418   -17554862.181 6 -13489669.86021        19.000           1.031
 91  6 11 18 28 59.9960000  0  5G11G19G16G 2G 6
  22390213.941   -10251520.024 6  -7988189.45221        16.000           0.594
  20530540.957    -1160220.061 6   -904079.94921        16.250           1.313
  22911866.090    -7143337.150 5  -5368452.76721         7.750           0.188
  19801817.152   -23919856.233 8 -18638838.08223        28.250           2.719
  20934693.887   -17596188.067 6 -13521871.83721        19.000           1.094
 91  6 11 18 29 14.9960000  0  5G11G19G16G 2G 6
  22393114.754   -10236263.253 6  -7976301.10121        15.000           0.594
  20532877.160    -1147965.059 6   -894530.63721        17.000           1.375
  22914327.520    -7130411.650 5  -5358381.00621         8.000           0.250
  19796316.371   -23948754.530 8 -18661356.23723        28.000           2.719
  20926831.020   -17637490.023 6 -13554055.17421        18.500           1.063
 91  6 11 18 29 29.9960000  0  5G11G19G16G 2G 6
  22396043.246   -10220873.730 6  -7964309.29021        14.750           0.594
  20535218.832    -1135645.554 6   -884931.07121        16.750           1.313
  22916812.473    -7117396.139 5  -5348239.13721         8.500           0.188
  19790832.652   -23977571.182 8 -18683810.77123        28.250           2.594
  20918978.184   -17678765.024 6 -13586217.49821        18.750           1.000
 91  6 11 18 29 44.9960000  0  5G11G19G16G 2G 6
  22398997.324   -10205354.863 6  -7952216.67221        15.250           0.500
  20537572.902    -1123264.639 6   -875283.65221        16.000           1.250
  22919290.731    -7104294.094 4  -5338029.79821         7.250           0.219
  19785365.090   -24006309.339 8 -18706204.13823        28.500           2.719
  20911126.121   -17720016.160 6 -13618361.22821        18.250           1.094
 91  6 11 18 29 59.9960000  0  5G11G19G16G 2G 6
  22401980.410   -10189697.631 6  -7940016.25921        14.750           0.594
  20539944.418    -1110813.166 6   -865581.24821        16.500           1.313
  22921807.496    -7091096.448 4  -5327745.99721         7.000           0.375
  19779913.168   -24034959.679 8 -18728529.07723        28.500           2.594
  20903287.684   -17761234.136 6 -13650479.11621        19.000           1.125
 91  6 11 18 30 14.9960000  0  5G11G19G16G 2G 6
  22404984.293   -10173913.487 6  -7927716.94521        15.500           0.531
  20542322.777    -1098302.310 6   -855832.56921        16.000           1.344
  22924337.363    -7077815.042 5  -5317396.92721         8.000           0.313
  19774475.098   -24063533.573 8 -18750794.45723        29.000           2.625
  20895444.606   -17802430.067 6 -13682579.82821        19.000           1.031
 91  6 11 18 30 29.9960000  0  5G11G19G16G 2G 6
  22408010.356   -10157998.215 6  -7915315.47321        14.250           0.531
  20544716.879    -1085727.345 6   -846033.93221        16.500           1.281
  22926885.059    -7064445.463 5  -5306979.13621         7.500           0.250
  19769055.371   -24092026.400 8 -18772996.65723        29.250           2.656
  20887611.598   -17843599.325 6 -13714659.76921        19.000           1.156
 91  6 11 18 30 44.9960000  0  5G11G19G16G 2G 6
  22411065.402   -10141962.793 6  -7902820.35321        14.500           0.594
  20547118.676    -1073099.158 6   -836193.83121        16.000           1.375
  22929440.566    -7050998.725 5  -5296501.21621         8.000           0.344
  19763645.996   -24120449.027 8 -18795144.16523        30.000           2.625
  20879777.340   -17884752.481 6 -13746727.15321        18.000           1.188
 91  6 11 18 30 59.9960000  0  5G11G19G16G 2G 6
  22414137.457   -10125799.750 6  -7890225.80321        14.750           0.563
  20549536.520    -1060409.995 6   -826306.22121        16.500           1.375
  22932017.738    -7037467.334 5  -5285957.37721         8.500           0.281
  19758251.231   -24148793.782 8 -18817230.98923        29.250           2.688
  20871953.613   -17925881.683 6 -13778775.86721        18.750           1.188
 91  6 11 18 31 14.9960000  0  5G11G19G16G 2G 6
  22417236.309   -10109510.598 6  -7877532.97621        14.000           0.500
  20551961.793    -1047661.178 6   -816372.11821        16.250           1.313
  22934610.520    -7023853.231 5  -5275349.05221         7.500           0.250
  19752870.418   -24177061.957 8 -18839258.14123        29.000           2.563
  20864133.410   -17966988.293 6 -13810806.99521        18.750           1.156
 91  6 11 18 31 29.9960000  0  5G11G19G16G 2G 6
  22420366.645   -10093092.490 6  -7864739.67521        14.750           0.688
  20554399.270    -1034849.535 6   -806389.06321        16.500           1.344
  22937213.543    -7010153.499 4  -5264674.00021         7.250           0.313
  19747508.340   -24205250.487 8 -18861223.23123        29.250           2.625
  20856313.613   -18008068.995 6 -13842817.90721        19.250           1.250
 91  6 11 18 31 44.9960000  0  5G11G19G16G 2G 6
  22423510.606   -10076543.473 6  -7851844.36321        14.000           0.500
  20556850.918    -1021972.736 6   -796355.23621        16.250           1.375
  22939838.106    -6996366.097 5  -5253930.61821         8.000           0.250
  19742159.856   -24233357.113 8 -18883124.50023        29.000           2.688
  20848502.887   -18049121.542 6 -13874806.90021        19.250           1.094
 91  6 11 18 31 59.9960000  0  5G11G19G16G 2G 6
  22426688.441   -10059864.532 6  -7838847.80521        14.000           0.563
  20559310.043    -1009031.431 6   -786271.14721        15.750           1.344
  22942481.574    -6982492.009 5  -5243119.71321         8.000           0.250
  19736826.973   -24261382.557 8 -18904962.50823        29.250           2.625
  20840693.684   -18090146.463 6 -13906774.36321        19.250           1.125
 91  6 11 18 32 14.9960000  0  5G11G19G16G 2G 6
  22429890.449   -10043057.209 6  -7825751.22321        14.000           0.656
  20561787.973     -996027.039 6   -776137.88521        16.250           1.438
  22945133.809    -6968532.946 4  -5232242.57721         7.250           0.219
  19731509.574   -24289328.057 8 -18926738.23323        29.750           2.625
  20832895.277   -18131145.036 6 -13938721.29421        19.500           1.156
 91  6 11 18 32 29.9960000  0  5G11G19G16G 2G 6
  22433112.363   -10026109.517 6  -7812545.25821        13.750           0.656
  20564274.645     -982947.213 6   -765945.85921        15.500           1.375
  22947806.981    -6954477.103 5  -5221290.03921         7.500           0.281
  19726208.816   -24317181.337 8 -18948442.08723        29.500           2.531
  20825096.746   -18172104.769 6 -13970637.96221        19.000           1.063
 91  6 11 18 32 44.9960000  0  5G11G19G16G 2G 6
  22436358.160   -10009030.017 6  -7799236.58921        13.500           0.625
  20566777.996     -969800.208 6   -755701.48121        16.500           1.438
  22950504.191    -6940333.073 5  -5210268.79921         8.000           0.188
  19720920.098   -24344950.852 8 -18970080.67923        28.500           2.563
  20817311.270   -18213033.972 6 -14002530.84421        19.500           1.094
 91  6 11 18 32 59.9960000  0  5G11G19G16G 2G 6
  22439638.113    -9991823.007 6  -7785828.54521        13.000           0.625
  20569292.402     -956590.211 6   -745408.02021        16.000           1.375
  22953206.574    -6926105.328 4  -5199182.30321         7.250           0.219
  19715654.152   -24372640.858 8 -18991657.31223        28.750           2.531
  20809527.199   -18253936.630 7 -14034403.04221        20.000           1.000
 91  6 11 18 33 14.9960000  0  5G11G19G16G 2G 6
  22442931.293    -9974481.518 6  -7772315.73521        12.750           0.531
  20571817.723     -943309.843 6   -735059.72921        15.500           1.375
  22955942.379    -6911786.738 5  -5188025.03321         7.750           0.219
  19710403.082   -24400244.020 8 -19013166.27523        29.750           2.500
  20801752.121   -18294805.303 6 -14066248.75421        19.750           1.188
 91  6 11 18 33 29.9960000  0  5G11G19G16G 2G 6
  22446252.840    -9957008.881 6  -7758700.71921        12.500           0.469
  20574360.246     -929962.092 6   -724658.92621        16.000           1.406
  22958669.309    -6897380.699 4  -5176799.58821         7.250           0.281
  19705165.910   -24427763.299 8 -19034609.87622        29.500           2.469
  20793979.801   -18335642.859 7 -14098070.22121        20.000           1.219
 91  6 11 18 33 44.9960000  0  5G11G19G16G 2G 6
  22449611.941    -9939408.321 6  -7744986.01921        13.000           0.594
  20576910.457     -916549.907 6   -714207.91421        15.250           1.438
  22961435.832    -6882890.856 5  -5165508.91621         7.750           0.281
  19699941.402   -24455201.796 8 -19055990.53123        28.750           2.500
  20786214.176   -18376452.337 7 -14129869.81121        20.250           1.219
 91  6 11 18 33 59.9960000  0  5G11G19G16G 2G 6
  22452979.223    -9921682.190 6  -7731173.49021        12.500           0.500
  20579476.152     -903075.588 6   -703708.48621        15.750           1.375
  22964210.981    -6868319.280 5  -5154154.46621         7.500           0.281
  19694737.012   -24482561.799 8 -19077310.01523        29.250           2.563
  20778449.941   -18417235.723 6 -14161649.05321        19.750           1.094
 91  6 11 18 34 14.9960000  0  5G11G19G16G 2G 6
  22456378.527    -9903826.664 6  -7717260.13121        12.750           0.563
  20582051.887     -889534.895 6   -693157.34021        16.000           1.438
  22966999.324    -6853662.215 5  -5142733.45721         7.750           0.281
  19689546.504   -24509839.276 8 -19098565.20223        29.250           2.563
  20770697.543   -18457988.773 7 -14193404.67521        20.250           1.125
 91  6 11 18 34 29.9960000  0  5G11G19G16G 2G 6
  22459804.863    -9885835.873 6  -7703241.35021        13.000           0.625
  20584641.371     -875921.471 6   -682549.52221        16.000           1.281
  22969797.395    -6838914.064 5  -5131241.43021         8.000           0.281
  19684372.574   -24537027.908 8 -19119751.15523        28.750           2.500
  20762946.895   -18498705.254 7 -14225131.80121        20.500           1.063
 91  6 11 18 34 44.9960000  0  5G11G19G16G 2G 6
  22463248.957    -9867718.061 6  -7689123.59621        13.500           0.500
  20587247.090     -862243.488 6   -671891.38721        16.250           1.281
  22972615.051    -6824083.079 5  -5119684.92221         7.750           0.281
  19679214.762   -24564135.855 8 -19140874.23623        29.000           2.594
  20755204.168   -18539393.132 7 -14256836.63421        20.000           1.125
 91  6 11 18 34 59.9960000  0  5G11G19G16G 2G 6
  22466717.746    -9849478.118 6  -7674910.64821        12.500           0.656
  20589856.231     -848505.568 6   -661186.56021        15.750           1.438
  22975454.574    -6809174.435 5  -5108067.85921         7.750           0.250
  19674071.129   -24591167.611 8 -19161937.94423        29.750           2.594
  20747466.746   -18580056.789 7 -14288522.60021        20.000           1.188
 91  6 11 18 35 14.9960000  0  5G11G19G16G 2G 6
  22470216.645    -9831113.575 6  -7660600.64521        13.750           0.500
  20592486.293     -834704.805 6   -650432.76321        16.000           1.344
  22978312.113    -6794185.080 5  -5096387.90221         7.500           0.313
  19668942.137   -24618120.479 8 -19182940.18323        29.250           2.500
  20739735.598   -18620693.406 7 -14320187.48821        20.000           1.188
 91  6 11 18 35 29.9960000  0  5G11G19G16G 2G 6
  22473732.434    -9812624.955 6  -7646193.93321        13.000           0.563
  20595123.699     -820841.445 6   -639630.18021        15.250           1.469
  22981190.262    -6779115.856 5  -5084645.70021         8.000           0.156
  19663828.699   -24644994.509 8 -19203880.98823        29.750           2.563
  20732006.402   -18661302.906 7 -14351831.24721        20.250           1.219
 91  6 11 18 35 44.9960000  0  5G11G19G16G 2G 6
  22477274.684    -9794018.868 6  -7631695.70121        13.000           0.531
  20597774.793     -806921.899 6   -628783.82022        16.000           1.500
  22984055.082    -6763973.683 4  -5072846.67421         6.750           0.219
  19658725.840   -24671796.188 8 -19224765.41523        29.000           2.594
  20724284.074   -18701891.724 7 -14383458.90521        20.250           1.250
 91  6 11 18 35 59.9960000  0  5G11G19G16G 2G 6
  22480837.449    -9775289.428 6  -7617101.36321        14.000           0.438
  20600433.363     -792940.029 6   -617888.89821        16.500           1.438
  22986958.512    -6748752.684 4  -5060986.20821         7.250           0.156
  19653640.012   -24698519.405 8 -19245588.70623        29.000           2.531
  20716562.910   -18742453.553 6 -14415065.52321        19.750           1.219
 91  6 11 18 36 14.9960000  0  5G11G19G16G 2G 6
  22484425.277    -9756440.485 6  -7602413.89421        13.750           0.438
  20603107.121     -778899.306 6   -606948.10521        16.250           1.406
  22989868.785    -6733456.619 5  -5049067.27421         7.500           0.313
  19648571.301   -24725167.874 8 -19266353.74622        29.000           2.438
  20708850.285   -18782991.896 7 -14446653.84221        20.000           1.281
 91  6 11 18 36 29.9960000  0  5G11G19G16G 2G 6
  22488034.926    -9737469.452 6  -7587631.29221        14.000           0.469
  20605787.606     -764796.810 6   -595959.18621        16.250           1.313
  22992795.949    -6718082.910 5  -5037087.81721         8.000           0.188
  19643512.543   -24751738.714 8 -19287058.29923        28.750           2.563
  20701140.270   -18823503.708 7 -14478221.48121        20.250           1.250
 91  6 11 18 36 44.9960000  0  5G11G19G16G 2G 6
  22491668.809    -9718373.905 6  -7572751.67021        14.250           0.594
  20608485.527     -750629.787 6   -584919.99321        16.000           1.313
  22995736.723    -6702629.267 5  -5025046.09521         7.500           0.156
  19638473.793   -24778229.223 8 -19307700.25423        29.250           2.531
  20693440.840   -18863986.275 7 -14509766.33721        20.000           1.156
 91  6 11 18 36 59.9960000  0  5G11G19G16G 2G 6
  22495327.277    -9699151.975 6  -7557773.56021        13.750           0.469
  20611192.668     -736396.316 6   -573829.01021        16.500           1.313
  22998687.434    -6687094.293 4  -5012940.96321         7.000           0.250
  19633449.512   -24804637.483 8 -19328278.12223        29.500           2.563
  20685740.012   -18904437.385 7 -14541286.67321        20.250           1.281
 91  6 11 18 37 14.9960000  0  5G11G19G16G 2G 6
  22499007.918    -9679806.481 6  -7542699.15121        14.750           0.469
  20613915.785     -722098.765 6   -562688.10621        15.750           1.406
  23001658.262    -6671480.549 4  -5000774.47721         6.750           0.313
  19628435.902   -24830965.961 8 -19348793.81923        28.750           2.594
  20678050.137   -18944859.408 7 -14572784.35321        20.750           1.375
 91  6 11 18 37 29.9960000  0  5G11G19G16G 2G 6
  22502713.160    -9660340.801 6  -7527531.11421        15.000           0.500
  20616648.270     -707740.109 6   -551499.58021        16.000           1.344
  23004643.106    -6655791.487 4  -4988549.32121         7.250           0.250
  19623442.004   -24857217.715 8 -19369249.73323        29.000           2.594
  20670357.129   -18985255.273 6 -14604261.64521        19.750           1.281
 91  6 11 18 37 44.9960000  0  5G11G19G16G 2G 6
  22506435.457    -9640753.190 6  -7512268.05021        14.000           0.500
  20619392.559     -693318.507 6   -540262.00022        16.250           1.531
  23007645.543    -6640025.253 4  -4976264.00521         6.750           0.281
  19618462.684   -24883390.906 8 -19389644.43023        28.750           2.656
  20662678.762   -19025622.970 7 -14635716.98721        20.250           1.219
 91  6 11 18 37 59.9960000  0  5G11G19G16G 2G 6
  22510190.559    -9621043.854 6  -7496910.14821        15.500           0.406
  20622151.160     -678833.844 6   -528975.30621        16.750           1.281
  23010663.824    -6624182.071 4  -4963918.74721         7.000           0.313
  19613495.668   -24909485.344 8 -19409977.75823        28.500           2.563
  20655002.645   -19065962.271 7 -14667150.20421        20.250           1.250
 91  6 11 18 38 14.9960000  0  4G11G19G 2G 6
  22513965.973    -9601213.872 6  -7481458.21221        14.500           0.469
  20624914.488     -664286.773 6   -517639.95521        15.750           1.375
  19608546.621   -24935501.983 8 -19430250.45923        29.250           2.719
  20647334.176   -19106273.777 7 -14698561.75921        20.250           1.281
 91  6 11 18 38 29.9960000  0  4G11G19G 2G 6
  22517759.543    -9581269.880 6  -7465917.46021        15.000           0.406
  20627695.910     -649683.661 6   -506260.95221        16.500           1.219
  19603607.410   -24961447.241 8 -19450467.54423        28.500           2.719
  20639663.746   -19146563.770 6 -14729956.55721        19.750           1.313
 91  6 11 18 38 44.9960000  0  4G11G19G 2G 6
  22521581.215    -9561200.046 6  -7450278.63321        16.000           0.406
  20630486.574     -635012.337 6   -494828.79421        15.750           1.375
  19598684.895   -24987308.802 8 -19470619.41123        29.000           2.594
  20632003.566   -19186819.982 6 -14761325.01921        19.250           1.406
 91  6 11 18 38 59.9960000  0  4G11G19G 2G 6
  22525420.699    -9541006.264 6  -7434543.21721        15.000           0.563
  20633289.277     -620274.342 6   -483344.68921        17.000           1.313
  19593781.441   -25013088.244 8 -19490707.28523        28.500           2.656
  20624347.113   -19227043.901 6 -14792668.32721        19.750           1.313
 91  6 11 18 39 14.9960000  0  4G11G19G 2G 6
  22529291.441    -9520693.792 6  -7418715.34821        15.250           0.438
  20636108.816     -605474.824 6   -471812.63821        16.250           1.313
  19588889.738   -25038790.861 8 -19510735.30023        28.250           2.656
  20616701.574   -19267240.402 7 -14823990.27421        20.250           1.281
 91  6 11 18 39 29.9960000  0  4G11G19G 2G 6
  22533176.840    -9500265.469 6  -7402797.16921        15.500           0.406
  20638936.582     -590616.372 6   -460234.67921        16.250           1.250
  19584012.106   -25064419.118 8 -19530705.37123        28.500           2.625
  20609055.590   -19307411.939 7 -14855292.77021        20.250           1.281
 91  6 11 18 39 44.9960000  0  4G11G19G 2G 6
  22537087.113    -9479712.478 6  -7386781.87321        15.250           0.438
  20641776.184     -575689.629 6   -448603.49521        16.000           1.281
  19579152.418   -25089963.808 8 -19550610.32623        29.000           2.625
  20601420.363   -19347549.142 7 -14886568.50921        20.000           1.438
 91  6 11 18 39 59.9960000  0  4G11G19G 2G 6
  22541021.449    -9459045.149 6  -7370677.47821        14.750           0.375
  20644627.481     -560704.656 6   -436926.93221        16.000           1.281
  19574307.535   -25115435.172 8 -19570458.14323        29.500           2.625
  20593783.918   -19387662.048 6 -14917825.30921        19.750           1.438
 91  6 11 18 40 14.9960000  0  4G11G19G 2G 6
  22544971.746    -9438260.159 6  -7354481.41321        14.000           0.469
  20647490.598     -545657.681 6   -425202.07421        15.750           1.313
  19569472.012   -25140829.617 8 -19590246.02623        29.500           2.625
  20586155.074   -19427746.963 7 -14949060.30821        20.000           1.406
 91  6 11 18 40 29.9960000  0  4G11G19G 2G 6
  22548950.598    -9417353.625 6  -7338190.61221        14.250           0.469
  20650368.277     -530544.739 6   -413425.80021        16.500           1.250
  19564655.285   -25166143.090 8 -19609970.81123        28.750           2.656
  20578535.465   -19467799.541 7 -14980270.10421        20.750           1.375
 91  6 11 18 40 44.9960000  0  4G11G19G 2G 6
  22552953.113    -9396327.170 6  -7321806.38221        13.250           0.500
  20653253.363     -515367.258 6   -401599.24421        16.000           1.375
  19559851.426   -25191376.907 8 -19629633.53023        28.750           2.625
  20570919.770   -19507821.109 7 -15011455.74121        20.500           1.375
 91  6 11 18 40 59.9960000  0  4G11G19G 2G 6
  22556979.301    -9375173.392 6  -7305322.94621        13.500           0.531
  20656154.809     -500117.396 6   -389716.27721        17.250           1.281
  19555069.832   -25216523.253 8 -19649228.09023        29.500           2.813
  20563308.762   -19547803.665 7 -15042610.97921        20.250           1.406
 91  6 11 18 41 14.9960000  0  4G11G19G 2G 6
  22561027.887    -9353904.895 6  -7288750.11721        13.750           0.531
  20659071.895     -484807.463 6   -377786.50721        15.750           1.281
  19550296.871   -25241594.582 8 -19668764.19323        29.000           2.719
  20555707.676   -19587759.435 7 -15073745.34322        20.500           1.500
 91  6 11 18 41 29.9960000  0  4G11G19G 2G 6
  22565097.082    -9332512.012 6  -7272080.34921        13.000           0.469
  20661998.246     -469427.566 6   -365802.22121        16.250           1.313
  19545544.746   -25266580.909 8 -19688234.05923        29.250           2.781
  20548112.168   -19627678.469 7 -15104851.08122        20.500           1.500
 91  6 11 18 41 44.9960000  0  4G11G19G 2G 6
  22569194.074    -9311001.777 6  -7255319.15121        13.250           0.625
  20664937.098     -453984.389 6   -353768.61921        15.750           1.281
  19540801.731   -25291488.991 8 -19707642.96023        29.000           2.750
  20540520.731   -19667567.285 7 -15135933.27222        20.750           1.500
 91  6 11 18 41 59.9960000  0  4G11G19G 2G 6
  22573304.176    -9289377.998 6  -7238469.49421        13.750           0.500
  20667882.981     -438481.401 6   -341688.42421        15.000           1.375
  19536077.340   -25316322.593 8 -19726993.81923        29.250           2.656
  20532934.902   -19707429.332 7 -15166994.60821        21.000           1.406
 91  6 11 18 42 14.9960000  0  4G11G19G 2G 6
  22577445.238    -9267641.271 6  -7221531.77821        13.500           0.531
  20670844.848     -422918.939 6   -329561.88421        15.250           1.313
  19531366.410   -25341081.815 8 -19746286.72623        29.000           2.688
  20525355.027   -19747264.679 7 -15198035.13522        20.500           1.531
 91  6 11 18 42 29.9960000  0  4G11G19G 2G 6
  22581598.098    -9245791.308 6  -7204505.85421        12.250           0.469
  20673819.465     -407296.341 6   -317388.47321        15.750           1.406
  19526668.731   -25365766.301 8 -19765521.39023        29.500           2.688
  20517781.848   -19787072.699 7 -15229054.37422        21.000           1.625
 91  6 11 18 42 44.9960000  0  4G11G19G 2G 6
  22585782.223    -9223824.757 6  -7187389.07421        13.000           0.531
  20676805.184     -391610.011 6   -305165.41121        15.250           1.344
  19521989.106   -25390372.499 8 -19784695.05423        29.500           2.688
  20510212.535   -19826849.681 7 -15260049.41322        21.500           1.500
 91  6 11 18 42 59.9960000  0  4G11G19G 2G 6
  22589981.785    -9201741.536 6  -7170181.37721        12.000           0.594
  20679802.481     -375859.536 6   -292892.36821        15.750           1.438
  19517318.488   -25414900.111 8 -19803807.48423        29.000           2.563
  20502645.777   -19866595.048 7 -15291019.83222        21.000           1.563
 91  6 11 18 43 14.9960000  0  4G11G19G 2G 6
  22594203.316    -9179543.422 5  -7152884.18421        11.500           0.625
  20682811.582     -360046.330 6   -280570.43821        15.000           1.281
  19512667.559   -25439350.421 8 -19822859.67623        29.750           2.719
  20495090.754   -19906310.247 7 -15321966.73922        21.750           1.531
 91  6 11 18 43 29.9960000  0  4G11G19G 2G 6
  22598449.707    -9157234.368 6  -7135500.52021        12.250           0.531
  20685833.027     -344174.008 6   -268202.46121        15.250           1.406
  19508027.957   -25463727.039 8 -19841854.44723        29.000           2.688
  20487538.949   -19945998.655 7 -15352892.76922        22.000           1.594
 91  6 11 18 43 44.9960000  0  4G11G19G 2G 6
  22602717.543    -9134808.243 5  -7118025.62021        11.750           0.531
  20688867.129     -328236.184 6   -255783.42021        15.000           1.469
  19503403.543   -25488023.769 8 -19860786.96423        29.000           2.688
  20479993.012   -19985653.780 7 -15383792.86322        21.750           1.531
 91  6 11 18 43 59.9960000  0  4G11G19G 2G 6
  22607005.832    -9112262.970 5  -7100457.94521        11.750           0.500
  20691911.590     -312230.458 6   -243311.47321        15.750           1.406
  19498798.168   -25512238.256 8 -19879655.40023        29.500           2.594
  20472450.637   -20025273.102 7 -15414665.06822        21.000           1.625
 91  6 11 18 44 14.9960000  0  4G11G19G 2G 6
  22611321.309    -9089602.889 6  -7082800.74321        12.250           0.500
  20694969.707     -296160.802 6   -230789.71621        15.000           1.375
  19494202.816   -25536374.646 8 -19898462.97823        29.250           2.688
  20464919.145   -20064860.491 7 -15445512.37822        21.250           1.594
 91  6 11 18 44 29.9960000  0  4G11G19G 2G 6
  22615654.941    -9066834.487 6  -7065059.15021        12.250           0.469
  20698035.488     -280033.595 6   -218223.11521        15.000           1.313
  19489626.152   -25560439.130 8 -19917214.52623        29.000           2.625
  20457390.793   -20104421.998 7 -15476339.52822        21.750           1.531
 91  6 11 18 44 44.9950000  0  4G11G19G 2G 6
  22620010.944    -9043954.914 6  -7047230.92921        12.000           0.469
  20701117.499     -263845.269 6   -205608.87921        14.750           1.375
  19485061.608   -25584425.569 8 -19935905.26323        29.250           2.656
  20449869.796   -20143950.299 7 -15507140.80322        22.000           1.563
 91  6 11 18 44 59.9950000  0  4G11G19G 2G 6
  22624387.124    -9020956.993 6  -7029310.48021        13.000           0.656
  20704212.257     -247589.044 6   -192941.75022        15.500           1.500
  19480509.249   -25608332.585 8 -19954534.11223        28.750           2.719
  20442351.437   -20183445.985 7 -15537916.66421        21.500           1.438
 91  6 11 18 45 14.9950000  0  4G11G19G 2G 6
  22628783.085    -8997845.229 6  -7011301.33821        12.750           0.563
  20707317.851     -231268.645 6   -180224.60521        15.500           1.375
  19475973.632   -25632161.243 8 -19973101.90723        28.750           2.656
  20434842.491   -20222908.931 7 -15568667.01322        21.750           1.625
 91  6 11 18 45 29.9950000  0  4G11G19G 2G 6
  22633198.694    -8974628.651 6  -6993210.52021        12.000           0.563
  20710433.937     -214892.935 6   -167464.35321        15.500           1.375
  19471454.749   -25655920.368 8 -19991615.51423        28.750           2.625
  20427337.562   -20262348.026 7 -15599398.77522        22.000           1.500
 91  6 11 18 45 44.9950000  0  4G11G19G 2G 6
  22637642.077    -8951295.138 6  -6975028.57221        12.500           0.500
  20713566.382     -198449.351 6   -154651.23021        15.750           1.375
  19466951.804   -25679597.649 8 -20010065.35023        29.250           2.563
  20419840.538   -20301750.462 7 -15630101.97922        21.750           1.500
 91  6 11 18 45 59.9950000  0  4G11G19G 2G 6
  22642103.890    -8927855.863 6  -6956764.20621        13.250           0.406
  20716704.952     -181948.675 6   -141793.61421        15.000           1.375
  19462458.273   -25703203.881 8 -20028459.82223        29.000           2.531
  20412345.726   -20341127.032 7 -15660785.01722        21.500           1.500
 91  6 11 18 46 14.9950000  0  4G11G19G 2G 6
  22646584.601    -8904310.329 6  -6938417.06021        12.750           0.500
  20719852.663     -165390.124 6   -128890.88621        15.000           1.375
  19457979.163   -25726738.306 8 -20046798.33723        28.750           2.531
  20404859.804   -20380476.694 7 -15691447.09721        21.750           1.438
 91  6 11 18 46 29.9950000  0  4G11G19G 2G 6
  22651084.741    -8880656.814 6  -6919985.77121        12.750           0.438
  20723017.812     -148771.830 6   -115941.62621        15.500           1.438
  19453513.757   -25750199.005 8 -20065079.41023        28.750           2.563
  20397376.140   -20419797.383 7 -15722086.59022        21.000           1.594
 91  6 11 18 46 44.9950000  0  4G11G19G 2G 6
  22655605.538    -8856890.187 6  -6901466.35321        12.750           0.469
  20726192.843     -132088.238 6   -102941.47821        15.750           1.281
  19449064.296   -25773580.505 8 -20083298.76923        28.500           2.563
  20389903.304   -20459083.507 7 -15752699.14822        21.000           1.531
 91  6 11 18 46 59.9950000  0  4G11G19G 2G 6
  22660153.218    -8833015.393 6  -6882862.64821        14.500           0.500
  20729377.444     -115343.781 6    -89893.90621        15.000           1.313
  19444630.866   -25796887.438 8 -20101460.02223        29.250           2.594
  20382429.015   -20498339.410 7 -15783288.16022        21.250           1.531
 91  6 11 18 47 14.9950000  0  4G11G19G 2G 6
  22664715.077    -8809033.954 6  -6864175.83121        13.000           0.531
  20732577.288      -98539.975 6    -76800.08521        16.250           1.281
  19440209.358   -25820121.279 8 -20119564.31623        29.250           2.563
  20374966.038   -20537566.400 7 -15813854.64922        21.000           1.531
 91  6 11 18 47 29.9950000  0  4G11G19G 2G 6
  22669297.218    -8784945.325 6  -6845405.47821        12.500           0.563
  20735781.780      -81675.864 6    -63659.25421        15.250           1.281
  19435800.624   -25843281.239 8 -20137611.04423        29.250           2.594
  20367505.554   -20576763.428 7 -15844397.78322        21.500           1.500
 91  6 11 18 47 44.9950000  0  4G11G19G 2G 6
  22673901.398    -8760750.744 6  -6826552.60921        12.250           0.500
  20739005.226      -64752.411 6    -50472.22621        15.000           1.313
  19431408.835   -25866368.152 8 -20155600.85122        29.750           2.469
  20360053.257   -20615931.181 7 -15874918.10722        21.750           1.625
 91  6 11 18 47 59.9950000  0  4G11G19G 2G 6
  22678526.757    -8736449.330 6  -6807616.45421        13.500           0.531
  20742241.093      -47768.414 6    -37238.00821        15.500           1.219
  19427027.577   -25889380.796 8 -20173532.79323        29.000           2.531
  20352605.601   -20655068.538 7 -15905414.74921        21.750           1.469
 91  6 11 18 48 14.9950000  0  4G11G19G 2G 6
  22683171.577    -8712041.063 6  -6788597.04321        12.750           0.406
  20745482.062      -30723.320 6    -23956.17821        16.500           1.313
  19422661.890   -25912318.794 8 -20191406.55623        28.250           2.625
  20345163.405   -20694174.795 7 -15935887.15522        21.250           1.531
 91  6 11 18 48 29.9950000  0  4G11G19G 2G 6
  22687837.929    -8687525.090 6  -6769493.71221        13.000           0.438
  20748734.640      -13615.983 6    -10625.83521        15.500           1.281
  19418311.202   -25935180.963 8 -20209221.24223        29.000           2.531
  20337727.398   -20733248.604 7 -15966334.28021        21.500           1.438
 91  6 11 18 48 44.9950000  0  4G11G19G 2G 6
  22692519.679    -8662904.041 6  -6750308.52621        13.250           0.344
  20752002.921        3551.223 6      2751.14521        15.750           1.375
  19413975.702   -25957969.776 8 -20226978.76322        29.250           2.469
  20330301.944   -20772292.152 7 -15996757.82721        22.000           1.469
 91  6 11 18 48 59.9950000  0  4G11G19G 2G 6
  22697228.944    -8638170.379 6  -6731035.53221        13.500           0.344
  20755282.452       20786.158 6     16180.90621        17.000           1.281
  19409654.921   -25980677.366 8 -20244672.99522        29.250           2.469
  20322874.694   -20811297.572 7 -16027151.65522        21.000           1.625
 91  6 11 18 49 14.9950000  0  4G11G19G 2G 6
  22701956.210    -8613333.935 6  -6711682.50621        13.250           0.375
  20758572.530       38079.079 6     29655.84421        15.500           1.094
  19405347.319   -26003313.535 8 -20262311.57423        29.500           2.500
  20315459.976   -20850274.261 7 -16057523.10122        21.750           1.531
 91  6 11 18 49 29.9950000  0  4G11G19G 2G 6
  22706699.890    -8588392.618 6  -6692247.74821        13.000           0.406
  20761875.827       55432.602 6     43177.99721        16.250           1.125
  19401055.085   -26025875.897 8 -20279892.64423        29.750           2.500
  20308049.733   -20889219.631 7 -16087870.14322        22.000           1.531
 91  6 11 18 49 44.9950000  0  4G11G19G 2G 6
  22711469.054    -8563339.558 6  -6672725.92921        12.500           0.344
  20765192.280       72853.894 6     56752.97421        15.500           1.219
  19396776.655   -26048357.366 8 -20297410.68122        29.500           2.469
  20300644.976   -20928126.446 7 -16118187.13722        22.250           1.563
 91  6 11 18 49 59.9950000  0  4G11G19G 2G 6
  22716257.616    -8538180.033 6  -6653121.13021        13.000           0.469
  20768518.194       90337.923 6     70376.83421        15.250           1.156
  19392513.538   -26070762.929 8 -20314869.57023        30.000           2.563
  20293248.515   -20966999.389 7 -16148477.74322        21.750           1.625
 91  6 11 18 50 14.9950000  0  4G11G19G 2G 6
  22721059.155    -8512916.537 6  -6633435.31321        12.000           0.375
  20771857.968      107882.464 6     84047.85921        16.000           1.219
  19388260.132   -26093094.663 8 -20332270.92723        29.250           2.563
  20285858.444   -21005840.614 7 -16178743.63422        22.500           1.500
 91  6 11 18 50 29.9950000  0  4G11G19G 2G 6
  22725893.648    -8487541.880 6  -6613662.87621        12.000           0.313
  20775207.858      125495.149 6     97771.95921        15.500           1.156
  19384028.343   -26115345.103 8 -20349608.93922        29.250           2.406
  20278473.124   -21044642.280 7 -16208978.69622        22.750           1.531
 91  6 11 18 50 44.9950000  0  4G11G19G 2G 6
  22730742.530    -8462061.059 5  -6593807.71221        11.750           0.375
  20778573.405      143171.273 6    111545.49821        15.500           1.156
  19379809.468   -26137518.930 8 -20366887.25522        29.000           2.438
  20271095.468   -21083409.048 7 -16239186.56922        22.250           1.500
 91  6 11 18 50 59.9950000  0  4G11G19G 2G 6
  22735609.343    -8436481.623 5  -6573875.72021        11.250           0.375
  20781944.077      160903.585 6    125362.82021        15.000           1.188
  19375605.866   -26159623.623 8 -20384111.70223        30.000           2.500
  20263725.523   -21122148.138 7 -16269372.86922        22.000           1.594
 91  6 11 18 51 14.9950000  0  4G11G19G 2G 6
  22740493.960    -8410801.321 5  -6553865.10021        11.500           0.438
  20785333.101      178694.816 6    139226.04521        15.750           1.156
  19371408.023   -26181656.485 8 -20401280.17023        28.750           2.500
  20256357.663   -21160856.568 7 -16299535.28022        22.250           1.656
 91  6 11 18 51 29.9950000  0  4G11G19G 2G 6
  22745403.155    -8385021.407 6  -6533776.87821        12.250           0.438
  20788725.593      196543.972 6    153134.42821        15.500           1.156
  19367233.304   -26203618.503 8 -20418393.43923        30.000           2.500
  20248998.007   -21199535.301 7 -16329674.54622        22.500           1.594
 91  6 11 18 51 44.9950000  0  4G11G19G 2G 6
  22750325.335    -8359140.944 5  -6513610.30721        10.750           0.438
  20792138.054      214452.225 6    167088.84121        15.500           1.250
  19363066.601   -26225508.654 8 -20435450.71023        30.000           2.500
  20241642.991   -21238182.810 7 -16359789.48821        22.000           1.438
 91  6 11 18 51 59.9950000  0  4G11G19G 2G 6
  22755268.273    -8333162.285 5  -6493367.21921        11.500           0.438
  20795554.960      232417.638 6    181087.79321        15.750           1.125
  19358913.632   -26247328.967 8 -20452453.56022        29.750           2.469
  20234293.319   -21276801.159 7 -16389881.70422        22.500           1.563
 91  6 11 18 52 14.9950000  0  4G11G19G 2G 6
  22760235.296    -8307075.988 5  -6473040.24721        11.500           0.406
  20798987.413      250449.831 6    195138.79921        15.750           1.125
  19354776.437   -26269069.531 8 -20469394.27322        29.750           2.438
  20226951.351   -21315380.301 7 -16419943.37322        22.750           1.625
 91  6 11 18 52 29.9950000  0  4G11G19G 2G 6
  22765214.804    -8280890.499 6  -6452635.99721        12.250           0.375
  20802429.468      268540.663 6    209235.48921        15.500           1.188
  19350654.898   -26290738.463 8 -20486279.17022        30.000           2.375
  20219617.702   -21353928.180 7 -16449980.68722        22.250           1.625
 91  6 11 18 52 44.9950000  0  4G11G19G 2G 6
  22770217.569    -8254599.575 5  -6432149.57521        11.500           0.469
  20805886.718      286696.832 6    223383.08421        15.500           1.156
  19346544.616   -26312329.393 8 -20503103.27922        29.750           2.469
  20212287.671   -21392438.122 7 -16479988.42722        22.750           1.688
 91  6 11 18 52 59.9950000  0  4G11G19G 2G 6
  22775242.804    -8228215.727 6  -6411590.76121        12.000           0.375
  20809351.538      304906.108 6    237572.05721        15.750           1.156
  19342449.351   -26333854.485 8 -20519876.08723        29.750           2.531
  20204966.687   -21430922.237 7 -16509976.05722        23.000           1.500
 91  6 11 18 53 14.9950000  0  4G11G19G 2G 6
  22780277.468    -8201734.716 6  -6390956.20421        12.500           0.469
  20812824.062      323173.175 6    251806.07521        14.750           1.219
  19338363.991   -26355309.027 8 -20536593.92422        29.750           2.406
  20197650.335   -21469375.606 7 -16539939.72222        23.000           1.594
 91  6 11 18 53 29.9950000  0  4G11G19G 2G 6
  22785338.476    -8175155.637 6  -6370245.26921        12.000           0.438
  20816307.249      341498.996 6    266085.87421        15.750           1.313
  19334295.483   -26376692.097 8 -20553256.06423        29.500           2.500
  20190339.390   -21507796.959 7 -16569878.43622        23.250           1.594
 91  6 11 18 53 44.9950000  0  4G11G19G 2G 6
  22790413.898    -8148477.623 6  -6349457.25621        12.250           0.344
  20819815.030      359884.871 6    280412.45721        15.750           1.125
  19330242.288   -26398002.517 8 -20569861.59223        29.750           2.500
  20183032.655   -21546185.000 7 -16599791.19122        22.750           1.719
 91  6 11 18 53 59.9950000  0  4G11G19G 2G 6
  22795510.280    -8121698.575 6  -6328590.48921        12.750           0.406
  20823325.054      378333.232 6    294787.73021        16.000           1.094
  19326200.765   -26419237.971 8 -20586408.71323        29.500           2.500
  20175733.374   -21584537.299 7 -16629676.09721        22.750           1.469
 91  6 11 18 54 14.9950000  0  4G11G19G 2G 6
  22800624.023    -8094820.219 6  -6307646.37621        12.750           0.344
  20826846.030      396842.774 6    309210.68021        15.500           1.125
  19322170.749   -26440399.964 8 -20602898.58323        29.500           2.594
  20168442.257   -21622854.689 7 -16659533.81022        22.750           1.594
 91  6 11 18 54 29.9950000  0  4G11G19G 2G 6
  22805758.351    -8067833.312 6  -6286617.60321        12.500           0.344
  20830379.085      415422.841 6    323688.58721        15.000           1.188
  19318162.265   -26461478.867 8 -20619323.71423        30.000           2.531
  20161159.116   -21661127.947 7 -16689357.13022        23.000           1.625
 91  6 11 18 54 44.9950000  0  4G11G19G 2G 6
  22810918.585    -8040744.656 6  -6265509.55621        12.250           0.375
  20833930.054      434067.058 6    338216.47121        15.250           1.219
  19314163.882   -26482481.331 8 -20635689.27423        29.500           2.531
  20153883.593   -21699363.045 7 -16719150.70822        23.250           1.531
 91  6 11 18 54 59.9950000  0  4G11G19G 2G 6
  22816086.351    -8013552.262 6  -6244320.68221        12.500           0.438
  20837488.952      452777.704 6    352796.12721        14.750           1.125
  19310182.319   -26503405.035 8 -20651993.46723        29.250           2.500
  20146615.327   -21737557.745 7 -16748912.81322        22.750           1.594
 91  6 11 18 55 14.9950000  0  4G11G19G 2G 6
  22821286.421    -7986262.229 6  -6223055.70721        12.500           0.344
  20841063.819      471549.190 6    367423.18121        15.500           1.156
  19306218.030   -26524255.505 8 -20668240.59922        30.000           2.406
  20139356.304   -21775717.539 7 -16778647.71622        23.000           1.656
 91  6 11 18 55 29.9950000  0  4G11G19G 2G 6
  22826492.327    -7958872.507 6  -6201713.09721        12.000           0.344
  20844645.874      490383.953 6    382099.54421        14.750           1.125
  19302260.835   -26545030.614 8 -20684429.00322        29.250           2.406
  20132102.640   -21813839.684 7 -16808353.28322        23.500           1.719
 91  6 11 18 55 44.9950000  0  4G11G19G 2G 6
  22831722.632    -7931388.890 6  -6180297.28221        12.000           0.469
  20848239.616      509276.342 6    396820.81921        14.500           1.156
  19298324.249   -26565735.872 8 -20700562.97822        30.000           2.344
  20124851.476   -21851929.672 7 -16838033.79622        23.250           1.656
 91  6 11 18 55 59.9950000  0  4G11G19G 2G 6
  22836974.921    -7903809.462 6  -6158806.82921        12.250           0.313
  20851846.702      528228.580 6    411588.72421        15.000           1.125
  19294394.616   -26586369.222 8 -20716640.92122        29.500           2.469
  20117609.468   -21889985.165 7 -16867687.41922        23.250           1.750
 91  6 11 18 56 14.9950000  0  4G11G19G 2G 6
  22842237.366    -7876137.765 5  -6137244.50921        11.250           0.375
  20855463.241      547237.615 6    426400.88721        14.500           1.094
  19290483.593   -26606933.634 8 -20732665.14323        30.000           2.531
  20110375.273   -21928009.144 7 -16897316.49422        23.500           1.781
 91  6 11 18 56 29.9950000  0  4G11G19G 2G 6
  22847524.554    -7848374.008 5  -6115610.43421        10.750           0.406
  20859093.694      566303.353 6    441257.23221        15.250           1.156
  19286583.819   -26627429.297 8 -20748635.79923        30.250           2.500
  20103142.366   -21966001.443 7 -16926920.88122        22.750           1.781
 91  6 11 18 56 44.9950000  0  4G11G19G 2G 6
  22852819.788    -7820511.309 5  -6093899.29121        10.000           0.375
  20862733.671      585433.027 6    456163.40121        14.500           1.219
  19282698.546   -26647849.055 8 -20764547.30622        30.500           2.469
  20095920.429   -22003954.478 7 -16956494.67222        23.000           1.719
 91  6 11 18 56 59.9950000  0  4G11G19G 2G 6
  22858144.374    -7792548.506 5  -6072110.12121        11.000           0.375
  20866386.202      604628.195 6    471120.59521        14.750           1.031
  19278826.351   -26668191.454 8 -20780398.53322        29.750           2.438
  20088708.054   -22041866.736 7 -16986036.68822        23.000           1.656
 91  6 11 18 57 14.9950000  0  4G11G19G 2G 6
  22863485.671    -7764490.938 5  -6050247.12021        10.750           0.313
  20870049.882      623883.802 6    486124.89921        14.500           1.063
  19274968.374   -26688461.546 8 -20796193.42023        29.500           2.500
  20081500.788   -22079742.982 7 -17015550.64622        23.500           1.563
 91  6 11 18 57 29.9950000  0  4G11G19G 2G 6
  22868848.038    -7736335.147 5  -6028307.57421        10.500           0.375
  20873725.304      643203.681 6    501179.27221        14.500           1.125
  19271124.319   -26708655.535 8 -20811929.00223        29.750           2.594
  20074301.194   -22117579.339 7 -17045033.52022        23.250           1.594
 91  6 11 18 57 44.9950000  0  4G11G19G 2G 6
  22874207.562    -7708084.522 5  -6006294.11421         8.500           0.344
  20877415.116      662584.706 6    516281.29621        14.500           1.063
  19267295.382   -26728776.284 8 -20827607.51423        29.500           2.594
  20067106.069   -22155378.712 7 -17074487.57322        23.250           1.688
 91  6 11 18 57 59.9950000  0  4G11G19G 2G 6
  22879613.890    -7679740.669 5  -5984208.04721        10.250           0.219
  20881115.819      682025.498 6    531429.89521        14.000           0.969
  19263482.741   -26748825.309 8 -20843230.13822        29.750           2.406
  20059921.273   -22193142.327 7 -17103913.76922        23.000           1.563
 91  6 11 18 58 14.9950000  0  4G11G19G 2G 6
  22885024.562    -7651304.208 5  -5962049.77021         9.500           0.344
  20884825.562      701525.950 6    546624.97721        13.750           0.906
  19259680.023   -26768803.010 8 -20858797.18622        29.250           2.344
  20052740.210   -22230870.052 7 -17133312.00222        23.750           1.656
 91  6 11 18 58 29.9950000  0  4G11G19G 2G 6
  22890448.569    -7622768.729 5  -5939814.34121         8.250           0.281
  20888551.757      721092.844 6    561871.83221        14.000           1.063
  19255895.202   -26788702.503 8 -20874303.29022        30.000           2.344
  20045572.444   -22268555.017 7 -17162676.91622        23.000           1.563
 91  6 11 18 58 44.9950000  0  4G11G19G 2G 6
  22895903.148    -7594140.963 5  -5917507.06821         9.500           0.281
  20892282.515      740719.788 6    577165.48121        15.000           0.906
  19252121.116   -26808530.269 8 -20889753.50823        29.750           2.500
  20038405.749   -22306203.512 7 -17192013.40622        23.500           1.688
 91  6 11 18 58 59.9950000  0  4G11G19G 2G 6
  22901362.983    -7565422.379 5  -5895128.94821         9.250           0.250
  20896031.241      760405.313 6    592504.77121        14.000           0.938
  19248361.608   -26828287.800 8 -20905148.98823        30.250           2.531
  20031246.687   -22343816.707 7 -17221322.38722        23.500           1.719
